Date StartTime U_cm/s V_cm/s W_cm/s Ustd_cm/s Vstd_cm/s Wstd_cm/s Uvar_(cm/s)^2 Vvar_(cm/s)^2 Wvar_(cm/s)^2 KE_(m/s)^2 TurbulentKE_(m/s)^2 HorizWindSpeed_cm/s FrictionSpeec_cm/s DragCoef SpeedOfSound_m/s SonicTemperature_C Pressure_mb 
02/08/2014  00:00:00     -503.715     -131.081       -1.621      247.260      237.813      115.185    61137.494    56554.871    13267.627       20.091        6.548      520.491      112.952        0.047      337.265        9.120      856.669
02/08/2014  00:01:00     -497.107     -395.410      -32.602      302.788      255.151      114.964    91680.633    65101.786    13216.695       28.723        8.500      635.189      143.565        0.051      337.309        9.194      856.681
02/08/2014  00:02:00     -603.433     -339.035      -21.041      284.731      200.081      115.516    81071.521    40032.234    13344.024       30.696        6.722      692.153      123.603        0.032      337.319        9.209      856.673
02/08/2014  00:03:00     -391.463     -264.239        7.460      308.260      244.858      126.444    95024.100    59955.584    15988.134       19.701        8.548      472.298      137.764        0.085      337.300        9.178      856.651
02/08/2014  00:04:00     -534.208     -265.373      -35.396      300.014      262.038      118.075    90008.651    68663.668    13941.605       26.480        8.631      596.490      131.353        0.048      337.310        9.194      856.699
02/08/2014  00:05:00     -494.813     -271.717        1.401      300.116      228.820      137.270    90069.841    52358.545    18842.964       23.994        8.064      564.508      161.321        0.082      337.327        9.224      856.774
02/08/2014  00:06:00     -449.504     -177.040        6.385      238.078      214.245      104.702    56681.189    45901.105    10962.433       17.347        5.677      483.112      109.329        0.051      337.312        9.200      856.866
02/08/2014  00:07:00     -641.022     -388.403      -13.153      358.946      333.363      135.845   128841.966   111131.209    18453.854       41.013       12.921      749.510      158.709        0.045      337.352        9.266      856.899
02/08/2014  00:08:00     -875.940     -500.997      -27.410      448.832      297.039      164.571   201450.224    88232.347    27083.690       66.783       15.838     1009.093      200.975        0.040      337.403        9.349      856.841
02/08/2014  00:09:00     -395.883     -299.616       17.672      338.924      276.152      150.628   114869.415    76259.686    22688.684       23.027       10.691      496.481      175.106        0.124      337.399        9.343      856.956
02/08/2014  00:10:00     -699.537     -373.341      -26.210      341.036      247.246      135.641   116305.284    61130.770    18398.515       41.259        9.792      792.928      176.039        0.049      337.385        9.321      856.965
02/08/2014  00:11:00     -512.180     -357.512      -18.857      282.228      247.982      132.238    79652.533    61494.845    17486.847       27.454        7.932      624.614      146.578        0.055      337.395        9.338      856.937
02/08/2014  00:12:00     -524.800     -203.494      -15.876      286.372      217.534      106.440    82008.987    47320.898    11329.534       22.884        7.033      562.872      122.773        0.048      337.353        9.267      857.002
02/08/2014  00:13:00     -711.382     -335.059      -39.833      354.680      265.660      141.105   125798.239    70575.055    19910.604       41.806       10.814      786.338      175.304        0.050      337.370        9.295      857.022
02/08/2014  00:14:00     -668.011     -384.093      -29.839      322.695      243.881      151.290   104132.311    59477.713    22888.590       39.054        9.325      770.562      160.917        0.044      337.378        9.308      857.000
02/08/2014  00:15:00     -468.839     -220.300       22.872      307.240      274.554      133.248    94396.350    75379.843    17755.077       22.816        9.377      518.018      153.902        0.088      337.349        9.260      857.086
02/08/2014  00:16:00     -448.980     -192.382       11.542      338.004      245.534      119.017   114246.940    60286.831    14165.092       21.368        9.435      488.461      134.158        0.075      337.358        9.276      857.097
02/08/2014  00:17:00     -524.936     -335.785       -9.462      306.448      248.081      126.132    93910.598    61544.037    15909.390       27.985        8.568      623.145      126.979        0.042      337.384        9.318      857.148
02/08/2014  00:18:00     -674.672     -419.314      -19.978      334.480      268.260      127.748   111876.960    71963.518    16319.529       41.574       10.008      794.359      154.009        0.038      337.370        9.296      857.041
02/08/2014  00:19:00     -656.129     -436.029       -9.172      414.495      327.847      145.723   171806.422   107483.653    21235.151       46.056       15.026      787.799      178.593        0.051      337.359        9.277      856.971
02/08/2014  00:20:00     -835.497     -537.462      -31.304      344.295      259.395      152.898   118539.337    67285.695    23377.725       59.851       10.460      993.439      161.186        0.026      337.365        9.287      856.949
02/08/2014  00:21:00     -662.443     -377.995      -19.335      392.101      327.545      141.193   153743.215   107286.014    19935.330       43.147       14.048      762.700      181.538        0.057      337.331        9.231      857.024
02/08/2014  00:22:00     -579.766     -354.611      -10.635      243.477      237.980      127.197    59280.994    56634.670    16179.151       29.702        6.605      679.616      129.227        0.036      337.331        9.231      857.089
02/08/2014  00:23:00     -394.851     -210.390      -14.685      298.597      229.056      110.627    89160.024    52466.753    12238.337       17.710        7.693      447.405      151.823        0.115      337.309        9.193      857.143
02/08/2014  00:24:00     -574.878     -191.025        0.229      288.667      231.505      115.469    83328.711    53594.512    13333.190       25.859        7.513      605.785      141.054        0.054      337.267        9.124      857.139
02/08/2014  00:25:00     -333.411     -230.956       23.421      273.820      256.398      121.371    74977.172    65740.117    14730.924       16.022        7.772      405.590      149.540        0.136      337.258        9.107      857.151
02/08/2014  00:26:00     -498.369     -265.408       -7.200      293.750      226.992      115.957    86288.905    51525.428    13446.126       23.503        7.563      564.635      138.486        0.060      337.242        9.081      857.136
02/08/2014  00:27:00     -354.776     -218.443       -2.154      251.322      193.251      119.058    63162.860    37346.101    14174.691       14.411        5.734      416.634      122.300        0.086      337.228        9.059      857.218
02/08/2014  00:28:00     -638.872     -448.921      -10.159      356.432      263.767      134.472   127043.816    69572.935    18082.775       41.220       10.735      780.825      156.080        0.040      337.242        9.082      857.231
02/08/2014  00:29:00     -407.658     -320.160       -8.010      282.161      215.764      128.156    79614.949    46554.128    16423.997       20.564        7.130      518.351      149.067        0.083      337.218        9.042      857.261
02/08/2014  00:30:00     -318.839     -218.346      -11.002      189.871      175.243      101.276    36051.067    30710.187    10256.837       11.322        3.851      386.437      105.873        0.075      337.182        8.982      857.279
02/08/2014  00:31:00     -297.471     -217.328        7.623      158.697      169.295       82.649    25184.645    28660.658     6830.850        9.822        3.034      368.403       85.275        0.054      337.181        8.979      857.331
02/08/2014  00:32:00     -307.489     -124.007      -19.607      204.275      155.645       86.218    41728.423    24225.211     7433.542        9.183        3.669      331.553      103.573        0.098      337.165        8.953      857.348
02/08/2014  00:33:00     -200.665     -139.371       32.985      259.792      161.121       85.790    67491.995    25960.072     7359.851        8.078        5.041      244.317       93.774        0.147      337.121        8.881      857.327
02/08/2014  00:34:00     -588.764     -423.513      -14.488      317.031      238.318      129.111   100508.462    56795.497    16669.708       35.006        8.699      725.263      156.180        0.046      337.122        8.881      857.248
02/08/2014  00:35:00     -448.943     -298.057      -21.120      186.141      204.168      108.417    34648.504    41684.545    11754.209       18.944        4.404      538.876      100.994        0.035      337.099        8.841      857.229
02/08/2014  00:36:00     -553.695     -252.587      -18.271      246.135      262.063      114.044    60582.337    68677.267    13006.023       25.646        7.113      608.587      118.046        0.038      337.079        8.808      857.248
02/08/2014  00:37:00     -512.080     -338.524       -1.210      261.962      189.075      116.614    68623.888    35749.274    13598.780       24.738        5.899      613.860      128.206        0.044      337.078        8.806      857.216
02/08/2014  00:38:00     -550.248     -280.501      -37.214      212.732      180.190      109.760    45254.908    32468.599    12047.284       23.629        4.489      617.619      100.931        0.027      337.046        8.752      857.180
02/08/2014  00:39:00     -460.788     -349.701      -14.298      234.836      220.105      105.402    55147.718    48446.426    11109.538       22.474        5.735      578.460      111.813        0.037      337.041        8.743      857.209
02/08/2014  00:40:00     -499.456     -299.741      -28.574      262.711      268.576      109.229    69017.019    72133.070    11930.989       24.657        7.654      582.496      122.683        0.044      337.051        8.761      857.197
02/08/2014  00:41:00     -429.383     -273.532       -9.980      238.001      206.378       99.416    56644.602    42591.717     9883.456       18.418        5.456      509.107      113.992        0.050      337.037        8.737      857.239
02/08/2014  00:42:00     -412.004     -378.683      -27.648      200.257      204.699      111.162    40102.919    41901.547    12357.035       20.412        4.718      559.596      117.670        0.044      337.043        8.747      857.247
02/08/2014  00:43:00     -234.541     -251.982        2.833      190.186      137.746       89.615    36170.650    18973.920     8030.888        9.083        3.159      344.245       87.367        0.064      337.092        8.829      857.288
02/08/2014  00:44:00     -421.643     -154.508      -24.043      218.609      152.898       93.872    47789.863    23377.690     8811.989       14.109        3.999      449.061      102.588        0.052      337.054        8.765      857.218
02/08/2014  00:45:00     -388.184     -167.804        1.301      233.508      184.620      109.778    54525.767    34084.388    12051.257       13.973        5.033      422.901      108.947        0.066      337.054        8.764      857.237
02/08/2014  00:46:00     -432.427     -211.607       -8.882      254.620      179.844      100.303    64831.219    32343.838    10060.688       16.952        5.362      481.426      106.832        0.049      337.087        8.821      857.188
02/08/2014  00:47:00     -414.606     -309.838       -4.988      225.736      190.069      119.075    50956.890    36126.139    14178.768       18.457        5.063      517.588      122.375        0.056      337.092        8.829      857.205
02/08/2014  00:48:00     -415.886     -146.168       -6.918      240.813      207.971       99.093    57990.748    43251.938     9819.424       15.270        5.553      440.824      106.801        0.059      337.067        8.787      857.202
02/08/2014  00:49:00     -430.677     -388.513      -22.298      244.234      285.666      106.945    59650.226    81605.001    11437.338       24.478        7.635      580.022      140.397        0.059      337.161        8.947      857.117
02/08/2014  00:50:00     -552.361     -298.101      -26.643      253.744      172.972       95.353    64386.039    29919.337     9092.104       24.902        5.170      627.668      102.174        0.026      337.132        8.897      857.115
02/08/2014  00:51:00     -428.444     -379.184       12.529      274.992      236.710      131.374    75620.464    56031.512    17259.024       23.818        7.446      572.141      159.163        0.077      337.144        8.916      857.163
02/08/2014  00:52:00     -357.571     -195.042      -13.928      193.908      152.366       99.381    37600.272    23215.487     9876.554       11.838        3.535      407.306      104.337        0.066      337.105        8.850      857.207
02/08/2014  00:53:00     -327.662     -248.278      -13.043      174.939      186.288       88.854    30603.653    34703.142     7895.078       12.117        3.660      411.101       95.262        0.054      337.071        8.793      857.246
02/08/2014  00:54:00     -361.649     -229.668       -2.408      171.083      173.317       86.931    29269.296    30038.846     7557.048       12.519        3.343      428.413       99.476        0.054      337.068        8.789      857.261
02/08/2014  00:55:00     -490.753     -202.436      -21.889      232.843      207.712       98.743    54215.912    43144.416     9750.241       19.468        5.356      530.866      110.129        0.043      337.091        8.825      857.275
02/08/2014  00:56:00     -549.372     -199.197       -8.883      325.326      207.996      111.311   105837.270    43262.177    12390.107       25.150        8.074      584.371      130.365        0.050      337.156        8.938      857.180
02/08/2014  00:57:00     -446.078     -127.788       -1.676      198.270      221.483      101.867    39310.950    49054.542    10376.884       15.701        4.937      464.021      102.986        0.049      337.132        8.894      857.212
02/08/2014  00:58:00     -697.789     -221.739      -26.514      325.971      247.678      127.636   106257.152    61344.587    16290.943       36.030        9.195      732.174      152.334        0.043      337.195        9.003      857.205
02/08/2014  00:59:00     -486.931     -204.635      -10.354      254.047      158.923      103.558    64539.941    25256.603    10724.313       18.978        5.026      528.183      112.027        0.045      337.194        9.002      857.273
02/08/2014  01:00:00     -499.055     -389.980      -28.936      260.640      199.031      105.796    67933.411    39613.366    11192.805       26.034        5.937      633.357      107.881        0.029      337.159        8.944      857.329
02/08/2014  01:01:00     -646.637     -256.480      -17.831      340.653      300.127      126.161   116044.489    90076.409    15916.574       35.309       11.102      695.644      143.078        0.042      337.179        8.976      857.333
02/08/2014  01:02:00     -370.381      -69.620       -1.570      206.580      162.471      101.355    42675.262    26396.940    10272.821       11.067        3.967      376.867      112.663        0.089      337.142        8.914      857.371
02/08/2014  01:03:00     -424.980     -138.939       17.014      269.913      197.464      110.858    72853.193    38992.111    12289.605       16.214        6.207      447.115      124.415        0.077      337.130        8.893      857.372
02/08/2014  01:04:00     -614.908     -268.778       -6.390      304.942      263.553      133.710    92989.732    69460.161    17878.314       31.533        9.016      671.084      155.844        0.054      337.160        8.944      857.323
02/08/2014  01:05:00     -426.600     -160.339      -12.798      204.444      213.987      115.705    41797.524    45790.630    13387.704       15.440        5.049      455.737      119.966        0.069      337.122        8.878      857.355
02/08/2014  01:06:00     -450.637     -276.067      -19.960      207.768      182.459       96.520    43167.731    33291.456     9316.196       18.271        4.289      528.476      110.148        0.043      337.129        8.891      857.339
02/08/2014  01:07:00     -375.093     -215.952        2.031      242.953      206.296       91.871    59025.979    42558.152     8440.261       14.866        5.501      432.817       98.891        0.052      337.088        8.823      857.342
02/08/2014  01:08:00     -408.331      -61.218      -18.858      271.048      193.107      108.594    73466.791    37290.221    11792.659       14.667        6.127      412.894      122.753        0.088      337.093        8.830      857.357
02/08/2014  01:09:00     -462.737      -50.372      -35.294      258.264      183.386       90.274    66700.129    33630.517     8149.470       16.317        5.424      465.471      107.811        0.054      337.104        8.850      857.296
02/08/2014  01:10:00     -447.122     -201.448        3.774      220.731      194.144      101.746    48722.222    37691.765    10352.265       16.862        4.838      490.407      108.392        0.049      337.053        8.764      857.274
02/08/2014  01:11:00     -521.172     -134.803      -19.730      277.142      199.705       98.616    76807.772    39882.269     9725.155       20.827        6.321      538.323      118.139        0.048      337.062        8.780      857.358
02/08/2014  01:12:00     -297.191      -70.048       12.094      245.232      185.460      114.530    60138.692    34395.585    13117.165       10.049        5.383      305.335      114.662        0.141      337.032        8.728      857.347
02/08/2014  01:13:00     -611.531     -312.366      -28.575      303.832      200.229      129.735    92313.640    40091.703    16831.078       31.077        7.462      686.690      141.231        0.042      337.106        8.853      857.302
02/08/2014  01:14:00     -418.303     -171.161       -3.488      285.336      258.331      111.042    81416.519    66734.727    12330.385       18.235        8.024      451.966      138.299        0.094      337.088        8.822      857.292
02/08/2014  01:15:00     -501.377     -342.432      -20.224      344.610      304.177      150.586   118756.348    92523.481    22676.224       30.146       11.698      607.156      185.359        0.093      337.154        8.934      857.232
02/08/2014  01:16:00     -366.034     -205.857      -16.883      319.383      279.193      126.199   102005.562    77948.453    15926.119       18.622        9.794      419.950      153.675        0.134      337.202        9.015      857.297
02/08/2014  01:17:00     -534.009     -344.069      -19.462      320.363      242.983      120.533   102632.141    59040.974    14528.321       29.003        8.810      635.255      152.823        0.058      337.295        9.170      857.316
02/08/2014  01:18:00     -463.379     -189.411       -8.417      218.802      198.337       96.188    47874.284    39337.621     9252.098       17.355        4.823      500.596      101.319        0.041      337.284        9.152      857.384
02/08/2014  01:19:00     -500.980      -65.973      -17.212      225.649      258.375      108.816    50917.694    66757.684    11841.018       19.255        6.476      505.305       85.770        0.029      337.264        9.119      857.351
02/08/2014  01:20:00     -456.374     -379.738      -27.240      329.870      286.874      145.842   108813.949    82296.738    21269.914       28.276       10.619      593.699      177.969        0.090      337.294        9.168      857.340
02/08/2014  01:21:00     -604.559     -342.738       -8.866      364.836      207.194      134.084   133105.393    42929.296    17978.476       33.849        9.701      694.954      151.370        0.047      337.335        9.237      857.386
02/08/2014  01:22:00     -462.416     -233.143        3.853      261.392      196.201      104.786    68325.782    38494.639    10980.116       19.298        5.890      517.865      119.875        0.054      337.367        9.289      857.401
02/08/2014  01:23:00     -475.292     -208.533       -8.651      243.776      217.970      100.652    59426.824    47510.869    10130.859       19.324        5.853      519.027      116.306        0.050      337.361        9.280      857.369
02/08/2014  01:24:00     -565.189     -156.265       -9.013      263.515      234.736      117.005    69440.213    55100.794    13690.088       24.106        6.912      586.393      129.241        0.049      337.394        9.335      857.390
02/08/2014  01:25:00     -485.156     -215.198       -8.981      251.874      193.582      111.747    63440.290    37473.919    12487.401       19.756        5.670      530.742      112.999        0.045      337.433        9.400      857.526
02/08/2014  01:26:00     -471.162     -290.588      -15.986      347.315      241.394      128.294   120627.789    58271.222    16459.301       25.099        9.768      553.566      156.495        0.080      337.433        9.400      857.517
02/08/2014  01:27:00     -538.983     -241.673      -15.649      366.343      261.570      138.830   134207.124    68418.654    19273.866       28.548       11.095      590.685      138.688        0.055      337.430        9.395      857.388
02/08/2014  01:28:00     -577.563     -348.556      -25.634      297.989      224.312      121.931    88797.386    50315.873    14867.165       30.482        7.699      674.589      146.947        0.047      337.443        9.418      857.419
02/08/2014  01:29:00     -534.745     -220.134      -13.854      273.616      276.212      131.908    74865.801    76293.333    17399.721       25.155        8.428      578.283      140.583        0.059      337.468        9.457      857.344
02/08/2014  01:30:00     -354.649     -198.315       13.610      240.412      231.907      110.465    57797.874    53780.882    12202.443       14.451        6.189      406.331      124.614        0.094      337.472        9.466      857.440
02/08/2014  01:31:00     -422.309     -124.522        4.595      206.993      206.959      107.653    42845.969    42832.120    11589.191       14.555        4.863      440.285      115.470        0.069      337.450        9.429      857.473
02/08/2014  01:32:00     -541.255     -346.388       -7.968      264.778      229.216      118.926    70107.650    52539.869    14143.500       27.487        6.840      642.606      137.261        0.046      337.439        9.411      857.476
02/08/2014  01:33:00     -449.944     -232.809       20.525      265.873      254.701      118.980    70688.450    64872.749    14156.159       20.336        7.486      506.606      134.271        0.070      337.449        9.427      857.453
02/08/2014  01:34:00     -510.293     -251.267       -1.108      245.430      208.091      117.891    60235.705    43301.725    13898.359       22.046        5.872      568.801      129.931        0.052      337.432        9.398      857.540
02/08/2014  01:35:00     -485.202     -283.489       -1.053      304.274      239.185      116.781    92582.674    57209.457    13637.701       23.958        8.171      561.949      127.193        0.051      337.442        9.416      857.611
02/08/2014  01:36:00     -661.488     -349.996       -2.526      335.419      306.410      143.582   112505.806    93887.256    20615.876       39.349       11.350      748.374      164.220        0.048      337.529        9.560      857.548
02/08/2014  01:37:00     -536.429     -432.820       -1.312      326.065      216.001      151.341   106318.375    46656.342    22904.103       32.545        8.794      689.268      167.806        0.059      337.520        9.544      857.662
02/08/2014  01:38:00     -563.240     -343.486        6.573      273.817      252.834      135.978    74975.772    63924.880    18489.963       29.630        7.870      659.713      122.186        0.034      337.524        9.553      857.642
02/08/2014  01:39:00     -584.503     -325.647        8.964      312.938      273.440      143.424    97930.003    74769.485    20570.488       32.048        9.663      669.096      164.918        0.061      337.532        9.564      857.664
02/08/2014  01:40:00     -541.880     -414.528      -12.663      297.217      232.784      130.980    88337.699    54188.391    17155.869       31.262        7.984      682.252      142.000        0.043      337.537        9.575      857.751
02/08/2014  01:41:00     -478.175     -332.648      -25.789      217.371      206.186       94.440    47250.198    42512.782     8918.996       21.931        4.934      582.500       78.657        0.018      337.519        9.543      857.873
02/08/2014  01:42:00     -594.502     -562.465      -32.323      332.087      267.547      168.416   110281.454    71581.355    28364.106       44.049       10.511      818.413      198.247        0.059      337.558        9.612      857.814
02/08/2014  01:43:00     -805.351     -451.807      -27.221      338.992      280.953      142.150   114915.828    78934.693    20206.507       53.372       10.703      923.428      157.701        0.029      337.563        9.618      857.743
02/08/2014  01:44:00     -427.115     -328.757       -6.491      329.420      214.840      119.257   108517.421    46156.338    14222.121       22.969        8.445      538.988      146.187        0.074      337.539        9.577      857.748
02/08/2014  01:45:00     -567.239     -258.809      -43.373      199.507      192.689       92.152    39802.935    37129.091     8491.979       23.801        4.271      623.492       84.004        0.018      337.498        9.508      857.744
02/08/2014  01:46:00     -379.346     -219.093       -9.172      264.813      257.908      114.067    70125.785    66516.708    13011.394       17.079        7.483      438.070      138.702        0.100      337.502        9.514      857.695
02/08/2014  01:47:00     -503.767     -242.247      -21.862      282.219      260.057      118.708    79647.491    67629.899    14091.606       23.712        8.068      558.986      130.371        0.054      337.583        9.650      857.707
02/08/2014  01:48:00     -471.196     -244.938       -9.499      256.053      238.394      122.428    65563.330    56831.602    14988.643       20.972        6.869      531.056      131.725        0.062      337.517        9.540      857.771
02/08/2014  01:49:00     -516.834      -83.436       -4.315      255.224      220.907      112.761    65139.544    48800.114    12715.012       20.035        6.333      523.526      129.070        0.061      337.521        9.547      857.760
02/08/2014  01:50:00     -471.297     -105.007        8.662      239.284      244.021      111.254    57256.599    59546.358    12377.360       18.118        6.459      482.853      122.845        0.065      337.517        9.542      857.736
02/08/2014  01:51:00     -533.990     -267.158      -23.925      268.402      218.145      103.580    72039.660    47587.392    10728.817       24.370        6.518      597.092       98.376        0.027      337.543        9.583      857.750
02/08/2014  01:52:00     -268.779     -114.727        6.164      217.862      146.144       72.189    47463.891    21357.973     5211.233        7.972        3.702      292.240       97.401        0.111      337.489        9.495      857.766
02/08/2014  01:53:00     -436.947     -265.773       -4.106      399.047      338.957      145.314   159238.659   114891.905    21116.131       27.835       14.762      511.427      198.159        0.150      337.546        9.590      857.727
02/08/2014  01:54:00     -693.863     -360.357      -43.146      376.349      316.128      154.479   141638.649    99936.635    23863.663       43.925       13.272      781.859      180.014        0.053      337.626        9.723      857.647
02/08/2014  01:55:00     -728.029     -238.096      -19.029      361.570      318.618      142.828   130732.586   101517.586    20399.892       41.981       12.633      765.973      176.561        0.053      337.608        9.693      857.597
02/08/2014  01:56:00     -672.356     -323.714      -11.850      382.933      258.814      141.854   146637.677    66984.521    20122.608       39.532       11.687      746.226      167.883        0.051      337.593        9.669      857.626
02/08/2014  01:57:00     -486.019     -323.864        9.527      306.063      222.382      139.803    93674.362    49453.928    19544.875       25.190        8.134      584.040      144.589        0.061      337.612        9.700      857.539
02/08/2014  01:58:00     -467.528     -175.860       -2.901      280.791      199.399      107.099    78843.729    39759.983    11470.207       18.977        6.504      499.509      119.227        0.057      337.574        9.636      857.577
02/08/2014  01:59:00     -424.694     -223.067       -5.861      305.986      198.954      113.123    93627.277    39582.706    12796.724       18.805        7.300      479.713      131.507        0.075      337.591        9.665      857.603
02/08/2014  02:00:00     -461.541     -338.922      -29.070      262.977      237.566      120.329    69157.159    56437.440    14479.178       23.437        7.004      572.615      139.336        0.059      337.605        9.688      857.610
02/08/2014  02:01:00     -494.378     -190.516       -0.606      299.440      219.936      117.702    89664.049    48371.838    13853.729       21.627        7.594      529.817      145.363        0.075      337.600        9.680      857.685
02/08/2014  02:02:00     -461.987     -200.995        1.455      409.567      288.306      149.402   167745.203    83120.412    22320.966       26.346       13.659      503.816      186.280        0.137      337.583        9.652      857.694
02/08/2014  02:03:00     -451.176     -328.065        7.498      239.847      184.466      102.703    57526.750    34027.763    10547.898       20.665        5.105      557.841      112.775        0.041      337.592        9.665      857.785
02/08/2014  02:04:00     -625.549     -383.127      -18.627      323.508      278.857      143.553   104657.129    77761.257    20607.404       37.070       10.151      733.552      163.411        0.050      337.626        9.724      857.851
02/08/2014  02:05:00     -364.280      -81.642        7.142      229.999      218.457      106.009    52899.457    47723.430    11237.842       12.562        5.593      373.317      115.751        0.096      337.633        9.737      857.928
02/08/2014  02:06:00     -438.258     -315.835      -33.816      271.574      208.768      111.050    73752.257    43584.141    12332.193       21.129        6.483      540.206      125.613        0.054      337.647        9.759      857.972
02/08/2014  02:07:00     -474.805     -265.142        0.507      260.783      252.292      119.131    68007.883    63651.063    14192.269       22.077        7.293      543.820      130.491        0.058      337.658        9.779      858.029
02/08/2014  02:08:00     -508.851     -164.240       -5.861      344.118      222.809      132.955   118416.936    49643.749    17676.943       23.580        9.287      534.700      147.406        0.076      337.663        9.786      857.939
02/08/2014  02:09:00     -361.290      -97.505       18.978      237.567      200.667       95.822    56437.994    40267.400     9181.786       12.312        5.294      374.216      106.852        0.082      337.663        9.786      857.898
02/08/2014  02:10:00     -561.429     -349.500      -10.363      283.007      284.862      116.789    80092.787    81146.490    13639.639       30.613        8.744      661.327      130.862        0.039      337.731        9.900      857.855
02/08/2014  02:11:00     -436.104     -202.191       -9.918      253.446      216.288      119.679    64235.079    46780.644    14323.014       17.823        6.267      480.695      126.432        0.069      337.701        9.850      857.905
02/08/2014  02:12:00     -622.438     -186.366      -12.413      347.871      280.384      130.868   121014.021    78615.285    17126.361       31.949       10.838      649.740      150.272        0.053      337.689        9.829      857.857
02/08/2014  02:13:00     -678.378     -319.034      -24.330      368.218      324.360      142.831   135584.143   105209.199    20400.766       41.183       13.060      749.653      178.770        0.057      337.711        9.866      857.828
02/08/2014  02:14:00     -594.653     -151.270      -18.458      330.471      225.527      126.788   109211.161    50862.561    16075.273       27.646        8.807      613.592      151.931        0.061      337.682        9.818      857.857
02/08/2014  02:15:00     -377.066     -144.893      -14.850      283.822      204.828      111.193    80554.978    41954.503    12363.869       14.911        6.744      403.947      129.168        0.102      337.667        9.793      857.839
02/08/2014  02:16:00     -389.637     -213.265      -13.261      263.014      247.614      115.803    69176.569    61312.666    13410.415       17.066        7.195      444.184      135.724        0.093      337.655        9.775      857.832
02/08/2014  02:17:00     -387.741     -224.522        1.071      283.010      201.439      131.775    80094.883    40577.596    17364.655       16.937        6.902      448.054      140.343        0.098      337.675        9.808      857.807
02/08/2014  02:18:00     -707.268     -336.035      -26.229      354.943      313.207      164.782   125984.201    98098.609    27153.213       43.249       12.562      783.037      175.970        0.051      337.703        9.853      857.789
02/08/2014  02:19:00     -609.762     -222.525      -13.884      302.832      371.388      140.154    91707.192   137928.719    19643.033       33.535       12.464      649.097      153.790        0.056      337.679        9.813      857.811
02/08/2014  02:20:00     -629.578     -167.999      -28.518      313.591      263.400      128.496    98339.287    69379.354    16511.186       30.478        9.211      651.607      151.982        0.054      337.649        9.763      857.880
02/08/2014  02:21:00     -457.805      -52.512       -1.132      237.065      171.158      100.760    56199.986    29294.972    10152.503       15.398        4.782      460.806      104.968        0.052      337.645        9.757      857.927
02/08/2014  02:22:00     -427.943      -64.327       -7.633      200.292      161.932       90.317    40116.750    26221.926     8157.221       13.090        3.725      432.751      102.156        0.056      337.610        9.698      857.929
02/08/2014  02:23:00     -423.849     -183.459       -8.357      259.028      218.481      121.939    67095.669    47733.991    14869.096       17.151        6.485      461.849      136.946        0.088      337.623        9.720      857.901
02/08/2014  02:24:00     -626.731     -278.038      -21.848      394.845      262.025      164.843   155902.293    68656.880    27173.171       36.110       12.587      685.636      205.427        0.090      337.629        9.730      857.851
02/08/2014  02:25:00     -620.132     -445.948      -13.387      301.019      258.285      150.803    90612.314    66711.004    22741.626       38.180        9.003      763.828      164.933        0.047      337.628        9.727      857.879
02/08/2014  02:26:00     -611.206     -337.548      -21.050      293.510      276.027      141.260    86148.080    76190.657    19954.250       33.509        9.115      698.220      146.793        0.044      337.647        9.760      857.919
02/08/2014  02:27:00     -491.112     -345.442       -4.636      315.825      220.105      115.893    99745.368    48446.255    13431.135       26.105        8.081      600.434      144.321        0.058      337.650        9.764      857.930
02/08/2014  02:28:00     -524.920     -177.046        2.005      276.351      257.920      117.191    76369.900    66522.978    13733.757       23.173        7.831      553.973      145.784        0.069      337.628        9.728      857.927
02/08/2014  02:29:00     -566.381     -111.313      -21.107      276.684      250.925      119.680    76554.018    62963.581    14323.236       24.370        7.692      577.216      142.253        0.061      337.609        9.695      857.934
02/08/2014  02:30:00     -416.316     -139.587        0.255      341.230      160.801       98.641   116437.969    25856.804     9730.047       17.238        7.601      439.094      129.802        0.087      337.566        9.623      857.851
02/08/2014  02:31:00     -454.043     -310.105       -0.937      297.283      258.261      140.464    88377.298    66698.492    19730.018       23.853        8.740      549.837      150.599        0.075      337.555        9.605      857.837
02/08/2014  02:32:00     -618.710     -344.166       -4.076      377.985      280.530      135.450   142872.924    78697.302    18346.660       37.055       11.996      707.992      170.063        0.058      337.565        9.620      857.767
02/08/2014  02:33:00     -591.558     -357.084      -39.456      262.369      231.334      109.782    68837.362    53515.570    12052.098       30.668        6.720      690.977      115.092        0.028      337.570        9.629      857.795
02/08/2014  02:34:00     -520.015     -318.616      -14.621      272.556      279.110      119.979    74286.879    77902.540    14395.063       26.933        8.329      609.862      137.447        0.051      337.564        9.619      857.711
02/08/2014  02:35:00     -508.624     -116.817        5.264      286.180      248.021      126.228    81898.794    61514.375    15933.420       21.583        7.967      521.866      149.114        0.082      337.559        9.611      857.746
02/08/2014  02:36:00     -651.400     -339.661       -0.808      349.523      302.619      148.412   122166.633    91577.997    22026.102       38.768       11.789      734.638      182.980        0.062      337.630        9.731      857.745
02/08/2014  02:37:00     -632.873     -434.068      -19.445      328.788      278.475      145.680   108101.735    77548.466    21222.522       39.806       10.344      767.426      154.525        0.041      337.665        9.791      857.747
02/08/2014  02:38:00     -444.892     -277.119        6.292      308.539      259.918      124.263    95196.433    67557.296    15441.175       22.644        8.910      524.141      133.707        0.065      337.646        9.758      857.793
02/08/2014  02:39:00     -437.692     -200.954       -5.339      346.620      261.642      135.895   120145.100    68456.654    18467.323       21.949       10.353      481.619      171.245        0.126      337.643        9.752      857.831
02/08/2014  02:40:00     -764.753     -415.555      -31.167      372.830      338.083      148.429   139002.123   114299.918    22031.148       51.686       13.767      870.364      154.767        0.032      337.648        9.761      857.837
02/08/2014  02:41:00     -691.686     -504.889      -37.429      269.500      254.358      135.542    72630.029    64698.023    18371.529       44.519        7.785      856.354      150.517        0.031      337.686        9.824      857.904
02/08/2014  02:42:00     -490.922     -295.707      -21.892      275.092      240.796      124.024    75675.380    57982.658    15382.018       23.895        7.452      573.104      147.713        0.066      337.654        9.771      857.858
02/08/2014  02:43:00     -583.117     -202.539        8.114      420.485      244.785      117.026   176807.418    59919.875    13695.088       31.572       12.521      617.290      144.998        0.055      337.596        9.673      857.934
02/08/2014  02:44:00     -677.139     -178.107       -3.641      369.723      211.600      139.725   136694.969    44774.659    19523.198       34.558       10.050      700.171      163.277        0.054      337.630        9.730      857.989
02/08/2014  02:45:00     -524.303     -358.417      -24.961      308.416      321.444      142.886    95120.461   103326.051    20416.457       31.138       10.943      635.103      173.503        0.075      337.621        9.715      858.036
02/08/2014  02:46:00     -732.001     -442.903        0.974      459.353      358.205      176.788   211005.132   128310.514    31254.088       55.121       18.528      855.563      219.536        0.066      337.623        9.720      858.096
02/08/2014  02:47:00     -756.773     -408.060      -37.454      308.456      315.883      127.118    95144.933    99782.169    16159.087       47.581       10.554      859.778      147.921        0.030      337.641        9.751      858.094
02/08/2014  02:48:00     -508.800     -251.463      -18.000      404.305      277.301      130.003   163462.323    76895.579    16900.661       28.980       12.863      567.549      172.371        0.092      337.624        9.720      858.248
02/08/2014  02:49:00     -684.826     -321.897       -6.798      381.372      295.435      145.139   145444.835    87281.866    21065.459       41.317       12.690      756.706      191.418        0.064      337.668        9.794      858.230
02/08/2014  02:50:00     -614.673     -285.923      -15.472      252.469      262.580      134.094    63740.422    68948.346    17981.275       30.521        7.534      677.919      152.500        0.051      337.675        9.808      858.308
02/08/2014  02:51:00     -647.252     -311.981       -8.018      336.069      318.022      155.970   112942.551   101137.769    24326.796       37.732       11.920      718.518      173.767        0.058      337.727        9.895      858.183
02/08/2014  02:52:00     -564.093     -416.816      -18.547      330.254      320.702      162.895   109067.956   102849.963    26534.804       36.532       11.923      701.382      185.406        0.070      337.677        9.810      858.227
02/08/2014  02:53:00     -506.381     -228.453        1.951      267.697      216.594      115.369    71661.586    46913.010    13310.119       22.022        6.594      555.529      138.256        0.062      337.671        9.800      858.228
02/08/2014  02:54:00     -612.130     -347.121      -26.796      306.274      271.365      126.288    93803.970    73638.941    15948.781       33.962        9.170      703.702      143.169        0.041      337.683        9.818      858.219
02/08/2014  02:55:00     -417.943     -288.708       -2.023      295.184      262.209      139.052    87133.701    68753.392    19335.389       21.659        8.761      507.965      154.635        0.093      337.675        9.806      858.272
02/08/2014  02:56:00     -559.803     -221.957      -14.087      331.964      264.510      144.808   110199.908    69965.601    20969.294       28.195       10.057      602.199      178.519        0.088      337.685        9.823      858.254
02/08/2014  02:57:00     -403.243     -185.989        3.504      355.659      260.454      136.911   126493.624    67836.396    18744.725       20.510       10.654      444.069      176.985        0.159      337.658        9.779      858.305
02/08/2014  02:58:00     -633.845     -168.631       -7.917      324.840      256.359      130.192   105520.841    65720.142    16949.833       30.919        9.410      655.893      141.790        0.047      337.651        9.766      858.283
02/08/2014  02:59:00     -481.174     -258.010       19.086      360.499      271.926      148.328   129959.731    73943.877    22001.322       26.214       11.295      545.984      179.532        0.108      337.665        9.790      858.296
02/08/2014  03:00:00     -657.058     -327.597      -31.293      442.055      316.852      149.048   195412.999   100395.308    22215.297       42.896       15.901      734.197      174.085        0.056      337.714        9.872      858.253
02/08/2014  03:01:00     -793.883     -255.525        3.284      359.080      376.145      164.814   128938.296   141484.799    27163.666       49.651       14.879      833.992      189.294        0.052      337.695        9.839      858.237
02/08/2014  03:02:00     -633.365     -442.606      -14.957      381.872      310.747      141.899   145826.280    96563.686    20135.436       42.985       13.126      772.691      170.886        0.049      337.675        9.807      858.221
02/08/2014  03:03:00     -373.642     -172.585        6.393      289.929      242.335      127.105    84058.879    58726.470    16155.689       16.416        7.947      411.575      159.815        0.151      337.674        9.806      858.279
02/08/2014  03:04:00     -612.487     -314.146      -27.971      260.853      209.623      118.383    68044.281    43941.803    14014.609       30.028        6.300      688.352      127.961        0.035      337.648        9.759      858.195
02/08/2014  03:05:00     -443.248     -212.669        5.354      271.789      204.969      114.242    73869.292    42012.128    13051.180       18.530        6.447      491.627      131.485        0.072      337.651        9.765      858.271
02/08/2014  03:06:00     -673.795     -343.125      -32.502      341.591      322.256      138.967   116684.370   103848.819    19311.798       40.627       11.992      756.131      131.122        0.030      337.737        9.910      858.240
02/08/2014  03:07:00     -754.712     -301.112      -41.901      406.555      312.417      139.034   165286.794    97604.477    19330.488       47.206       14.111      812.563      176.083        0.047      337.733        9.902      858.247
02/08/2014  03:08:00     -552.690     -213.524        2.601      299.321      222.226      123.596    89592.843    49384.196    15275.968       25.263        7.713      592.502      140.658        0.056      337.680        9.814      858.325
02/08/2014  03:09:00     -420.599      -81.238       -8.113      252.627      226.633      102.632    63820.352    51362.534    10533.393       15.462        6.286      428.373      113.911        0.071      337.651        9.766      858.359
02/08/2014  03:10:00     -696.018     -216.418      -39.623      383.603      220.884      131.487   147151.316    48789.757    17288.884       37.300       10.661      728.888      153.421        0.044      337.651        9.766      858.340
02/08/2014  03:11:00     -510.621     -168.397       -0.592      317.572      237.370      142.177   100851.886    56344.334    20214.369       23.322        8.871      537.672      163.748        0.093      337.656        9.775      858.368
02/08/2014  03:12:00     -763.755     -268.378      -31.898      317.112      269.288      129.778   100560.052    72516.087    16842.299       42.310        9.496      809.536      149.703        0.034      337.647        9.760      858.395
02/08/2014  03:13:00     -541.439     -397.551      -27.004      285.919      241.215      143.387    81749.675    58184.449    20559.831       30.618        8.025      671.716      142.827        0.045      337.637        9.743      858.407
02/08/2014  03:14:00     -348.542     -197.229      -14.105      282.656      230.300      118.134    79894.427    53038.224    13955.648       15.370        7.344      400.476      127.980        0.102      337.640        9.748      858.422
02/08/2014  03:15:00     -615.769     -230.649      -32.275      300.807      228.391      116.182    90484.906    52162.600    13498.145       29.475        7.807      657.548      115.828        0.031      337.645        9.755      858.457
02/08/2014  03:16:00     -430.421      -47.385       25.626      306.098      242.337      132.640    93695.728    58727.277    17593.400       17.906        8.501      433.021      150.408        0.121      337.641        9.750      858.472
02/08/2014  03:17:00     -329.963     -216.952        6.969      276.993      206.821      119.767    76725.087    42774.837    14344.045       14.489        6.692      394.897      148.303        0.141      337.652        9.768      858.548
02/08/2014  03:18:00     -477.955     -232.728      -15.978      355.957      203.285      137.304   126705.219    41324.818    18852.391       23.483        9.344      531.605      178.552        0.113      337.620        9.713      858.507
02/08/2014  03:19:00     -726.793     -315.459      -29.873      385.499      297.133      155.038   148609.225    88287.752    24036.685       44.473       13.047      792.302      186.123        0.055      337.627        9.725      858.422
02/08/2014  03:20:00     -623.488     -288.372      -12.582      323.506      294.276      152.871   104656.400    86598.655    23369.421       34.330       10.731      686.946      184.849        0.072      337.639        9.746      858.467
02/08/2014  03:21:00     -540.344     -310.847      -17.463      293.229      287.309      139.909    85983.318    82546.390    19574.472       28.847        9.405      623.376      163.097        0.068      337.631        9.733      858.526
02/08/2014  03:22:00     -677.329     -307.888      -28.255      349.130      227.756      129.624   121891.639    51872.722    16802.260       37.243        9.528      744.023      131.435        0.031      337.610        9.699      858.491
02/08/2014  03:23:00     -397.528     -258.042        3.100      226.499      223.538      101.354    51301.829    49969.334    10272.579       16.806        5.577      473.934      112.167        0.056      337.591        9.667      858.507
02/08/2014  03:24:00     -300.766     -293.991        9.860      233.521      265.785      112.449    54532.149    70641.477    12644.690       15.738        6.891      420.584      122.949        0.085      337.573        9.635      858.479
02/08/2014  03:25:00     -543.610     -379.187      -14.368      334.925      250.028      131.325   112174.787    62513.776    17246.274       31.568        9.597      662.793      165.072        0.062      337.604        9.687      858.404
02/08/2014  03:26:00     -510.041     -290.389      -21.801      267.382      229.645      128.574    71493.298    52736.864    16531.253       24.282        7.038      586.913      148.237        0.064      337.586        9.657      858.461
02/08/2014  03:27:00     -311.523     -159.558       42.289      300.286      271.237      125.349    90171.906    73569.245    15712.477       15.184        8.973      350.007      155.346        0.197      337.537        9.574      858.380
02/08/2014  03:28:00     -649.374     -325.729      -22.186      310.473      255.319      138.248    96393.212    65187.883    19112.629       35.445        9.035      726.488      128.284        0.031      337.549        9.594      858.407
02/08/2014  03:29:00     -602.953     -305.330       -2.405      309.817      327.497      147.737    95986.334   107254.346    21826.245       34.088       11.253      675.854      151.444        0.050      337.560        9.611      858.336
02/08/2014  03:30:00     -484.862     -272.442       16.091      326.013      244.662      144.575   106284.686    59859.506    20901.788       24.827        9.352      556.162      183.495        0.109      337.554        9.603      858.385
02/08/2014  03:31:00     -519.673     -371.501       -2.752      262.566      184.552      112.564    68940.721    34059.454    12670.743       26.185        5.784      638.806      134.720        0.044      337.577        9.641      858.389
02/08/2014  03:32:00     -610.994     -202.206      -16.479      323.290      217.528      126.581   104516.129    47318.540    16022.635       29.113        8.393      643.585      140.883        0.048      337.528        9.559      858.370
02/08/2014  03:33:00     -428.663     -242.264      -12.901      285.629      231.701      125.900    81584.116    53685.583    15850.809       19.684        7.556      492.386      133.778        0.074      337.505        9.520      858.365
02/08/2014  03:34:00     -626.489     -202.824      -12.177      315.738      218.702      122.403    99690.494    47830.527    14982.398       29.811        8.125      658.503      117.067        0.032      337.505        9.520      858.339
02/08/2014  03:35:00     -561.907     -406.157      -14.284      312.113      245.871      147.450    97414.327    60452.726    21741.393       33.022        8.980      693.328      165.386        0.057      337.547        9.592      858.295
02/08/2014  03:36:00     -573.522     -378.169      -38.951      302.860      290.597      139.681    91723.894    84446.583    19510.904       33.453        9.784      686.979      162.725        0.056      337.553        9.600      858.379
02/08/2014  03:37:00     -439.924     -278.458        2.522      306.942      301.016      134.011    94213.462    90610.528    17958.869       23.689       10.139      520.646      158.011        0.092      337.535        9.570      858.350
02/08/2014  03:38:00     -450.996     -331.911        4.690      284.223      225.107      130.125    80782.784    50673.373    16932.550       23.096        7.419      559.966      138.204        0.061      337.535        9.571      858.333
02/08/2014  03:39:00     -448.905     -267.113       15.913      284.277      229.527      139.033    80813.382    52682.798    19330.108       21.294        7.641      522.365      158.991        0.093      337.563        9.617      858.331
02/08/2014  03:40:00     -590.050     -292.402      -35.827      403.046      252.541      142.848   162446.158    63777.169    20405.463       34.074       12.331      658.527      184.120        0.078      337.534        9.568      858.303
02/08/2014  03:41:00     -680.917     -214.338      -22.939      350.565      267.961      141.518   122895.821    71803.324    20027.271       36.238       10.736      713.855      160.133        0.050      337.502        9.515      858.254
02/08/2014  03:42:00     -539.699     -143.492        8.886      285.907      250.066      130.776    81742.851    62532.948    17102.340       23.663        8.069      558.448      147.578        0.070      337.495        9.505      858.249
02/08/2014  03:43:00     -782.166     -395.042      -51.690      407.474      316.153      170.928   166034.794    99952.711    29216.358       53.280       14.760      876.266      199.863        0.052      337.554        9.605      858.120
02/08/2014  03:44:00     -697.557     -313.084      -34.684      329.483      245.124      112.503   108559.079    60085.977    12657.037       38.352        9.065      764.596      130.292        0.029      337.531        9.564      858.094
02/08/2014  03:45:00     -553.866     -330.901       -9.728      344.239      315.383      169.735   118500.663    99466.238    28809.982       33.152       12.339      645.184      200.511        0.097      337.515        9.536      858.044
02/08/2014  03:46:00     -748.749     -302.736       -8.465      342.113      258.393      124.514   117041.005    66767.125    15503.632       42.579        9.966      807.635      149.817        0.034      337.520        9.547      858.097
02/08/2014  03:47:00     -889.639     -242.032      -38.190      373.203      301.275      138.317   139280.387    90766.555    19131.511       55.029       12.459      921.975      137.725        0.022      337.556        9.606      858.073
02/08/2014  03:48:00     -502.421      -78.196        3.553      266.704      193.615       94.758    71130.809    37486.900     8979.122       18.805        5.880      508.470      104.471        0.042      337.499        9.511      858.098
02/08/2014  03:49:00     -534.446     -182.640      -23.493      252.373      224.004      102.135    63692.315    50177.897    10431.494       22.190        6.215      564.792      118.483        0.044      337.473        9.467      858.119
02/08/2014  03:50:00     -615.221     -362.608      -20.835      277.817      243.051      119.353    77182.041    59073.860    14245.221       33.043        7.525      714.130      130.744        0.034      337.534        9.568      858.164
02/08/2014  03:51:00     -548.995     -186.638        0.839      342.726      294.067      130.501   117461.093    86475.111    17030.390       27.855       11.048      579.853      154.770        0.071      337.536        9.573      858.092
02/08/2014  03:52:00     -508.512     -183.630      -37.570      447.525      249.886      165.498   200278.221    62443.120    27389.549       29.186       14.506      540.652      206.122        0.145      337.552        9.599      858.079
02/08/2014  03:53:00     -439.631     -233.651      -10.602      248.197      233.253      127.989    61601.814    54406.954    16381.120       19.016        6.619      497.864      148.410        0.089      337.544        9.587      858.064
02/08/2014  03:54:00     -448.537     -135.579      -13.115      197.249      200.073      103.249    38907.359    40029.378    10660.421       15.465        4.480      468.580      100.876        0.046      337.533        9.568      858.057
02/08/2014  03:55:00     -591.655      -69.085       -5.135      316.747      186.918      109.637   100328.662    34938.163    12020.273       25.104        7.364      595.675      136.039        0.052      337.559        9.611      857.970
02/08/2014  03:56:00     -494.214     -179.048      -11.129      397.807      231.077      125.412   158250.509    53396.356    15728.185       25.186       11.369      525.648      160.147        0.093      337.700        9.848      858.065
02/08/2014  03:57:00     -443.955     -205.054      -27.559      231.364      157.657       89.347    53529.155    24855.639     7982.829       16.312        4.318      489.023       92.913        0.036      337.638        9.745      858.028
02/08/2014  03:58:00     -592.037     -104.137      -42.325      301.849      231.700      110.806    91113.060    53685.034    12277.998       26.008        7.854      601.126      135.334        0.051      337.584        9.653      858.073
02/08/2014  03:59:00     -451.733     -267.583       -4.342      264.865      276.323      129.218    70153.636    76354.141    16697.172       21.941        8.160      525.036      130.745        0.062      337.557        9.606      858.134
02/08/2014  04:00:00     -410.096      -83.590        2.074      330.241      211.961      118.819   109059.245    44927.374    14117.919       17.160        8.405      418.528      133.358        0.102      337.551        9.598      858.154
02/08/2014  04:01:00     -515.069     -257.952       -6.150      349.594      265.977      137.412   122216.312    70743.766    18881.942       27.182       10.592      576.051      167.083        0.084      337.573        9.634      858.190
02/08/2014  04:02:00     -311.950     -232.003        3.900      224.955      151.638       91.709    50604.633    22993.933     8410.517       11.656        4.100      388.765       97.739        0.063      337.558        9.609      858.256
02/08/2014  04:03:00     -294.429     -177.961       -1.626      201.015      188.504       94.556    40407.073    35533.635     8940.766       10.160        4.244      344.033      121.252        0.124      337.593        9.668      858.177
02/08/2014  04:04:00     -535.545     -336.856      -16.170      258.346      205.446      106.150    66742.836    42208.220    11267.815       26.036        6.011      632.677      120.918        0.037      337.607        9.692      858.142
02/08/2014  04:05:00     -482.203     -248.904      -19.154      275.490      226.949      125.276    75894.935    51505.958    15694.146       21.894        7.155      542.653      136.049        0.063      337.634        9.738      858.162
02/08/2014  04:06:00     -613.423     -163.466      -23.222      285.709      200.459      126.857    81629.486    40183.745    16092.819       27.070        6.895      634.830      115.250        0.033      337.613        9.702      858.315
02/08/2014  04:07:00     -259.471     -182.160       16.198      245.954      143.346       79.949    60493.327    20548.159     6391.836        9.408        4.372      317.029      106.447        0.113      337.659        9.781      858.253
02/08/2014  04:08:00     -517.819     -198.598      -36.937      166.710      178.293       85.088    27792.166    31788.384     7239.894       18.787        3.341      554.597       80.065        0.021      337.676        9.808      858.133
02/08/2014  04:09:00     -586.704     -338.674      -17.177      263.702      201.396      111.474    69538.737    40560.224    12426.429       29.085        6.126      677.438      117.988        0.030      337.712        9.868      858.213
02/08/2014  04:10:00     -557.442     -341.876      -33.378      194.279      175.691       91.229    37744.341    30867.477     8322.735       25.282        3.847      653.927       83.342        0.016      337.703        9.854      858.222
02/08/2014  04:11:00     -245.750     -203.666      -22.410      195.112      161.753       95.799    38068.586    26163.925     9177.390        8.788        3.670      319.176       91.124        0.082      337.662        9.784      858.266
02/08/2014  04:12:00     -303.148     -179.460       -7.803      178.846      140.970       81.470    31985.956    19872.661     6637.347        9.132        2.925      352.285       85.587        0.059      337.636        9.743      858.325
02/08/2014  04:13:00     -470.713     -159.205      -16.283      255.108      170.082       99.340    65079.981    28927.957     9868.402       17.551        5.194      496.908      101.073        0.041      337.660        9.781      858.310
02/08/2014  04:14:00     -374.420     -157.752      -11.561      248.214      217.235      107.086    61610.173    47191.262    11467.467       14.272        6.013      406.295      112.423        0.077      337.701        9.850      858.207
02/08/2014  04:15:00     -422.098      -52.304      -28.444      238.977      160.958       87.185    57109.842    25907.326     7601.251       13.615        4.531      425.326       94.495        0.049      337.721        9.883      858.129
02/08/2014  04:16:00     -419.641     -224.445      -29.610      220.503      204.006       95.271    48621.542    41618.589     9076.611       16.331        4.966      475.893       98.341        0.043      337.674        9.805      858.103
02/08/2014  04:17:00     -430.043     -223.414      -21.752      217.242      160.106       91.076    47194.060    25633.876     8294.767       15.821        4.056      484.614      112.820        0.054      337.693        9.837      858.155
02/08/2014  04:18:00     -408.775     -199.625      -11.002      243.852      165.973       96.530    59463.569    27547.012     9317.998       15.168        4.816      454.914       99.311        0.048      337.708        9.860      858.102
02/08/2014  04:19:00     -307.120     -145.230        6.142      281.368      187.785      100.497    79167.993    35263.021    10099.708       11.997        6.227      339.727      110.858        0.106      337.725        9.889      858.019
02/08/2014  04:20:00     -320.673     -191.751       -0.224      209.898      177.817       77.620    44057.150    31619.039     6024.915       11.063        4.085      373.631       85.019        0.052      337.774        9.973      858.074
02/08/2014  04:21:00     -429.542      -49.868      -10.217      281.727      239.437       99.932    79370.244    57330.015     9986.425       16.686        7.334      432.427      110.546        0.065      337.921       10.217      858.186
02/08/2014  04:22:00     -471.702     -373.206        4.228      280.118      225.112      117.607    78466.052    50675.263    13831.375       25.236        7.149      601.486      134.466        0.050      338.136       10.580      858.325
02/08/2014  04:23:00     -362.367     -309.447        6.666      255.048      162.979      116.145    65049.402    26562.268    13489.628       16.609        5.255      476.516      126.577        0.071      338.184       10.659      858.331
02/08/2014  04:24:00     -215.283     -199.833       -0.094      150.028      129.534       80.635    22508.382    16779.068     6502.019        6.603        2.289      293.735       85.052        0.084      338.126       10.562      858.314
02/08/2014  04:25:00     -141.431     -101.575       -2.009      155.262      109.163       61.228    24106.215    11916.565     3748.809        3.504        1.989      174.127       73.773        0.179      338.022       10.390      858.278
02/08/2014  04:26:00     -100.061     -191.260        8.878       91.700      131.442       46.973     8408.976    17276.986     2206.466        3.728        1.395      215.853       40.456        0.035      337.983       10.323      858.172
02/08/2014  04:27:00     -234.020     -113.118        5.496      145.150      130.867       62.582    21068.599    17126.209     3916.477        5.484        2.106      259.925       54.427        0.044      337.896       10.176      858.168
02/08/2014  04:28:00      -62.549      -19.873       -0.668       77.375       75.503       27.849     5986.894     5700.733      775.547        0.838        0.623       65.630       14.642        0.050      337.878       10.148      858.132
02/08/2014  04:29:00     -203.842     -153.305      -17.476      183.879      100.806       61.392    33811.540    10161.847     3768.947        5.654        2.387      255.057       73.395        0.083      337.932       10.237      858.124
02/08/2014  04:30:00     -171.559     -106.591       22.537      120.752      106.962       59.732    14580.963    11440.938     3567.885        3.544        1.479      201.976       60.524        0.090      337.906       10.194      858.157
02/08/2014  04:31:00     -102.277     -182.692      -17.290      102.046       85.078       50.861    10413.363     7238.338     2586.799        3.218        1.012      209.372       32.876        0.025      337.941       10.251      858.205
02/08/2014  04:32:00      -19.970      -19.521       43.739       56.483       65.211       49.153     3190.318     4252.525     2415.971        0.627        0.493       27.926       42.183        2.282      337.850       10.102      858.011
02/08/2014  04:33:00      -81.191      -60.224       -0.691       83.832       54.975       36.490     7027.773     3022.208     1331.509        1.080        0.569      101.089       32.564        0.104      337.913       10.208      858.056
02/08/2014  04:34:00      -39.145      -48.264       11.936       69.987       42.755       32.241     4898.250     1827.969     1039.497        0.588        0.388       62.143       23.652        0.145      337.900       10.185      858.179
02/08/2014  04:35:00      -86.664      -47.755        5.598       68.425       56.156       26.866     4681.922     3153.485      721.804        0.919        0.428       98.950       21.517        0.047      337.865       10.127      858.096
02/08/2014  04:36:00     -145.828      -88.455      -17.470       72.310       84.643       47.402     5228.692     7164.380     2246.983        2.201        0.732      170.558       48.545        0.081      337.980       10.320      858.035
02/08/2014  04:37:00     -156.806       15.906       -2.810       57.554       78.905       35.034     3312.493     6226.041     1227.377        1.781        0.538      157.611       31.172        0.039      337.896       10.178      858.087
02/08/2014  04:38:00     -146.681        0.918        0.296       95.775       62.452       37.109     9172.929     3900.247     1377.042        1.798        0.723      146.684       45.473        0.096      337.819       10.049      858.176
02/08/2014  04:39:00      -92.837      -40.809        8.108       55.999       37.577       23.884     3135.936     1412.002      570.469        0.773        0.256      101.410       20.956        0.043      337.798       10.016      858.243
02/08/2014  04:40:00     -200.010     -139.564        2.031      164.546       94.906       64.644    27075.360     9007.129     4178.835        4.987        2.013      243.889       62.659        0.066      337.854       10.107      858.283
02/08/2014  04:41:00      -43.031      -66.748      -14.472       62.417      125.255       35.634     3895.824    15688.722     1269.786        1.368        1.043       79.416       35.877        0.204      337.959       10.283      858.325
02/08/2014  04:42:00      -21.777      -10.341        5.665       46.356       52.540       36.762     2148.908     2760.495     1351.435        0.344        0.313       24.107       36.983        2.353      337.942       10.257      858.313
02/08/2014  04:43:00      -19.491      -21.367       13.162       57.436       74.432       41.524     3298.945     5540.055     1724.273        0.578        0.528       28.921       35.029        1.467      337.882       10.155      858.280
02/08/2014  04:44:00     -201.228       13.310      -19.966      127.165       82.674       48.775    16170.837     6835.038     2379.035        3.322        1.269      201.668       54.289        0.072      337.847       10.096      858.241
02/08/2014  04:45:00      -97.280        2.858       -1.903       79.045       72.514       36.505     6248.062     5258.303     1332.632        1.115        0.642       97.322       41.785        0.184      337.793       10.006      858.284
02/08/2014  04:46:00     -243.988      -63.552      -11.589      124.347       81.952       55.699    15462.110     6716.208     3102.343        4.449        1.264      252.129       46.036        0.033      337.806       10.025      858.287
02/08/2014  04:47:00     -151.150      -67.374       12.441      129.660       88.190       64.722    16811.660     7777.528     4188.948        2.815        1.439      165.486       75.154        0.206      337.859       10.115      858.299
02/08/2014  04:48:00      -53.968      -20.521       21.064      128.052       90.114       49.174    16397.204     8120.597     2418.126        1.535        1.347       57.738       64.759        1.258      337.846       10.094      858.311
02/08/2014  04:49:00     -307.185       26.275      -18.111      105.553      100.139       46.589    11141.462    10027.898     2170.524        5.936        1.167      308.306       41.867        0.018      337.836       10.076      858.304
02/08/2014  04:50:00     -198.630     -108.382        4.491      133.168      119.973       54.242    17733.637    14393.635     2942.153        4.314        1.753      226.275       70.401        0.097      337.848       10.098      858.414
02/08/2014  04:51:00     -196.367      -28.939      -20.994      120.303       52.889       51.931    14472.711     2797.259     2696.877        2.990        0.998      198.488       59.159        0.089      337.826       10.060      858.514
02/08/2014  04:52:00     -235.533      -28.166      -14.731      130.785      138.169       56.790    17104.664    19090.593     3225.072        4.795        1.971      237.212       53.665        0.051      337.824       10.057      858.425
02/08/2014  04:53:00     -267.205      -49.351      -12.469      141.569      104.228       64.114    20041.790    10863.477     4110.559        5.450        1.751      271.724       70.437        0.067      337.811       10.033      858.327
02/08/2014  04:54:00     -388.457      -58.234      -10.413      212.682      104.023       82.195    45233.475    10820.887     6755.999       10.859        3.141      392.798      104.101        0.070      337.780        9.982      858.364
02/08/2014  04:55:00     -307.245      -73.203      -21.754      164.479       89.961       61.833    27053.371     8092.915     3823.310        6.959        1.948      315.846       77.784        0.061      337.729        9.897      858.444
02/08/2014  04:56:00     -132.283      -96.528       25.907      171.797      120.636       70.702    29514.055    14553.097     4998.837        3.827        2.453      163.757       90.050        0.302      337.707        9.862      858.452
02/08/2014  04:57:00     -321.595      -94.479      -18.954      151.748      117.236       64.715    23027.370    13744.357     4188.026        7.683        2.048      335.186       71.744        0.046      337.697        9.843      858.473
02/08/2014  04:58:00     -190.229      -27.862        2.215      115.830      113.982       52.490    13416.618    12992.004     2755.210        3.306        1.458      192.258       53.312        0.077      337.661        9.785      858.426
02/08/2014  04:59:00      -97.614     -103.036       19.544      110.921      104.136       53.832    12303.358    10844.277     2897.928        2.328        1.302      141.932       59.712        0.177      337.686        9.827      858.409
02/08/2014  05:00:00      -97.828      -91.501        6.255       89.749       88.492       46.097     8054.917     7830.852     2124.958        1.799        0.901      133.951       44.839        0.112      337.656        9.777      858.453
02/08/2014  05:01:00     -167.119      -60.010      -16.384      103.621      115.166       52.905    10737.278    13263.240     2798.959        2.929        1.340      177.567       42.297        0.057      337.650        9.765      858.517
02/08/2014  05:02:00      -80.932     -107.161       15.463       99.509       84.295       45.980     9902.079     7105.604     2114.142        1.869        0.956      134.289       48.979        0.133      337.640        9.750      858.564
02/08/2014  05:03:00     -252.925     -122.882      -12.835      140.377      107.810       60.115    19705.654    11622.989     3613.816        5.708        1.747      281.196       60.314        0.046      337.695        9.841      858.564
02/08/2014  05:04:00     -265.091     -136.546       -9.729      124.384      111.139       63.105    15471.311    12351.886     3982.215        6.040        1.590      298.191       65.899        0.049      337.688        9.828      858.513
02/08/2014  05:05:00     -200.828      -54.280      -15.405       85.678       74.817       39.340     7340.760     5597.562     1547.673        2.900        0.724      208.034       37.208        0.032      337.639        9.746      858.476
02/08/2014  05:06:00      -57.166      -17.549        6.605       74.063       55.461       36.784     5485.298     3075.948     1353.052        0.676        0.496       59.799       37.268        0.388      337.568        9.629      858.419
02/08/2014  05:07:00      -40.717     -171.802       -5.861       61.157       57.843       30.799     3740.128     3345.819      948.559        1.962        0.402      176.561       30.669        0.030      337.663        9.788      858.411
02/08/2014  05:08:00      -70.778      -66.119       10.726       76.998       54.186       33.423     5928.705     2936.145     1117.078        0.974        0.499       96.857       36.285        0.140      337.637        9.746      858.443
02/08/2014  05:09:00      -37.446      -56.818       10.017       41.219       98.390       25.013     1699.030     9680.635      625.657        0.837        0.600       68.048       39.095        0.330      337.716        9.879      858.398
02/08/2014  05:10:00       -4.948       49.536       33.241       21.326       22.316       28.417      454.790      498.008      807.502        0.267        0.088       49.782       17.183        0.119      337.601        9.686      858.374
02/08/2014  05:11:00      -19.770      -60.526       -4.618       27.984       50.545       23.194      783.105     2554.766      537.978        0.397        0.194       63.673       23.986        0.142      337.717        9.881      858.475
02/08/2014  05:12:00      -75.148      -54.801        8.271       54.985       45.360       33.090     3023.335     2057.513     1094.922        0.745        0.309       93.007       30.970        0.111      337.678        9.814      858.619
02/08/2014  05:13:00      -31.150      -37.236       17.048       49.737       34.757       24.923     2473.792     1208.066      621.131        0.347        0.215       48.547       24.071        0.246      337.647        9.762      858.677
02/08/2014  05:14:00      -49.655      -20.817        2.904       37.786       30.369       19.216     1427.797      922.263      369.256        0.281        0.136       53.842       19.455        0.131      337.670        9.801      858.556
02/08/2014  05:15:00       13.657      -23.622        3.816       13.316       20.696       10.222      177.312      428.320      104.485        0.073        0.036       27.286       10.872        0.159      337.712        9.870      858.431
02/08/2014  05:16:00      -56.867      -52.313       -8.565       28.644       32.617       14.388      820.501     1063.855      207.027        0.407        0.105       77.269       15.021        0.038      337.753        9.941      858.443
02/08/2014  05:17:00     -100.687      -50.552       13.117       81.788       70.292       40.352     6689.295     4941.008     1628.276        1.306        0.663      112.665       45.670        0.164      337.678        9.814      858.485
02/08/2014  05:18:00     -183.052      -89.687       -1.330      102.937       86.300       58.091    10596.118     7447.667     3374.530        3.148        1.071      203.843       61.425        0.091      337.644        9.757      858.501
02/08/2014  05:19:00      -63.473      -68.429        6.253       90.069       80.147       43.476     8112.497     6423.542     1890.163        1.259        0.821       93.335       39.164        0.176      337.601        9.685      858.513
02/08/2014  05:20:00      -74.971       -4.449        0.267       67.099       43.292       27.279     4502.289     1874.233      744.127        0.638        0.356       75.103       31.273        0.173      337.583        9.657      858.503
02/08/2014  05:21:00      -96.954     -102.834        0.294       76.910       39.865       30.126     5915.131     1589.188      907.553        1.419        0.421      141.333       31.227        0.049      337.654        9.775      858.532
02/08/2014  05:22:00     -127.003      -68.138       -2.526       46.951       34.037       18.741     2204.379     1158.520      351.242        1.225        0.186      144.127       18.681        0.017      337.684        9.826      858.528
02/08/2014  05:23:00      -88.218       -1.219       -6.905       43.531       37.144       22.853     1894.949     1379.696      522.281        0.581        0.190       88.226       19.110        0.047      337.631        9.737      858.481
02/08/2014  05:24:00     -150.369      -39.612       -8.370       67.149       55.044       40.840     4508.963     3029.894     1667.910        1.673        0.460      155.499       35.209        0.051      337.618        9.712      858.565
02/08/2014  05:25:00     -142.583      -82.392        3.506       71.811       54.445       34.400     5156.783     2964.267     1183.375        1.822        0.465      164.676       35.249        0.046      337.603        9.687      858.680
02/08/2014  05:26:00      -27.225      -14.176       11.556       50.510       42.219       19.401     2551.280     1782.485      376.385        0.289        0.236       30.695       24.266        0.625      337.579        9.648      858.592
02/08/2014  05:27:00       52.659       70.735       12.776       59.707       87.785       41.222     3564.952     7706.130     1699.263        1.045        0.649       88.184       39.138        0.197      337.552        9.602      858.311
02/08/2014  05:28:00       14.265      112.222       -8.197       44.870       63.884       40.566     2013.288     4081.126     1645.638        1.030        0.387      113.125       32.170        0.081      337.535        9.574      858.080
02/08/2014  05:29:00      -81.608       29.487      -18.860       55.782       61.161       27.481     3111.626     3740.634      755.203        0.774        0.380       86.772       23.798        0.075      337.502        9.518      858.130
02/08/2014  05:30:00     -175.023      -76.104       -8.812       55.563       57.278       23.011     3087.290     3280.798      529.494        2.170        0.345      190.853       16.927        0.008      337.423        9.385      858.292
02/08/2014  05:31:00     -132.538     -121.204       -1.911      100.606       72.722       44.406    10121.558     5288.552     1971.851        2.482        0.869      179.601       44.206        0.061      337.478        9.477      858.453
02/08/2014  05:32:00     -142.718     -142.110        4.631       82.309       63.454       48.301     6774.689     4026.456     2332.992        2.686        0.657      201.404       38.848        0.037      337.543        9.585      858.516
02/08/2014  05:33:00      -54.973      -58.316       -1.646       66.440       41.228       31.841     4414.296     1699.774     1013.840        0.678        0.356       80.142       30.314        0.143      337.573        9.638      858.474
02/08/2014  05:34:00      -14.621      -88.325        9.710       36.569       35.013       29.909     1337.271     1225.942      894.561        0.578        0.173       89.527       23.071        0.066      337.602        9.687      858.439
02/08/2014  05:35:00      -40.392       -1.305       16.826       45.321       26.328       18.666     2054.030      693.186      348.420        0.251        0.155       40.413       21.772        0.290      337.551        9.603      858.392
02/08/2014  05:36:00      -58.025      -54.928        4.708       52.557       39.628       35.327     2762.203     1570.409     1247.994        0.599        0.279       79.900       28.453        0.127      337.608        9.698      858.582
02/08/2014  05:37:00      -84.104     -168.196      -17.581       79.208       73.639       42.753     6273.863     5422.761     1827.786        2.460        0.676      188.052       22.934        0.015      337.562        9.617      858.774
02/08/2014  05:38:00      -99.063     -123.558        0.206       74.132       60.538       39.254     5495.611     3664.878     1540.858        1.789        0.535      158.367       30.345        0.037      337.608        9.696      858.865
02/08/2014  05:39:00        0.101      -22.286       18.682       51.589       67.233       44.089     2661.391     4520.327     1943.876        0.498        0.456       22.286       31.363        1.980      337.513        9.538      858.779
02/08/2014  05:40:00       27.343      119.834      148.978       56.811       97.944       62.604     3227.453     9593.061     3919.234        2.702        0.837      122.914       67.935        0.305      337.457        9.441      858.448
02/08/2014  05:41:00       30.876       88.565       87.503       43.098       80.047       57.130     1857.464     6407.580     3263.836        1.399        0.576       93.793       58.375        0.387      337.501        9.517      858.281
02/08/2014  05:42:00       49.785      -51.826       16.068       42.409       40.515       23.674     1798.527     1641.468      560.444        0.471        0.200       71.864       21.391        0.089      337.609        9.700      858.507
02/08/2014  05:43:00       64.075      -98.530       -3.555       67.820       97.036       57.066     4599.497     9415.891     3256.523        1.555        0.864      117.532       59.016        0.252      337.638        9.748      858.690
02/08/2014  05:44:00       42.720      -38.401       35.079       73.157      114.790       52.155     5351.878    13176.666     2720.143        1.289        1.062       57.442       70.897        1.523      337.686        9.828      858.813
02/08/2014  05:45:00       -4.304       23.599       27.862       40.253       26.630       21.189     1620.301      709.141      448.994        0.206        0.139       23.989       16.018        0.446      337.659        9.782      858.886
02/08/2014  05:46:00      -79.323      101.432      -15.225       38.209       47.065       25.141     1459.901     2215.102      632.049        1.056        0.215      128.766       29.365        0.052      337.643        9.756      858.856
02/08/2014  05:47:00     -130.747      158.936      -31.149       47.719       46.235       32.519     2277.108     2137.683     1057.490        2.440        0.274      205.804       30.694        0.022      337.482        9.483      858.785
02/08/2014  05:48:00      -51.806      181.616      -21.981       44.715       63.737       23.673     1999.402     4062.396      560.429        2.139        0.331      188.861       29.209        0.024      337.512        9.534      858.738
02/08/2014  05:49:00       70.393      168.494      -17.572       51.356       69.654       42.298     2637.418     4851.640     1789.096        2.146        0.464      182.607       39.336        0.046      337.586        9.659      858.698
02/08/2014  05:50:00      153.182       91.314       14.719       56.731       46.778       50.280     3218.428     2188.146     2528.086        1.998        0.397      178.334       37.748        0.045      337.469        9.463      858.537
02/08/2014  05:51:00       17.895      104.334       -6.752       76.270       73.081       36.632     5817.083     5340.840     1341.872        1.187        0.625      105.858       40.923        0.149      337.428        9.396      858.502
02/08/2014  05:52:00     -213.920       48.598      -31.305       54.383       68.923       29.336     2957.504     4750.428      860.577        2.883        0.428      219.371       18.610        0.007      337.444        9.417      858.710
02/08/2014  05:53:00     -279.447      -49.080      -19.826       80.943       65.251       40.365     6551.734     4257.742     1629.359        4.666        0.622      283.724       40.952        0.021      337.542        9.583      858.845
02/08/2014  05:54:00     -124.096        2.957       -5.737      106.300       63.485       36.902    11299.592     4030.313     1361.755        1.606        0.835      124.132       46.349        0.139      337.546        9.590      858.833
02/08/2014  05:55:00     -125.826      -89.080        4.727      152.580      137.153       70.125    23280.741    18810.874     4917.476        3.539        2.350      154.167       65.878        0.183      337.541        9.580      858.843
02/08/2014  05:56:00     -187.156     -193.537       -4.902      123.492       99.625       66.368    15250.288     9925.055     4404.726        5.104        1.479      269.228       77.445        0.083      337.610        9.696      858.912
02/08/2014  05:57:00       -2.208     -109.462        7.514      130.938       73.600       55.394    17144.807     5416.895     3068.549        1.883        1.282      109.484       48.833        0.199      337.668        9.797      858.857
02/08/2014  05:58:00       30.918       38.408      113.350       72.076      131.270       94.969     5195.004    17231.743     9019.182        2.336        1.572       49.307      103.474        4.404      337.540        9.581      858.709
02/08/2014  05:59:00      118.130      -94.797       11.253       76.985       81.585       41.814     5926.756     6656.158     1748.381        1.870        0.717      151.463       47.392        0.098      337.594        9.671      858.697
02/08/2014  06:00:00     -301.986     -129.914      -43.840      175.731      162.984       53.404    30881.426    26563.647     2851.967        8.513        3.015      328.744       67.006        0.042      338.034       10.409      858.820
02/08/2014  06:01:00      -68.048       78.531      -21.792      125.077      133.802       51.889    15644.149    17902.938     2692.509        2.375        1.812      103.912       41.390        0.159      338.400       11.024      858.719
02/08/2014  06:02:00      -73.312      -47.611       17.148       96.997       78.111       47.272     9408.397     6101.376     2234.645        1.284        0.887       87.415       56.796        0.422      338.283       10.829      858.891
02/08/2014  06:03:00     -345.544       79.731      -38.955      157.149      130.235       55.057    24695.827    16961.275     3031.277        8.597        2.234      354.624       42.611        0.014      337.679        9.812      859.041
02/08/2014  06:04:00     -362.452     -136.441      -26.349      148.249      141.141       67.442    21977.638    19920.675     4548.373        9.855        2.322      387.282       72.606        0.035      337.387        9.323      859.124
02/08/2014  06:05:00     -463.183       28.151      -42.725      159.877      129.625       67.826    25560.584    16802.520     4600.300       13.205        2.348      464.038       68.942        0.022      337.308        9.193      859.146
02/08/2014  06:06:00     -296.185      -44.541      -10.440      149.843       94.919       62.666    22453.059     9009.593     3926.991        6.260        1.769      299.515       66.301        0.049      337.242        9.082      859.137
02/08/2014  06:07:00     -429.444      -45.909      -30.044      180.155      107.153       74.186    32455.703    11481.832     5503.615       11.843        2.472      431.891       84.677        0.038      337.293        9.167      859.070
02/08/2014  06:08:00     -320.012     -113.349      -17.002      119.290      104.140       63.256    14230.183    10845.036     4001.375        7.230        1.454      339.493       66.586        0.038      337.210        9.029      859.058
02/08/2014  06:09:00     -308.848      -93.485       -3.270      145.817      121.435       71.895    21262.461    14746.340     5168.879        7.265        2.059      322.686       58.645        0.033      337.167        8.957      859.109
02/08/2014  06:10:00     -389.919     -151.193      -30.243      134.696      134.226       61.772    18142.996    18016.678     3815.735       10.789        1.999      418.206       57.189        0.019      337.165        8.952      859.144
02/08/2014  06:11:00     -366.451     -150.120      -16.416      147.562      135.902       78.736    21774.555    18469.418     6199.406       10.176        2.322      396.008       69.056        0.030      337.119        8.874      859.122
02/08/2014  06:12:00     -496.343      -79.594      -31.759      151.863      153.822       68.314    23062.452    23661.120     4666.832       15.254        2.570      502.685       53.023        0.011      337.087        8.820      859.091
02/08/2014  06:13:00     -521.349      -43.126      -37.285      168.398      164.102       80.393    28357.840    26929.585     6462.972       16.839        3.088      523.129       81.113        0.024      337.093        8.831      859.076
02/08/2014  06:14:00     -352.712      -64.553      -10.013      180.979      146.577       87.812    32753.577    21484.711     7710.876        9.530        3.097      358.571       96.658        0.073      337.106        8.853      859.053
02/08/2014  06:15:00     -512.020      -73.699      -32.703      168.987      147.894       85.444    28556.536    21872.566     7300.745       16.319        2.886      517.297       89.792        0.030      337.123        8.881      859.097
02/08/2014  06:16:00     -352.099      -85.414       -5.362      188.165      140.487       84.084    35405.974    19736.704     7070.183        9.674        3.111      362.311       94.703        0.068      337.116        8.869      859.128
02/08/2014  06:17:00     -310.396     -127.595       -8.453      133.164      153.969       70.735    17732.581    23706.531     5003.420        7.956        2.322      335.599       59.173        0.031      337.132        8.897      859.147
02/08/2014  06:18:00     -445.723     -137.474       -0.724      179.001      161.708       89.712    32041.533    26149.429     8048.243       14.189        3.312      466.442       94.127        0.041      337.160        8.943      859.137
02/08/2014  06:19:00     -522.767       -0.974      -27.801      258.581      168.229       97.272    66864.388    28300.923     9461.890       18.932        5.231      522.768      113.326        0.047      337.229        9.059      859.153
02/08/2014  06:20:00     -293.855       11.583       -7.447      177.040      126.778       85.876    31343.335    16072.787     7374.614        7.065        2.740      294.083       97.343        0.110      337.173        8.966      859.164
02/08/2014  06:21:00     -454.382      -64.372      -29.719      133.914      121.227       63.411    17932.898    14695.954     4020.982       12.406        1.832      458.919       62.839        0.019      337.189        8.992      859.171
02/08/2014  06:22:00     -278.537      -73.542      -13.914      117.839      125.190       65.472    13885.977    15672.489     4286.523        5.851        1.692      288.082       49.196        0.029      337.158        8.940      859.208
02/08/2014  06:23:00     -408.409      -21.472      -24.612      202.518      106.659       73.538    41013.355    11376.132     5407.853       11.282        2.890      408.973       94.809        0.054      337.184        8.982      859.151
02/08/2014  06:24:00     -384.446      -12.695      -29.346      138.145      127.163       67.353    19084.076    16170.382     4536.419        9.430        1.990      384.655       59.413        0.024      337.172        8.966      859.150
02/08/2014  06:25:00     -439.993      -71.667      -35.265      169.802      132.284       74.360    28832.751    17499.078     5529.346       12.591        2.593      445.791       75.236        0.028      337.174        8.967      859.153
02/08/2014  06:26:00     -491.680      -27.731      -64.483      182.969      181.711       81.348    33477.611    33018.785     6617.563       15.988        3.656      492.462       65.506        0.018      337.200        9.010      859.101
02/08/2014  06:27:00     -457.238      -92.856      -26.982      206.197      168.090       97.626    42517.072    28254.323     9530.895       14.934        4.015      466.571      108.954        0.055      337.182        8.981      859.069
02/08/2014  06:28:00     -526.216     -122.443      -31.056      149.366      175.093       79.421    22310.218    30657.559     6307.616       17.606        2.964      540.273       74.629        0.019      337.150        8.926      859.117
02/08/2014  06:29:00     -422.806     -101.612      -29.057      151.410      137.552       78.117    22925.020    18920.670     6102.335       11.893        2.397      434.845       78.853        0.033      337.153        8.932      859.178
02/08/2014  06:30:00     -344.357      -73.389       -6.100      231.584      134.154       90.777    53631.184    17997.353     8240.472       10.192        3.993      352.091      103.517        0.086      337.145        8.919      859.142
02/08/2014  06:31:00     -354.416      -47.631       -9.480      211.118      165.675       83.609    44570.717    27448.251     6990.411       10.347        3.950      357.603       86.878        0.059      337.139        8.909      859.136
02/08/2014  06:32:00     -459.771      -72.544      -26.017      233.531      182.214       81.404    54536.960    33202.004     6626.618       15.583        4.718      465.459      104.158        0.050      337.111        8.861      859.111
02/08/2014  06:33:00     -395.241      -38.640      -18.828      175.535      178.472       92.643    30812.636    31852.278     8582.772       11.464        3.562      397.126       84.172        0.045      337.128        8.890      859.113
02/08/2014  06:34:00     -304.033      -63.646       -7.208      176.516      105.382       82.732    31157.882    11105.316     6844.647        7.281        2.455      310.624       89.453        0.083      337.103        8.848      859.133
02/08/2014  06:35:00     -413.763      -89.109      -14.985      281.131      149.782       82.999    79034.446    22434.743     6888.808       14.384        5.418      423.250      104.440        0.061      337.095        8.834      859.124
02/08/2014  06:36:00     -513.694     -180.294      -19.184      288.175      168.827       81.515    83044.780    28502.601     6644.676       20.745        5.910      544.415      103.700        0.036      337.095        8.835      859.027
02/08/2014  06:37:00     -436.793       20.074      -19.249      202.582      137.009       82.279    41039.558    18771.393     6769.911       12.906        3.329      437.254      103.004        0.055      337.074        8.799      859.065
02/08/2014  06:38:00     -445.242      -22.807      -29.047      174.403      108.215       72.596    30416.466    11710.533     5270.205       12.349        2.370      445.826       78.417        0.031      337.077        8.804      859.057
02/08/2014  06:39:00     -395.708        1.572      -14.325      206.722      167.823       84.370    42733.913    28164.527     7118.289       11.739        3.901      395.711       76.758        0.038      337.045        8.749      859.064
02/08/2014  06:40:00     -436.299       37.423      -35.657      197.414      132.122       76.928    38972.457    17456.252     5917.857       12.768        3.117      437.901       81.525        0.035      337.043        8.747      859.063
02/08/2014  06:41:00     -538.285      -19.400      -42.905      260.039      170.299       87.152    67620.146    29001.918     7595.439       19.807        5.211      538.634      111.690        0.043      337.031        8.727      859.054
02/08/2014  06:42:00     -385.285      -34.363      -16.332      172.230      129.110       69.963    29663.063    16669.503     4894.837       10.055        2.561      386.814       78.082        0.041      336.994        8.666      859.044
02/08/2014  06:43:00     -526.097      -96.003      -20.817      244.567      184.202      106.769    59813.039    33930.308    11399.649       19.576        5.257      534.785      124.890        0.055      336.975        8.635      859.033
02/08/2014  06:44:00     -437.348      -90.878       -9.674      285.690      202.447      109.986    81618.599    40984.608    12096.908       16.714        6.735      446.690      124.691        0.078      336.986        8.653      859.058
02/08/2014  06:45:00     -400.845      -98.418      -19.267      176.645      166.775       78.248    31203.290    27813.963     6122.782       11.792        3.257      412.751       75.799        0.034      336.978        8.638      859.083
02/08/2014  06:46:00     -383.477     -109.911      -17.401      225.015      158.587       84.255    50631.774    25149.783     7098.916       12.114        4.144      398.918       91.499        0.053      336.959        8.606      859.149
02/08/2014  06:47:00     -456.234     -111.507      -26.072      229.201      159.527       83.399    52533.011    25448.771     6955.402       15.308        4.247      469.663       92.370        0.039      336.971        8.627      859.171
02/08/2014  06:48:00     -207.344      -20.790       17.375      209.718      116.663       87.741    43981.569    13610.359     7698.424        5.449        3.265      208.384      107.921        0.268      336.939        8.574      859.133
02/08/2014  06:49:00     -429.474     -114.387      -29.745      250.493      118.569       84.417    62746.856    14058.668     7126.248       14.116        4.197      444.446       98.069        0.049      336.919        8.538      859.169
02/08/2014  06:50:00     -333.622     -116.778      -15.380      147.497      108.690       56.669    21755.274    11813.457     3211.412        8.097        1.839      353.469       59.066        0.028      336.895        8.500      859.242
02/08/2014  06:51:00     -258.195     -171.692       -7.089      150.216      114.807       72.628    22564.811    13180.561     5274.762        6.860        2.051      310.069       79.007        0.065      336.891        8.494      859.285
02/08/2014  06:52:00     -365.464     -113.741      -16.953      268.260      167.828       81.943    71963.315    28166.298     6714.605       12.679        5.342      382.754      113.119        0.087      336.897        8.503      859.312
02/08/2014  06:53:00     -416.957     -105.029      -13.881      212.609      198.450      102.509    45202.419    39382.541    10508.105       14.007        4.755      429.982      114.965        0.071      336.870        8.458      859.305
02/08/2014  06:54:00     -413.931      -66.375      -39.938      237.390      113.406       81.743    56353.866    12860.853     6681.997       12.660        3.795      419.219      114.617        0.075      336.812        8.361      859.323
02/08/2014  06:55:00     -372.795      -84.901      -16.660      125.083      131.701       64.233    15645.688    17345.136     4125.869        9.178        1.856      382.341       61.836        0.026      336.811        8.358      859.364
02/08/2014  06:56:00     -317.141      -73.931       -9.904      174.544      125.267       68.241    30465.596    15691.742     4656.831        7.847        2.541      325.644       81.178        0.062      336.803        8.347      859.415
02/08/2014  06:57:00     -293.859        5.462      -18.013      147.423      119.013       67.505    21733.415    14164.196     4556.865        6.357        2.023      293.910       67.499        0.053      336.790        8.325      859.411
02/08/2014  06:58:00     -297.838      -22.110      -16.980      142.034      125.182       66.036    20173.653    15670.518     4360.778        6.484        2.010      298.658       68.560        0.053      336.778        8.306      859.444
02/08/2014  06:59:00     -210.027      -48.689       -0.724      151.675      122.587       62.207    23005.370    15027.524     3869.750        4.418        2.095      215.597       72.675        0.114      336.776        8.301      859.488
02/08/2014  07:00:00     -332.156      -49.064      -20.315      218.966      122.117       71.084    47946.232    14912.545     5052.980        9.052        3.396      335.760       96.412        0.082      336.796        8.336      859.498
02/08/2014  07:01:00     -282.771      -58.005      -11.061      181.581      109.133       59.076    32971.723    11910.112     3489.934        6.590        2.419      288.659       69.794        0.058      336.768        8.290      859.533
02/08/2014  07:02:00     -299.166      -31.309      -22.517      192.727      103.654       63.872    37143.739    10744.232     4079.629        7.147        2.598      300.800       70.777        0.055      336.768        8.290      859.568
02/08/2014  07:03:00     -456.368      -17.418      -39.042      200.796      164.709       72.835    40319.187    27128.977     5304.997       14.141        3.638      456.700       72.855        0.025      336.787        8.320      859.574
02/08/2014  07:04:00     -346.240      -33.097      -18.623      124.045      103.938       66.156    15387.241    10803.059     4376.567        7.594        1.528      347.818       68.580        0.039      336.757        8.272      859.589
02/08/2014  07:05:00     -302.898      -66.238      -10.560      158.495      146.162       67.303    25120.547    21363.275     4529.704        7.362        2.551      310.056       69.608        0.050      336.743        8.247      859.620
02/08/2014  07:06:00     -267.079       19.882      -11.509      234.174      162.664       94.559    54837.555    26459.494     8941.456        8.103        4.512      267.818      121.266        0.205      336.764        8.281      859.588
02/08/2014  07:07:00     -239.076      -38.440      -19.569      137.821      104.883       56.486    18994.717    11000.458     3190.619        4.610        1.659      242.146       57.469        0.056      336.758        8.271      859.606
02/08/2014  07:08:00     -437.212     -111.962      -17.145      190.135      152.711       73.667    36151.281    23320.727     5426.895       13.443        3.245      451.320       80.482        0.032      336.788        8.321      859.606
02/08/2014  07:09:00     -265.629      -20.608      -10.097      132.378      125.645       64.241    17523.837    15786.572     4126.844        5.425        1.872      266.427       64.734        0.059      336.785        8.316      859.599
02/08/2014  07:10:00     -368.994      -37.235      -15.541      139.767      132.327       65.266    19534.872    17510.458     4259.706        8.954        2.065      370.868       55.606        0.022      336.829        8.387      859.611
02/08/2014  07:11:00     -171.269     -128.396        6.160      109.531      110.403       68.481    11997.028    12188.861     4689.604        3.736        1.444      214.053       67.104        0.098      336.851        8.426      859.692
02/08/2014  07:12:00     -196.669     -208.019       -1.163      179.837      106.736       69.677    32341.309    11392.486     4854.865        6.526        2.429      286.270       76.910        0.072      336.865        8.450      859.753
02/08/2014  07:13:00     -136.594     -196.551        7.776      107.022      108.745       61.060    11453.737    11825.491     3728.346        4.217        1.350      239.354       64.992        0.074      336.876        8.467      859.751
02/08/2014  07:14:00     -271.834     -169.531      -18.287      133.314       82.223       49.991    17772.527     6760.656     2499.056        6.499        1.352      320.366       53.231        0.028      336.906        8.519      859.764
02/08/2014  07:15:00     -256.610     -146.441       -5.535      107.264       83.637       55.710    11505.544     6995.078     3103.573        5.446        1.080      295.455       50.183        0.029      336.896        8.502      859.807
02/08/2014  07:16:00     -191.958     -111.272       10.048      132.816       84.181       60.767    17640.020     7086.492     3692.577        3.887        1.421      221.877       61.551        0.077      336.917        8.536      859.762
02/08/2014  07:17:00     -230.861     -127.437       -4.913      128.134       95.072       62.038    16418.239     9038.743     3848.729        4.943        1.465      263.699       72.767        0.076      336.886        8.485      859.756
02/08/2014  07:18:00     -246.033     -151.537        3.042      133.682      118.797       57.113    17870.993    14112.673     3261.889        5.937        1.762      288.956       67.228        0.054      336.864        8.448      859.786
02/08/2014  07:19:00     -345.094     -206.640      -12.913      134.888      125.120       69.774    18194.892    15655.019     4868.383       10.033        1.936      402.231       72.238        0.032      336.902        8.512      859.799
02/08/2014  07:20:00     -225.521     -188.675        8.533      156.185      112.334       73.236    24393.635    12618.894     5363.481        6.444        2.119      294.037       86.703        0.087      336.916        8.535      859.785
02/08/2014  07:21:00     -157.230     -181.929        2.088      132.446      117.139       65.417    17541.828    13721.469     4279.349        4.668        1.777      240.456       67.431        0.079      336.920        8.541      859.779
02/08/2014  07:22:00     -170.273     -171.111       -3.563       93.431       92.687       55.961     8729.426     8590.953     3131.614        3.936        1.023      241.396       49.713        0.042      336.929        8.556      859.779
02/08/2014  07:23:00     -300.679     -232.350      -24.962      128.405      139.228       62.122    16487.887    19384.434     3859.199        9.237        1.987      379.993       54.850        0.021      336.961        8.608      859.804
02/08/2014  07:24:00     -295.081     -216.033        0.298      136.681      127.641       73.546    18681.750    16292.205     5408.956        8.705        2.019      365.709       73.411        0.040      337.014        8.698      859.827
02/08/2014  07:25:00     -182.617     -200.778       -6.356      125.855      111.980       59.788    15839.404    12539.429     3574.572        5.282        1.598      271.405       57.572        0.045      336.984        8.648      859.898
02/08/2014  07:26:00     -154.083     -171.696       -8.104       74.475       91.177       47.021     5546.460     8313.304     2211.018        3.468        0.804      230.697       39.671        0.030      336.877        8.469      859.877
02/08/2014  07:27:00     -125.519     -164.943      -12.594       69.463       55.862       36.503     4825.052     3120.516     1332.472        2.620        0.464      207.271       34.742        0.028      336.864        8.450      859.797
02/08/2014  07:28:00     -157.409     -175.124       -4.748       97.599       91.705       43.807     9525.624     8409.880     1919.042        3.766        0.993      235.469       45.122        0.037      336.868        8.456      859.843
02/08/2014  07:29:00     -185.540      -93.551       -7.003       78.119       61.882       39.832     6102.505     3829.368     1586.570        2.737        0.576      207.790       35.453        0.029      336.845        8.416      859.932
02/08/2014  07:30:00      -99.809     -121.538       -5.427       57.002       71.539       29.908     3249.187     5117.817      894.488        1.701        0.463      157.268       28.741        0.033      336.875        8.468      859.909
02/08/2014  07:31:00     -155.610     -133.681       -8.909       74.193       64.406       45.261     5504.670     4148.087     2048.551        2.693        0.585      205.146       37.019        0.033      336.966        8.618      859.878
02/08/2014  07:32:00     -128.134     -133.703        2.144       78.139       92.971       46.246     6105.717     8643.514     2138.673        2.559        0.844      185.189       44.105        0.057      336.975        8.633      859.860
02/08/2014  07:33:00     -245.463      -78.922      -19.943      119.680      119.045       45.693    14323.296    14171.622     2087.894        4.872        1.529      257.839       56.194        0.047      337.215        9.036      859.813
02/08/2014  07:34:00     -135.124      -41.800        2.175      117.792       72.248       43.631    13874.883     5219.826     1903.621        2.050        1.050      141.441       54.155        0.147      337.165        8.954      859.777
02/08/2014  07:35:00     -120.889      -80.848        5.582       80.305       75.361       37.678     6448.864     5679.223     1419.640        1.736        0.677      145.432       34.481        0.056      337.170        8.963      859.823
02/08/2014  07:36:00     -190.563     -139.984       -3.814      104.405       99.726       47.754    10900.334     9945.276     2280.422        3.952        1.156      236.453       48.764        0.043      337.139        8.908      859.858
02/08/2014  07:37:00     -175.748     -160.457       -1.460      120.406       95.837       54.448    14497.638     9184.751     2964.555        4.164        1.332      237.978       51.283        0.046      337.159        8.943      859.818
02/08/2014  07:38:00      -84.007     -127.536       17.180       85.730       88.244       52.603     7349.562     7787.043     2767.030        2.076        0.895      152.717       50.190        0.108      337.167        8.957      859.807
02/08/2014  07:39:00     -189.979     -105.767        5.385       95.542       84.815       43.031     9128.369     7193.668     1851.672        3.274        0.909      217.436       54.294        0.062      337.042        8.747      859.791
02/08/2014  07:40:00     -211.301      -86.569       -5.446       89.078       83.310       33.291     7934.959     6940.515     1108.270        3.407        0.799      228.347       34.041        0.022      337.046        8.751      859.792
02/08/2014  07:41:00     -165.931     -110.413       -2.720       61.637       62.818       37.456     3799.166     3946.142     1402.928        2.444        0.457      199.309       31.805        0.025      337.039        8.740      859.791
02/08/2014  07:42:00     -169.731      -55.306        5.307      114.532       68.708       46.552    13117.536     4720.778     2167.122        2.595        1.000      178.515       59.251        0.110      337.039        8.743      859.801
02/08/2014  07:43:00     -248.327      -96.384        5.789      130.627       75.493       56.696    17063.543     5699.156     3214.457        4.848        1.299      266.376       58.294        0.048      337.037        8.737      859.835
02/08/2014  07:44:00     -200.601      -96.304       -6.316       78.333       83.074       43.030     6136.085     6901.271     1851.609        3.222        0.744      222.520       47.303        0.045      337.038        8.740      859.828
02/08/2014  07:45:00      -77.348       41.000        2.676       53.447       36.977       28.236     2856.634     1367.285      797.283        0.635        0.251       87.543       22.738        0.067      336.991        8.663      859.718
02/08/2014  07:46:00     -118.245      -19.474      -13.930       40.646       38.055       21.533     1652.117     1448.160      463.672        0.906        0.178      119.838       21.644        0.033      336.969        8.626      859.678
02/08/2014  07:47:00     -163.224     -104.535      -14.323       64.913       54.677       39.548     4213.761     2989.629     1564.075        2.327        0.438      193.829       30.618        0.025      336.983        8.649      859.716
02/08/2014  07:48:00     -265.970      -71.957       -7.504      130.107       79.572       50.423    16927.893     6331.704     2542.519        5.088        1.290      275.532       64.581        0.055      337.017        8.704      859.778
02/08/2014  07:49:00     -250.194      -13.745       -6.740       98.996       78.414       44.280     9800.234     6148.707     1960.739        4.037        0.895      250.571       49.340        0.039      337.038        8.738      859.832
02/08/2014  07:50:00     -114.277      -62.100        3.176      109.419       63.167       51.419    11972.546     3990.100     2643.942        1.776        0.930      130.060       61.841        0.226      337.006        8.686      859.813
02/08/2014  07:51:00      -90.939      -82.763        9.375      104.112       83.879       50.528    10839.383     7035.729     2553.052        1.781        1.021      122.962       55.914        0.207      336.972        8.630      859.806
02/08/2014  07:52:00     -206.685      -93.515      -11.018       76.142       66.441       40.473     5797.656     4414.394     1638.051        3.172        0.593      226.856       32.581        0.021      337.044        8.749      859.826
02/08/2014  07:53:00     -191.160      -67.547       -1.705       86.730       77.132       39.307     7522.097     5949.383     1545.023        2.806        0.751      202.743       42.418        0.044      336.991        8.661      859.829
02/08/2014  07:54:00     -221.882      -34.712       -2.188      111.064       74.808       50.679    12335.105     5596.281     2568.376        3.547        1.025      224.581       55.262        0.061      337.008        8.687      859.856
02/08/2014  07:55:00     -213.866      -36.506       -0.388      108.861       68.199       40.430    11850.721     4651.109     1634.592        3.260        0.907      216.959       38.803        0.032      337.059        8.773      859.871
02/08/2014  07:56:00     -123.271       -3.128        0.707       55.716       48.176       30.126     3104.323     2320.970      907.591        1.077        0.317      123.311       27.679        0.050      336.997        8.672      859.853
02/08/2014  07:57:00     -158.657      -35.549        3.657       76.627       48.926       34.434     5871.749     2393.750     1185.712        1.795        0.473      162.591       36.387        0.050      336.958        8.607      859.837
02/08/2014  07:58:00     -165.694      -74.705        1.427       72.788       53.770       30.326     5298.158     2891.203      919.647        2.107        0.455      181.756       33.399        0.034      337.006        8.685      859.932
02/08/2014  07:59:00     -119.188      -54.180       -4.084       85.763       71.359       38.091     7355.355     5092.176     1450.959        1.553        0.695      130.925       38.787        0.088      336.994        8.667      859.964
02/08/2014  08:00:00      -73.893       22.017       -3.147       60.673       27.448       24.000     3681.240      753.420      576.011        0.548        0.251       77.104       21.801        0.080      336.979        8.643      859.930
02/08/2014  08:01:00     -127.975      -60.839      -17.412       78.397       94.455       31.067     6146.152     8921.836      965.189        1.820        0.802      141.700       42.317        0.089      336.997        8.670      859.948
02/08/2014  08:02:00     -157.973      -80.701       -6.290       74.679       58.024       26.870     5576.975     3366.832      722.000        2.058        0.483      177.393       26.192        0.022      336.991        8.661      860.012
02/08/2014  08:03:00     -215.706      -45.511       -4.693       92.104       47.343       34.761     8483.109     2241.387     1208.350        3.028        0.597      220.455       36.769        0.028      336.950        8.591      860.106
02/08/2014  08:04:00     -191.023      -32.253        5.357       85.236       69.666       41.348     7265.205     4853.349     1709.685        2.569        0.691      193.727       45.501        0.055      336.912        8.529      860.152
02/08/2014  08:05:00     -192.327      -67.904        1.661       93.415       78.281       44.920     8726.326     6127.987     2017.794        2.923        0.844      203.962       49.874        0.060      337.000        8.677      860.113
02/08/2014  08:06:00      -99.888      -45.550       -1.260       51.981       60.627       28.599     2702.039     3675.639      817.883        0.962        0.360      109.783       23.272        0.045      337.021        8.712      860.091
02/08/2014  08:07:00      -22.347      -64.423        3.125       42.530       49.007       25.653     1808.786     2401.672      658.095        0.476        0.243       68.189       27.038        0.157      337.060        8.780      860.122
02/08/2014  08:08:00      -64.046      -32.448       -9.245       76.444       43.323       26.348     5843.687     1876.904      694.225        0.683        0.421       71.797       33.528        0.218      337.061        8.779      860.135
02/08/2014  08:09:00     -189.788        9.576      -15.994       32.346       45.197       18.396     1046.282     2042.751      338.395        1.990        0.171      190.029       15.925        0.007      337.029        8.726      860.194
02/08/2014  08:10:00     -178.103       -8.782       -8.444       98.657       65.727       35.352     9733.149     4320.068     1249.743        2.358        0.765      178.319       45.876        0.066      337.104        8.851      860.199
02/08/2014  08:11:00     -228.226      -47.401      -12.651       70.921       54.207       31.028     5029.820     2938.442      962.762        3.171        0.447      233.096       25.711        0.012      337.040        8.741      860.255
02/08/2014  08:12:00     -264.169     -106.563       -9.178       88.718       57.448       37.010     7870.938     3300.274     1369.755        4.688        0.627      284.852       31.537        0.012      337.066        8.785      860.320
02/08/2014  08:13:00     -211.576      -57.306        1.185       50.750       48.584       31.261     2575.558     2360.420      977.245        2.698        0.296      219.199       23.875        0.012      337.110        8.858      860.386
02/08/2014  08:14:00     -149.425      -84.790        0.372      100.576       52.365       33.319    10115.571     2742.052     1110.133        2.174        0.698      171.805       41.684        0.059      337.130        8.895      860.468
02/08/2014  08:15:00      -70.590      -65.544        8.643       70.017       69.693       36.675     4902.319     4857.066     1345.028        1.023        0.555       96.327       37.761        0.154      337.203        9.018      860.507
02/08/2014  08:16:00      -37.306        6.237       17.982       39.161       30.150       25.233     1533.597      909.030      636.711        0.242        0.154       37.824       23.623        0.390      337.201        9.016      860.397
02/08/2014  08:17:00        8.682      -52.881       -4.968       29.088       21.060       19.557      846.116      443.513      382.464        0.228        0.084       53.589       13.109        0.060      337.173        8.969      860.370
02/08/2014  08:18:00      -84.858      -48.461       -7.289       33.015       38.258       22.416     1090.005     1463.646      502.492        0.633        0.153       97.721       17.500        0.032      337.195        9.005      860.446
02/08/2014  08:19:00     -138.677     -151.792       -7.574       83.072       69.627       32.697     6900.933     4847.932     1069.093        2.757        0.641      205.602       37.097        0.033      337.213        9.032      860.526
02/08/2014  08:20:00     -217.652      -85.577       -3.488       93.706       80.305       45.872     8780.761     6448.846     2104.207        3.602        0.867      233.872       54.020        0.053      337.202        9.015      860.626
02/08/2014  08:21:00      -40.313     -179.875        1.328       49.577       66.313       34.021     2457.891     4397.414     1157.442        2.100        0.401      184.337       27.915        0.023      337.249        9.095      860.618
02/08/2014  08:22:00      -15.174     -140.236        8.755       60.512       49.396       28.797     3661.728     2439.918      829.280        1.345        0.347      141.054       22.633        0.026      337.333        9.237      860.494
02/08/2014  08:23:00     -122.086      -92.937       -3.488       69.890       41.974       30.862     4884.624     1761.853      952.470        1.558        0.380      153.435       24.202        0.025      337.302        9.184      860.491
02/08/2014  08:24:00     -158.173     -187.551       -9.191       88.769      109.575       49.057     7879.851    12006.580     2406.586        4.128        1.115      245.344       54.490        0.049      337.249        9.093      860.548
02/08/2014  08:25:00     -184.671     -151.557       -3.664       89.901       74.186       50.089     8082.238     5503.580     2508.898        3.659        0.805      238.899       47.354        0.039      337.277        9.139      860.572
02/08/2014  08:26:00     -134.963      -87.490       -3.306       72.619       87.889       37.351     5273.468     7724.537     1395.061        2.013        0.720      160.840       41.338        0.066      337.303        9.184      860.578
02/08/2014  08:27:00      -13.151       34.078       25.050       37.065       29.886       29.508     1373.794      893.145      870.732        0.255        0.157       36.527       24.066        0.434      337.435        9.407      860.469
02/08/2014  08:28:00      -12.457      -23.951        8.347       29.092       22.912       17.646      846.351      524.964      311.378        0.124        0.084       26.997       12.863        0.227      337.384        9.322      860.358
02/08/2014  08:29:00     -109.922      -25.473        0.226       73.558       33.775       33.098     5410.708     1140.725     1095.465        1.019        0.382      112.835       43.374        0.148      337.360        9.281      860.379
02/08/2014  08:30:00     -181.590     -138.030        8.990      112.804       88.664       58.117    12724.723     7861.280     3377.616        3.803        1.198      228.095       55.305        0.059      337.322        9.215      860.523
02/08/2014  08:31:00     -279.351     -173.168       10.286      173.377      129.118       81.252    30059.464    16671.400     6601.956        8.072        2.667      328.671       81.299        0.061      337.265        9.121      860.627
02/08/2014  08:32:00     -259.042      -99.367      -26.876      131.989      113.521       62.811    17421.120    12887.052     3945.177        5.597        1.713      277.446       54.154        0.038      337.204        9.018      860.653
02/08/2014  08:33:00      -57.920      -54.273        8.359       79.102       77.988       33.717     6257.088     6082.203     1136.843        0.992        0.674       79.374       40.769        0.264      337.282        9.152      860.588
02/08/2014  08:34:00     -142.279      -91.202        9.734      103.526       64.458       47.477    10717.709     4154.830     2254.063        2.289        0.856      169.000       53.966        0.102      337.305        9.188      860.540
02/08/2014  08:35:00     -236.685     -122.547      -18.827       97.392      108.188       44.570     9485.269    11704.557     1986.479        4.728        1.159      266.529       31.100        0.014      337.289        9.160      860.566
02/08/2014  08:36:00     -268.338     -185.471        7.373      141.519      109.537       74.182    20027.716    11998.432     5503.010        7.199        1.876      326.197       70.119        0.046      337.283        9.150      860.603
02/08/2014  08:37:00     -158.832     -126.435        4.982      136.528       66.223       55.168    18639.897     4385.498     3043.480        3.365        1.303      203.011       61.891        0.093      337.332        9.232      860.634
02/08/2014  08:38:00     -228.780     -193.505      -11.592      125.377       97.657       70.061    15719.486     9536.942     4908.609        6.004        1.508      299.641       57.858        0.037      337.207        9.023      860.609
02/08/2014  08:39:00     -274.558     -169.252       -1.707      134.206       86.158       62.416    18011.322     7423.125     3895.733        6.667        1.467      322.534       64.019        0.039      337.232        9.066      860.562
02/08/2014  08:40:00     -305.077     -197.157      -14.806      133.131      100.974       57.300    17723.924    10195.824     3283.315        8.168        1.560      363.239       62.017        0.029      337.258        9.109      860.583
02/08/2014  08:41:00     -303.121     -225.713       -5.390      118.935      113.915       71.567    14145.643    12976.618     5121.793        8.754        1.612      377.927       66.836        0.031      337.224        9.049      860.626
02/08/2014  08:42:00     -234.032     -145.764       -9.241      106.716      119.559       61.829    11388.323    14294.343     3822.887        5.280        1.475      275.714       54.351        0.039      337.225        9.054      860.608
02/08/2014  08:43:00     -212.653     -112.590      -12.332      118.726       81.317       62.999    14095.837     6612.476     3968.923        4.136        1.234      240.620       54.675        0.052      337.262        9.116      860.565
02/08/2014  08:44:00     -345.354     -239.880      -21.008      155.983      133.207       60.382    24330.777    17744.067     3646.016       11.148        2.286      420.490       60.024        0.020      337.141        8.910      860.515
02/08/2014  08:45:00     -278.086     -255.298       -6.717      157.141      107.538       84.470    24693.411    11564.324     7135.233        9.296        2.170      377.504       89.712        0.056      337.155        8.935      860.511
02/08/2014  08:46:00     -425.306      -34.942      -35.346      156.484       99.208       68.070    24487.310     9842.249     4633.554       11.115        1.948      426.739       73.148        0.029      337.127        8.888      860.486
02/08/2014  08:47:00     -182.981     -110.868        5.048      137.155      107.990       58.882    18811.441    11661.927     3467.063        3.986        1.697      213.948       71.204        0.111      337.276        9.139      860.481
02/08/2014  08:48:00     -211.120     -105.924      -12.186      157.419      134.902       62.148    24780.865    18198.600     3862.365        5.138        2.342      236.202       60.108        0.065      337.270        9.130      860.447
02/08/2014  08:49:00     -409.537     -306.019      -13.759      199.507      124.271       78.319    39802.880    15443.294     6133.788       16.146        3.069      511.242       73.752        0.021      337.111        8.862      860.445
02/08/2014  08:50:00     -432.714     -273.076      -16.036      189.207      143.590       88.549    35799.139    20618.101     7840.909       16.315        3.213      511.676       96.150        0.035      337.106        8.851      860.414
02/08/2014  08:51:00     -369.925     -274.250      -12.584      134.712      110.779       83.863    18147.255    12272.076     7032.960       12.483        1.873      460.498       79.213        0.030      337.066        8.786      860.412
02/08/2014  08:52:00     -254.448     -164.838       -1.927      128.301      114.801       64.525    16461.221    13179.179     4163.511        6.285        1.690      303.176       70.397        0.054      337.096        8.835      860.404
02/08/2014  08:53:00     -271.919     -189.104       -5.288      148.490       98.964       75.670    22049.186     9793.829     5726.020        7.364        1.878      331.210       92.549        0.078      337.177        8.973      860.407
02/08/2014  08:54:00     -257.676     -157.213       -5.708      141.211      102.199       71.064    19940.675    10444.607     5050.132        6.328        1.772      301.848       82.274        0.074      337.228        9.059      860.396
02/08/2014  08:55:00     -207.913     -137.863       -5.378      154.922      125.072       63.160    24000.892    15642.915     3989.249        5.294        2.182      249.467       85.891        0.119      337.322        9.215      860.384
02/08/2014  08:56:00     -434.109     -157.154      -27.295      123.036      122.296       75.978    15137.978    14956.228     5772.643       12.487        1.793      461.679       57.713        0.016      337.251        9.095      860.336
02/08/2014  08:57:00     -209.928     -142.934       -3.609      118.710       77.873       56.041    14091.957     6064.246     3140.543        4.390        1.165      253.968       65.724        0.067      337.266        9.120      860.380
02/08/2014  08:58:00     -225.706     -156.336       -3.658      145.236      113.545       67.284    21093.396    12892.492     4527.072        5.695        1.926      274.561       58.709        0.046      337.385        9.320      860.414
02/08/2014  08:59:00     -192.073     -153.481       -0.540      108.885      126.725       64.514    11855.931    16059.280     4162.048        4.626        1.604      245.863       63.951        0.068      337.395        9.337      860.430
02/08/2014  09:00:00     -182.736      -80.978       11.682      129.748      111.298       67.591    16834.629    12387.236     4568.529        3.693        1.690      199.874       68.578        0.118      337.438        9.410      860.416
02/08/2014  09:01:00     -179.203     -110.764        5.662      160.914       82.786       56.665    25893.411     6853.497     3210.883        4.018        1.798      210.671       69.718        0.110      337.414        9.369      860.417
02/08/2014  09:02:00     -171.351      -86.884        8.505      104.127      104.591       51.518    10842.353    10939.372     2654.099        3.070        1.222      192.120       44.646        0.054      337.410        9.363      860.424
02/08/2014  09:03:00     -266.972     -174.392       -3.177      151.403      116.471       72.732    22923.006    13565.541     5289.958        7.173        2.089      318.883       72.561        0.052      337.360        9.278      860.466
02/08/2014  09:04:00     -293.097     -101.539       -0.709      149.262      110.362       62.995    22279.202    12179.708     3968.364        6.731        1.921      310.187       74.734        0.058      337.393        9.333      860.472
02/08/2014  09:05:00     -257.541     -127.453        0.671      156.346      139.492       77.249    24444.002    19458.047     5967.465        6.621        2.493      287.353       81.307        0.080      337.399        9.344      860.487
02/08/2014  09:06:00     -241.975     -182.659        1.072      142.024      129.608       67.679    20170.678    16798.344     4580.429        6.673        2.077      303.177       70.311        0.054      337.385        9.322      860.502
02/08/2014  09:07:00     -411.692     -196.292      -13.481      112.428      111.276       62.795    12640.124    12382.287     3943.259       11.858        1.448      456.093       61.845        0.018      337.292        9.165      860.458
02/08/2014  09:08:00     -224.723     -155.490      -14.621      103.188      117.713       47.668    10647.713    13856.305     2272.204        5.083        1.339      273.272       53.263        0.038      337.341        9.246      860.428
02/08/2014  09:09:00     -150.654      -97.116        0.898      117.455       86.263       55.150    13795.569     7441.295     3041.573        2.820        1.214      179.243       59.269        0.109      337.488        9.493      860.435
02/08/2014  09:10:00     -228.178     -145.996      -19.871      137.091      112.096       63.250    18793.944    12565.571     4000.595        5.456        1.768      270.888       72.341        0.071      337.444        9.419      860.436
02/08/2014  09:11:00     -194.986     -142.817       -1.075      102.664       82.350       52.234    10539.977     6781.568     2728.417        3.923        1.002      241.695       59.996        0.062      337.482        9.483      860.424
02/08/2014  09:12:00     -186.357     -153.639        6.270      126.464      118.717       75.863    15993.031    14093.793     5755.179        4.710        1.792      241.524       73.909        0.094      337.524        9.553      860.399
02/08/2014  09:13:00     -194.306     -100.523        0.876      144.374       92.326       66.000    20843.967     8524.111     4356.025        4.079        1.686      218.768       71.508        0.107      337.547        9.591      860.395
02/08/2014  09:14:00     -189.696      -73.145       -1.506      153.897      115.623       59.285    23684.430    13368.708     3514.739        4.094        2.028      203.309       80.622        0.157      337.606        9.691      860.414
02/08/2014  09:15:00     -277.796     -187.488       -3.387      178.618      128.639       81.271    31904.459    16547.864     6605.047        8.368        2.753      335.145       98.642        0.087      337.501        9.515      860.439
02/08/2014  09:16:00     -152.949     -167.553        7.017      169.336      112.988       93.247    28674.687    12766.371     8695.077        5.082        2.507      226.865       98.625        0.189      337.557        9.608      860.433
02/08/2014  09:17:00     -275.122     -155.987       -5.845      138.153      109.907       65.697    19086.201    12079.511     4316.099        6.776        1.774      316.266       70.706        0.050      337.480        9.479      860.394
02/08/2014  09:18:00     -336.045     -130.797      -16.619      130.337      106.658       65.035    16987.631    11376.018     4229.502        8.145        1.630      360.602       69.810        0.037      337.480        9.479      860.347
02/08/2014  09:19:00     -311.809     -109.453       -9.673      157.766       71.971       49.397    24889.965     5179.890     2440.030        7.090        1.625      330.461       54.838        0.028      337.468        9.460      860.339
02/08/2014  09:20:00     -167.227     -100.795        1.530       97.279       77.501       48.446     9463.199     6006.342     2347.044        2.797        0.891      195.255       53.270        0.074      337.615        9.706      860.344
02/08/2014  09:21:00     -246.865     -138.116       -3.356       87.563       86.227       51.551     7667.359     7435.148     2657.545        4.889        0.888      282.875       44.682        0.025      337.537        9.575      860.330
02/08/2014  09:22:00     -240.994     -194.304        9.260      149.346      111.631       80.684    22304.159    12461.515     6509.921        6.859        2.064      309.568       86.785        0.079      337.556        9.606      860.327
02/08/2014  09:23:00     -282.042     -224.652      -11.705      129.024       98.056       66.257    16647.235     9614.966     4389.967        8.040        1.533      360.577       65.220        0.033      337.494        9.503      860.356
02/08/2014  09:24:00     -183.265     -129.242      -23.198       78.031       76.021       35.560     6088.908     5779.179     1264.487        3.198        0.657      224.253       33.104        0.022      337.602        9.685      860.366
02/08/2014  09:25:00     -233.321      -63.334        2.172       90.068       85.530       49.161     8112.157     7315.441     2416.761        3.815        0.892      241.764       49.163        0.041      337.550        9.596      860.359
02/08/2014  09:26:00     -201.599     -187.318       -4.431      144.066      108.352       65.250    20755.078    11740.124     4257.499        5.624        1.838      275.191       69.194        0.063      337.512        9.533      860.353
02/08/2014  09:27:00     -248.209     -138.080        9.301      118.232       92.510       54.434    13978.702     8558.110     2963.035        5.312        1.275      284.031       55.574        0.038      337.502        9.516      860.384
02/08/2014  09:28:00     -262.690     -171.334       -7.162       84.715       73.845       45.054     7176.616     5453.115     2029.849        5.653        0.733      313.627       43.191        0.019      337.556        9.605      860.457
02/08/2014  09:29:00     -184.138     -142.344       -0.995      132.814      101.044       52.404    17639.675    10209.901     2746.177        4.238        1.530      232.742       64.706        0.077      337.603        9.685      860.481
02/08/2014  09:30:00     -189.938     -148.360      -12.042       75.500       59.123       47.593     5700.231     3495.546     2265.080        3.484        0.573      241.013       41.734        0.030      337.544        9.583      860.467
02/08/2014  09:31:00     -204.294     -162.827       -6.803       86.997       79.121       51.006     7568.549     6260.078     2601.572        4.236        0.822      261.244       41.617        0.025      337.573        9.634      860.468
02/08/2014  09:32:00     -162.825     -184.137       -1.137       72.063      102.069       52.013     5193.043    10418.029     2705.360        3.936        0.916      245.802       33.550        0.019      337.621        9.715      860.497
02/08/2014  09:33:00     -247.241     -112.534       -5.662      120.154       81.984       50.673    14436.939     6721.438     2567.787        4.877        1.186      271.647       52.624        0.038      337.641        9.749      860.525
02/08/2014  09:34:00     -258.291      -82.864      -11.640       97.170       91.949       48.859     9442.005     8454.606     2387.223        4.700        1.014      271.258       38.042        0.020      337.595        9.673      860.515
02/08/2014  09:35:00     -203.699     -156.313       -5.429      111.977      123.426       64.351    12538.901    15233.928     4141.000        4.893        1.596      256.763       63.242        0.061      337.484        9.486      860.479
02/08/2014  09:36:00     -247.020     -167.723       -5.286       97.959       73.299       44.231     9596.032     5372.789     1956.407        5.305        0.846      298.580       41.954        0.020      337.465        9.453      860.517
02/08/2014  09:37:00     -127.868      -94.501        7.018      113.870       93.411       48.395    12966.324     8725.535     2342.057        2.468        1.202      158.999       55.026        0.120      337.517        9.543      860.516
02/08/2014  09:38:00     -214.876     -143.278       -9.387       82.002       69.459       45.106     6724.270     4824.612     2034.592        4.018        0.679      258.264       40.060        0.024      337.536        9.572      860.460
02/08/2014  09:39:00     -224.379     -126.367      -14.315      158.071       67.270       49.873    24986.487     4525.243     2487.307        4.925        1.600      257.516       64.415        0.063      337.561        9.614      860.461
02/08/2014  09:40:00     -202.698     -135.528      -12.789      129.596      104.552       54.171    16795.160    10931.058     2934.469        4.513        1.533      243.833       53.986        0.049      337.491        9.499      860.484
02/08/2014  09:41:00     -254.964     -166.010       -5.329       87.431       95.121       48.451     7644.198     9047.979     2347.535        5.581        0.952      304.246       52.111        0.029      337.493        9.502      860.456
02/08/2014  09:42:00     -237.708     -122.938      -16.315       92.991       77.549       49.188     8647.264     6013.850     2419.478        4.448        0.854      267.617       47.492        0.031      337.500        9.512      860.404
02/08/2014  09:43:00     -236.485      -53.871      -12.958      115.922       66.054       49.572    13437.848     4363.115     2457.379        3.962        1.013      242.543       52.811        0.047      337.461        9.447      860.407
02/08/2014  09:44:00     -289.238     -113.609      -18.507      114.199       99.797       54.336    13041.416     9959.509     2952.386        6.143        1.298      310.750       48.094        0.024      337.415        9.370      860.453
02/08/2014  09:45:00     -202.845     -173.648       -9.149      124.436       91.822       66.573    15484.389     8431.314     4432.021        4.986        1.417      267.020       67.653        0.064      337.482        9.482      860.468
02/08/2014  09:46:00     -229.163     -156.614      -13.464      128.848       89.580       61.351    16601.747     8024.496     3763.906        5.280        1.420      277.567       65.520        0.056      337.334        9.235      860.419
02/08/2014  09:47:00     -205.343      -58.567      -27.323       93.330       56.956       36.426     8710.537     3243.972     1326.875        2.981        0.664      213.532       42.126        0.039      337.322        9.216      860.353
02/08/2014  09:48:00     -113.713     -120.155        2.402      106.574       98.306       59.832    11357.959     9664.136     3579.825        2.598        1.230      165.432       61.234        0.137      337.394        9.337      860.324
02/08/2014  09:49:00     -248.172     -208.965       -0.283      106.425       98.263       62.840    11326.215     9655.595     3948.810        6.509        1.247      324.431       58.494        0.033      337.277        9.140      860.377
02/08/2014  09:50:00     -225.974     -201.872        4.207      130.077       89.690       62.138    16919.908     8044.339     3861.090        6.032        1.441      303.013       65.108        0.046      337.310        9.194      860.432
02/08/2014  09:51:00     -306.485     -152.136      -26.066      130.373      116.807       53.588    16997.185    13643.939     2871.714        7.563        1.676      342.167       59.622        0.030      337.283        9.148      860.392
02/08/2014  09:52:00     -357.276      -39.192      -15.259       97.479       94.380       50.888     9502.213     8907.566     2589.568        7.520        1.050      359.420       45.799        0.016      337.257        9.106      860.333
02/08/2014  09:53:00     -193.721        6.690       -9.656       90.453       84.568       56.746     8181.799     7151.754     3220.055        2.811        0.928      193.837       54.576        0.079      337.315        9.204      860.332
02/08/2014  09:54:00     -219.708      -92.702       -6.392       75.347      101.979       48.876     5677.237    10399.755     2388.833        3.768        0.923      238.464       38.862        0.027      337.290        9.160      860.367
02/08/2014  09:55:00     -169.306     -104.087        0.889      113.586       85.470       54.396    12901.830     7305.075     2958.918        3.133        1.158      198.743       44.122        0.049      337.351        9.266      860.386
02/08/2014  09:56:00     -199.525     -187.852        8.063      105.616      104.233       61.629    11154.720    10864.525     3798.073        5.049        1.291      274.041       63.719        0.054      337.226        9.054      860.376
02/08/2014  09:57:00     -157.679     -122.171        7.544      107.716       87.283       49.134    11602.765     7618.318     2414.123        3.074        1.082      199.470       57.873        0.084      337.273        9.133      860.359
02/08/2014  09:58:00      -82.128      -48.376        8.505      103.341       74.243       61.512    10679.260     5512.035     3783.750        1.456        0.999       95.317       67.772        0.506      337.388        9.327      860.382
02/08/2014  09:59:00     -108.277      -46.460       13.795      119.020       89.364       56.423    14165.715     7985.945     3183.556        1.970        1.267      117.824       56.059        0.226      337.350        9.264      860.412
02/08/2014  10:00:00     -199.079     -175.621        7.838      139.800      147.937       80.335    19544.111    21885.499     6453.751        5.920        2.394      265.472       90.482        0.116      337.254        9.102      860.461
02/08/2014  10:01:00     -212.023      -75.008        2.508      123.363      104.787       59.672    15218.547    10980.235     3560.725        4.017        1.488      224.900       60.097        0.071      337.208        9.024      860.501
02/08/2014  10:02:00     -356.269     -114.402      -31.786       64.383       80.509       38.234     4145.118     6481.625     1461.860        7.655        0.604      374.187       21.810        0.003      337.092        8.830      860.415
02/08/2014  10:03:00     -186.020      -86.432       -0.408      100.912       67.679       38.824    10183.223     4580.383     1507.308        2.917        0.814      205.120       42.530        0.043      337.206        9.020      860.327
02/08/2014  10:04:00     -251.872      -73.924       -2.791       65.316       76.850       38.692     4266.173     5905.916     1497.085        4.029        0.583      262.496       32.091        0.015      337.202        9.014      860.365
02/08/2014  10:05:00     -254.672     -163.545       -4.499      185.341      118.556       73.232    34351.119    14055.576     5362.961        7.269        2.688      302.663       91.849        0.092      337.218        9.041      860.424
02/08/2014  10:06:00     -227.111      -73.133      -13.276       95.190       83.526       53.374     9061.091     6976.551     2848.803        3.799        0.944      238.595       38.272        0.026      337.202        9.015      860.452
02/08/2014  10:07:00     -217.088      -91.118      -12.833      105.962       76.195       43.097    11227.980     5805.750     1857.373        3.724        0.945      235.435       39.506        0.028      337.248        9.092      860.378
02/08/2014  10:08:00     -218.678      -92.634        3.962      110.326       96.869       60.564    12171.848     9383.631     3667.991        4.082        1.261      237.489       61.184        0.066      337.215        9.036      860.300
02/08/2014  10:09:00     -299.943      -44.779       -3.723      114.099       72.311       48.091    13018.616     5228.841     2312.780        5.627        1.028      303.268       52.643        0.030      337.207        9.022      860.351
02/08/2014  10:10:00     -272.755     -177.182       -4.765      111.328      107.443       59.858    12393.844    11543.952     3583.006        6.666        1.376      325.252       56.859        0.031      337.238        9.074      860.419
02/08/2014  10:11:00     -314.960     -157.085      -12.390      173.247      127.385       66.051    30014.469    16227.033     4362.713        8.731        2.530      351.959       84.561        0.058      337.222        9.047      860.418
02/08/2014  10:12:00     -282.813     -189.839       -0.649      142.852      101.326       57.786    20406.718    10266.865     3339.166        7.501        1.701      340.620       65.646        0.037      337.223        9.050      860.405
02/08/2014  10:13:00     -172.175     -118.521        0.773      124.940      103.281       62.339    15610.119    10667.040     3886.192        3.692        1.508      209.025       71.522        0.117      337.254        9.102      860.436
02/08/2014  10:14:00      -35.622      -80.138       28.091       89.655       72.902       57.878     8038.004     5314.679     3349.841        1.259        0.835       87.699       56.236        0.411      337.423        9.386      860.419
02/08/2014  10:15:00     -178.941      -88.165      -19.617       93.592       56.514       41.300     8759.372     3193.828     1705.729        2.692        0.683      199.481       43.283        0.047      337.276        9.140      860.333
02/08/2014  10:16:00     -204.889      -67.827       -5.203      122.715       69.562       44.119    15058.922     4838.940     1946.500        3.422        1.092      215.824       49.777        0.053      337.221        9.046      860.273
02/08/2014  10:17:00     -286.972      -96.763       -3.336      140.320       87.828       54.521    19689.698     7713.692     2972.510        6.105        1.519      302.846       59.997        0.039      337.235        9.069      860.340
02/08/2014  10:18:00     -241.420     -215.183       -9.923      166.707      117.516       75.430    27791.157    13809.894     5689.612        7.598        2.365      323.399       78.024        0.058      337.234        9.069      860.445
02/08/2014  10:19:00     -347.254     -280.303       -1.720      164.936      114.725       74.934    27203.769    13161.736     5615.141       12.256        2.299      446.268       86.324        0.037      337.177        8.973      860.455
02/08/2014  10:20:00     -290.353     -102.036      -12.063       79.062       71.698       40.852     6250.872     5140.673     1668.908        5.396        0.653      307.760       39.156        0.016      337.207        9.022      860.384
02/08/2014  10:21:00     -203.489      -40.713       -9.132       83.105       72.612       39.561     6906.508     5272.510     1565.109        2.844        0.687      207.522       41.047        0.039      337.264        9.118      860.316
02/08/2014  10:22:00     -202.962      -92.776       -3.972       82.341       93.988       45.757     6779.977     8833.782     2093.747        3.376        0.885      223.161       46.133        0.043      337.343        9.250      860.282
02/08/2014  10:23:00     -271.996     -162.951      -14.519      121.251       96.251       55.072    14701.908     9264.329     3032.967        6.387        1.350      317.073       48.331        0.023      337.325        9.220      860.312
02/08/2014  10:24:00     -261.495     -157.660       -3.632      132.950       95.836       57.718    17675.793     9184.446     3331.390        6.171        1.510      305.346       60.270        0.039      337.356        9.271      860.398
02/08/2014  10:25:00     -317.525     -182.108      -14.980      129.582       90.804       58.997    16791.569     8245.290     3480.668        8.136        1.426      366.040       56.134        0.024      337.307        9.190      860.452
02/08/2014  10:26:00     -236.987     -188.464       -5.320      141.461      118.314       65.419    20011.178    13998.091     4279.711        6.499        1.914      302.790       73.291        0.059      337.302        9.182      860.435
02/08/2014  10:27:00     -270.195     -104.732       -7.004      135.481       89.188       50.441    18355.073     7954.584     2544.261        5.643        1.443      289.783       59.875        0.043      337.277        9.140      860.360
02/08/2014  10:28:00     -193.899     -168.169       -9.885       85.551       67.549       41.058     7319.007     4562.812     1685.724        3.977        0.678      256.666       36.229        0.020      337.287        9.156      860.300
02/08/2014  10:29:00     -145.361     -115.833        0.367      111.719       77.907       52.791    12481.225     6069.569     2786.858        2.794        1.067      185.868       61.293        0.109      337.390        9.328      860.265
02/08/2014  10:30:00     -249.785     -123.801      -20.968       73.631       80.248       38.792     5421.453     6439.720     1504.832        4.576        0.668      278.781       36.867        0.017      337.318        9.208      860.281
02/08/2014  10:31:00     -242.952     -162.360      -16.425       91.908      101.954       57.171     8447.151    10394.706     3268.562        5.388        1.106      292.209       37.059        0.016      337.335        9.236      860.314
02/08/2014  10:32:00     -175.693      -26.092       11.210      120.043       94.893       57.963    14410.433     9004.685     3359.713        2.922        1.339      177.620       51.718        0.085      337.321        9.214      860.332
02/08/2014  10:33:00     -146.148      -56.377       -0.062      100.844       92.723       53.481    10169.518     8597.589     2860.227        2.308        1.081      156.644       54.226        0.120      337.377        9.308      860.270
02/08/2014  10:34:00     -190.734      -97.737        1.144       98.719      102.427       42.399     9745.525    10491.271     1797.682        3.398        1.102      214.318       40.504        0.036      337.367        9.291      860.201
02/08/2014  10:35:00     -316.008      -82.236       -8.180      135.934       94.725       58.310    18477.962     8972.823     3400.034        6.876        1.543      326.533       71.232        0.048      337.281        9.146      860.175
02/08/2014  10:36:00     -223.641      -49.066        0.906      123.649      105.654       57.388    15289.001    11162.793     3293.377        4.108        1.487      228.960       62.579        0.075      337.309        9.194      860.194
02/08/2014  10:37:00     -171.886      -26.028        0.753      114.666       71.589       48.200    13148.324     5125.013     2323.194        2.541        1.030      173.845       49.068        0.080      337.382        9.316      860.191
02/08/2014  10:38:00     -197.434      -99.866       -3.079       95.790       92.018       59.019     9175.780     8467.344     3483.217        3.504        1.056      221.254       58.656        0.070      337.393        9.332      860.205
02/08/2014  10:39:00     -263.025     -109.274       -7.885      116.724       73.329       51.518    13624.458     5377.113     2654.111        5.142        1.083      284.820       52.079        0.033      337.385        9.320      860.234
02/08/2014  10:40:00     -158.578      -60.076       20.775      134.806       87.994       52.603    18172.557     7742.937     2767.038        2.893        1.434      169.577       66.546        0.154      337.446        9.423      860.255
02/08/2014  10:41:00     -203.774      -90.424       -5.172       90.327       73.370       46.332     8158.925     5383.097     2146.628        3.270        0.784      222.936       40.294        0.033      337.415        9.370      860.210
02/08/2014  10:42:00      -57.929      -32.594       23.438       43.009       63.682       35.178     1849.744     4055.440     1237.490        0.605        0.357       66.469       27.900        0.176      337.485        9.490      860.114
02/08/2014  10:43:00     -110.736      -17.946       -2.192       67.415       65.293       35.238     4544.810     4263.212     1241.735        1.132        0.502      112.181       33.516        0.089      337.501        9.516      860.027
02/08/2014  10:44:00     -122.637      -77.654       13.121       94.485       87.183       45.939     8927.433     7600.889     2110.380        1.994        0.932      145.155       44.671        0.095      337.547        9.593      860.050
02/08/2014  10:45:00     -235.834     -125.491      -12.749       89.133       70.871       48.579     7944.655     5022.649     2359.921        4.342        0.766      267.143       38.324        0.021      337.504        9.518      860.081
02/08/2014  10:46:00     -225.477     -142.269       -1.307       85.487       97.999       51.102     7308.013     9603.870     2611.404        4.530        0.976      266.609       49.293        0.034      337.480        9.478      860.047
02/08/2014  10:47:00     -170.098     -204.777        1.257       97.988       84.495       58.914     9601.599     7139.343     3470.897        4.554        1.011      266.208       59.986        0.051      337.469        9.461      860.000
02/08/2014  10:48:00     -186.108     -152.627      -12.133       84.209       83.345       42.394     7091.199     6946.461     1797.264        3.695        0.792      240.689       40.450        0.028      337.460        9.446      859.949
02/08/2014  10:49:00     -145.745      -54.451       -8.428       39.503       50.244       32.147     1560.489     2524.411     1033.439        1.470        0.256      155.584       20.470        0.017      337.497        9.510      859.904
02/08/2014  10:50:00     -207.862     -128.787       -5.738       85.086       65.474       47.504     7239.575     4286.910     2256.671        3.680        0.689      244.525       45.436        0.035      337.493        9.500      859.934
02/08/2014  10:51:00     -276.542      -82.941       13.000      163.555      117.310       70.016    26750.294    13761.732     4902.222        6.446        2.271      288.712       75.839        0.069      337.599        9.679      859.972
02/08/2014  10:52:00     -140.413      -50.579       -6.333      105.867       76.515       55.952    11207.904     5854.561     3130.678        2.125        1.010      149.245       41.701        0.078      337.718        9.881      859.888
02/08/2014  10:53:00     -104.101       -2.057       -1.089      122.351       55.172       43.426    14969.682     3043.942     1885.824        1.537        0.995      104.122       44.883        0.186      337.724        9.889      859.723
02/08/2014  10:54:00     -214.613      -52.355        7.267      123.476       96.053       51.308    15246.247     9226.203     2632.523        3.797        1.355      220.907       56.505        0.065      337.711        9.869      859.746
02/08/2014  10:55:00     -289.806     -171.090      -14.446      103.439       79.400       47.644    10699.699     6304.281     2269.904        6.637        0.964      336.540       48.009        0.020      337.672        9.800      859.803
02/08/2014  10:56:00     -280.465     -175.227       -8.593      110.399       99.423       56.988    12187.918     9884.940     3247.660        6.737        1.266      330.704       67.436        0.042      337.675        9.806      859.787
02/08/2014  10:57:00     -161.901     -135.903       -1.207       83.418       72.758       46.876     6958.605     5293.793     2197.377        2.956        0.722      211.380       38.451        0.033      337.820       10.050      859.774
02/08/2014  10:58:00      -59.689     -166.789       -6.097       86.437       90.926       37.727     7471.340     8267.481     1423.322        2.429        0.858      177.148       22.211        0.016      338.005       10.360      859.778
02/08/2014  10:59:00      -16.132      -59.924       10.773       66.739       52.253       34.977     4454.080     2730.376     1223.357        0.619        0.420       62.058       29.810        0.231      338.120       10.555      859.724
02/08/2014  11:00:00      -75.829     -173.427       -6.312       98.065       80.784       40.105     9616.813     6526.118     1608.445        2.681        0.888      189.281       44.373        0.055      338.101       10.523      859.749
02/08/2014  11:01:00     -109.310     -155.111        7.417       72.177      101.241       38.950     5209.518    10249.654     1517.080        2.652        0.849      189.758       41.233        0.047      338.013       10.372      859.747
02/08/2014  11:02:00      -61.756     -148.057        3.086       86.252      125.831       54.565     7439.343    15833.335     2977.293        2.599        1.312      160.420       57.472        0.128      338.156       10.615      859.725
02/08/2014  11:03:00      -60.711     -179.545       -1.998      107.765       83.825       55.304    11613.243     7026.682     3058.480        2.881        1.085      189.532       44.848        0.056      338.112       10.540      859.679
02/08/2014  11:04:00      -58.434     -136.588       19.330      102.336       87.016       47.099    10472.665     7571.747     2218.320        2.135        1.013      148.563       52.605        0.125      338.105       10.528      859.652
02/08/2014  11:05:00       37.600     -192.778       -5.298      158.331      102.341       55.421    25068.810    10473.716     3071.529        3.860        1.931      196.410       61.112        0.097      338.144       10.593      859.609
02/08/2014  11:06:00      -88.882     -129.955        5.519      101.214       89.499       49.121    10244.320     8010.116     2412.891        2.274        1.033      157.443       43.056        0.075      338.083       10.491      859.626
02/08/2014  11:07:00     -204.248     -163.309       -3.274      119.021       95.010       57.768    14166.090     9026.809     3337.146        4.746        1.327      261.509       64.943        0.062      338.040       10.417      859.709
02/08/2014  11:08:00     -168.927     -148.932        2.790      119.300      112.099       52.403    14232.411    12566.267     2746.053        4.013        1.477      225.205       60.458        0.072      338.024       10.392      859.695
02/08/2014  11:09:00      -71.362     -185.737        3.583       60.340       71.370       30.980     3640.902     5093.689      959.766        2.465        0.485      198.974       25.207        0.016      337.926       10.226      859.640
02/08/2014  11:10:00      -82.416     -139.799        0.505       92.071       60.240       47.643     8477.014     3628.799     2269.842        2.035        0.719      162.285       36.885        0.052      337.970       10.302      859.588
02/08/2014  11:11:00     -223.698     -275.344      -13.885      133.827      150.111       64.787    17909.696    22533.334     4197.330        8.534        2.232      354.760       59.417        0.028      337.933       10.239      859.666
02/08/2014  11:12:00     -269.137     -182.637      -28.853      124.916       93.606       61.050    15603.920     8762.024     3727.111        6.735        1.405      325.255       48.683        0.022      337.984       10.325      859.713
02/08/2014  11:13:00     -110.978     -239.142       -5.557       89.078       78.702       48.355     7934.866     6193.939     2338.193        4.300        0.823      263.638       33.855        0.016      338.015       10.378      859.710
02/08/2014  11:14:00     -193.691     -125.169       -2.916       86.110       58.672       38.063     7414.988     3442.428     1448.787        3.275        0.615      230.616       36.022        0.024      338.102       10.522      859.669
02/08/2014  11:15:00     -135.002      -92.953       -0.464      133.184       63.994       47.127    17738.045     4095.284     2221.001        2.546        1.203      163.907       58.992        0.130      338.185       10.663      859.597
02/08/2014  11:16:00     -149.990      -80.531       -4.914       73.843       78.545       39.977     5452.722     6169.291     1598.194        2.111        0.661      170.242       41.889        0.061      338.076       10.480      859.569
02/08/2014  11:17:00     -171.740      -86.827        0.309      111.403       87.387       48.723    12410.634     7636.512     2373.950        2.972        1.121      192.441       50.117        0.068      338.189       10.669      859.590
02/08/2014  11:18:00     -195.249     -205.329       -5.681      113.637      123.285       52.967    12913.410    15199.270     2805.550        5.561        1.546      283.341       40.975        0.021      338.098       10.516      859.639
02/08/2014  11:19:00     -188.582      -68.257       -6.556      114.776      104.351       53.766    13173.642    10889.099     2890.827        3.360        1.348      200.554       60.305        0.090      338.214       10.710      859.568
02/08/2014  11:20:00     -107.753      -77.198       20.119      133.451       90.524       49.950    17809.104     8194.566     2494.963        2.323        1.425      132.553       54.769        0.171      338.166       10.632      859.466
02/08/2014  11:21:00      -21.099      -72.894        4.405       46.927       63.387       29.576     2202.174     4017.890      874.769        0.644        0.355       75.886       25.001        0.109      338.203       10.696      859.383
02/08/2014  11:22:00     -157.170      -79.003        0.910      106.260       51.125       37.033    11291.240     2613.740     1371.435        2.311        0.764      175.909       42.721        0.059      338.283       10.827      859.403
02/08/2014  11:23:00     -221.739     -152.307       -5.925      102.347       51.140       43.885    10474.851     2615.271     1925.920        4.371        0.751      269.008       46.791        0.030      338.117       10.547      859.455
02/08/2014  11:24:00     -180.122      -38.263        1.649      104.464       87.378       54.248    10912.831     7634.956     2942.815        2.770        1.075      184.141       56.596        0.094      338.261       10.789      859.450
02/08/2014  11:25:00     -244.836      -66.125       -2.551      116.263      127.001       66.229    13517.124    16129.164     4386.248        4.917        1.702      253.609       67.816        0.072      338.155       10.610      859.403
02/08/2014  11:26:00     -195.661      -54.899        0.601      140.957      135.755       67.999    19868.897    18429.452     4623.868        4.210        2.146      203.217       75.695        0.139      338.251       10.774      859.379
02/08/2014  11:27:00     -199.657     -112.685       -5.364      109.335      107.414       59.344    11954.190    11537.748     3521.685        3.980        1.351      229.261       59.613        0.068      338.298       10.851      859.377
02/08/2014  11:28:00     -174.565     -189.216        4.917       88.301      108.507       55.612     7796.999    11773.797     3092.658        4.448        1.133      257.441       49.046        0.036      338.254       10.777      859.358
02/08/2014  11:29:00      -30.294      -36.709       -0.952      106.109       80.050       50.001    11259.077     6407.972     2500.053        1.121        1.008       47.595       46.818        0.968      338.587       11.339      859.372
02/08/2014  11:30:00     -138.347     -191.619      -14.298       51.441       75.143       34.822     2646.213     5646.405     1212.604        3.278        0.475      236.343       21.585        0.008      338.302       10.856      859.364
02/08/2014  11:31:00     -118.197     -109.567      -15.439      111.341       87.367       37.304    12396.765     7632.937     1391.575        2.381        1.071      161.169       26.627        0.027      338.514       11.215      859.367
02/08/2014  11:32:00        5.820      -32.690       22.981       68.565      103.512       63.034     4701.118    10714.694     3973.274        1.051        0.969       33.204       63.387        3.644      338.696       11.523      859.371
02/08/2014  11:33:00       57.978      -81.954       19.384       82.592      120.330       49.186     6821.368    14479.250     2419.224        1.708        1.186      100.389       58.303        0.337      338.788       11.677      859.335
02/08/2014  11:34:00      -21.031      -54.972       10.737       74.337       60.633       42.844     5526.024     3676.307     1835.626        0.731        0.552       58.857       36.233        0.379      338.890       11.851      859.313
02/08/2014  11:35:00      -57.633     -118.687      -10.122       64.367       88.477       38.528     4143.152     7828.104     1484.421        1.548        0.673      131.941       31.769        0.058      338.599       11.358      859.321
02/08/2014  11:36:00     -117.696     -111.847       15.165       93.575       80.192       40.729     8756.271     6430.808     1658.879        2.172        0.842      162.364       44.260        0.074      338.744       11.602      859.316
02/08/2014  11:37:00      -75.978      -66.137       -6.874      101.498       78.253       44.298    10301.819     6123.508     1962.326        1.429        0.919      100.731       40.870        0.165      338.593       11.349      859.286
02/08/2014  11:38:00       46.472      -12.008       55.581      109.683      111.693       65.268    12030.338    12475.256     4259.903        1.707        1.438       47.998       56.822        1.401      339.097       12.198      859.223
02/08/2014  11:39:00      104.728     -274.668      -16.866      133.503      122.930       61.890    17823.182    15111.878     3830.316        6.172        1.838      293.957       58.408        0.039      338.626       11.402      859.205
02/08/2014  11:40:00       48.192     -141.108      -13.754      118.526      104.007       71.069    14048.516    10817.387     5050.819        2.616        1.496      149.111       48.288        0.105      338.738       11.591      859.178
02/08/2014  11:41:00        6.692     -225.276      -40.097       99.297       97.903       44.235     9859.824     9585.023     1956.778        3.690        1.070      225.375       35.611        0.025      338.672       11.482      859.198
02/08/2014  11:42:00      -21.845      -79.548       32.711      104.991      123.772       76.427    11023.049    15319.457     5841.099        2.002        1.609       82.493       88.741        1.157      339.056       12.127      859.217
02/08/2014  11:43:00     -114.677      -81.324       -2.153       87.916      112.672       52.030     7729.197    12694.892     2707.162        2.145        1.157      140.586       53.600        0.145      338.899       11.862      859.247
02/08/2014  11:44:00        7.771     -118.872       -6.514       86.873       79.242       51.359     7546.856     6279.314     2637.751        1.535        0.823      119.126       48.615        0.167      338.929       11.914      859.185
02/08/2014  11:45:00      -54.087      -87.501       -8.164       89.631       77.219       38.358     8033.738     5962.826     1471.326        1.306        0.773      102.868       37.683        0.134      338.894       11.853      859.126
02/08/2014  11:46:00       -0.845       -1.189       22.687       45.580       32.376       25.773     2077.500     1048.182      664.223        0.215        0.189        1.459       20.258      192.788      339.186       12.348      859.144
02/08/2014  11:47:00      -61.461      -79.587       -4.933       65.070       71.719       37.506     4234.151     5143.621     1406.707        1.046        0.539      100.556       34.054        0.115      338.923       11.903      859.149
02/08/2014  11:48:00        9.898      -74.419       -1.991       69.705       77.708       45.438     4858.849     6038.600     2064.631        0.930        0.648       75.074       31.536        0.176      339.067       12.147      859.120
02/08/2014  11:49:00       10.568      -32.562       21.377       74.959       75.523       46.586     5618.918     5703.684     2170.255        0.756        0.675       34.234       43.302        1.600      339.238       12.435      859.075
02/08/2014  11:50:00       24.953      -97.325       -6.370      100.563      102.523       54.049    10112.938    10510.935     2921.321        1.684        1.177      100.472       53.024        0.279      339.122       12.238      859.046
02/08/2014  11:51:00       89.507     -114.862       28.388      101.879      147.900      106.472    10379.331    21874.318    11336.229        3.279        2.179      145.619      111.380        0.585      339.121       12.237      859.052
02/08/2014  11:52:00       69.982     -155.538        7.695      140.433      128.001       67.740    19721.339    16384.175     4588.667        3.491        2.035      170.556       54.889        0.104      339.123       12.238      859.083
02/08/2014  11:53:00      -33.919      -79.082       11.762       77.991       71.147       55.037     6082.591     5061.839     3029.055        1.086        0.709       86.049       48.952        0.324      339.216       12.398      859.095
02/08/2014  11:54:00        2.907      -34.020       15.933       75.851       63.427       38.026     5753.329     4022.988     1445.997        0.632        0.561       34.144       37.355        1.197      339.386       12.685      859.024
02/08/2014  11:55:00      -40.879      -38.596       14.783       60.643       55.445       36.955     3677.618     3074.170     1365.637        0.575        0.406       56.220       28.836        0.263      339.338       12.604      858.961
02/08/2014  11:56:00      -52.725      -46.958       21.510       96.216       72.184       40.601     9257.460     5210.597     1648.410        1.078        0.806       70.604       39.619        0.315      339.153       12.290      859.051
02/08/2014  11:57:00      -40.702     -272.950      -20.949      111.015      133.047       72.205    12324.273    17701.392     5213.532        5.591        1.762      275.968       31.357        0.013      338.873       11.819      859.149
02/08/2014  11:58:00      -68.311     -139.157        3.798      111.042      115.186       61.115    12330.384    13267.891     3735.006        2.668        1.467      155.019       41.525        0.072      338.922       11.901      859.177
02/08/2014  11:59:00       -3.030     -106.686        6.322      107.503      104.820       52.211    11556.798    10987.203     2725.945        1.835        1.263      106.729       52.964        0.246      338.903       11.869      859.144
02/08/2014  12:00:00      -82.360     -118.973        0.726      164.812      103.230       58.030    27162.974    10656.510     3367.430        3.105        2.059      144.699       37.944        0.069      338.941       11.933      859.041
02/08/2014  12:01:00      -37.524     -311.687      -27.099      142.933      121.074       73.734    20429.883    14659.003     5436.721        6.990        2.026      313.938       53.495        0.029      338.861       11.798      858.981
02/08/2014  12:02:00      -77.453     -116.479       15.990       84.448      120.895       58.954     7131.457    14615.590     3475.556        2.252        1.261      139.880       67.393        0.232      338.802       11.700      858.978
02/08/2014  12:03:00      -61.629      -44.844        1.461       60.655       37.476       37.316     3679.081     1404.480     1392.494        0.614        0.324       76.217       37.840        0.246      338.930       11.916      858.950
02/08/2014  12:04:00      -37.649     -115.293      -13.317       84.354      110.028       48.336     7115.574    12106.154     2336.414        1.822        1.078      121.285       23.969        0.039      338.945       11.942      858.929
02/08/2014  12:05:00       -0.192      -96.508       13.680       95.359      116.509       76.874     9093.389    13574.382     5909.670        1.903        1.429       96.508       44.071        0.209      338.931       11.918      858.855
02/08/2014  12:06:00     -158.670     -128.891        7.823      119.236      110.084       48.501    14217.218    12118.548     2352.372        3.526        1.434      204.424       52.868        0.067      338.847       11.775      858.853
02/08/2014  12:07:00     -171.154     -181.543        8.210      136.080      117.515       61.235    18517.763    13809.733     3749.778        4.919        1.804      249.502       56.986        0.052      338.834       11.752      858.968
02/08/2014  12:08:00     -147.130     -155.236      -10.443       84.518       90.855       41.587     7143.304     8254.622     1729.451        3.149        0.856      213.882       41.628        0.038      338.857       11.790      858.921
02/08/2014  12:09:00     -147.212     -135.672        2.999       95.250       80.707       45.451     9072.606     6513.616     2065.817        2.887        0.883      200.196       47.501        0.056      338.891       11.848      858.876
02/08/2014  12:10:00     -128.454     -162.293       13.722      167.945       99.735       77.719    28205.591     9947.086     6040.217        4.360        2.210      206.977       55.220        0.071      338.909       11.878      859.027
02/08/2014  12:11:00      -11.978      -93.750       -0.999      123.827       91.908       66.010    15333.200     8446.995     4357.263        1.853        1.407       94.512       57.059        0.364      339.130       12.252      858.967
02/08/2014  12:12:00      -41.699      -92.356       25.569       92.097      139.390       59.246     8481.836    19429.527     3510.030        2.117        1.571      101.333       78.337        0.598      339.062       12.136      858.853
02/08/2014  12:13:00      -35.221       17.362       13.539       39.067       43.452       31.906     1526.196     1888.080     1018.014        0.308        0.222       39.268       28.708        0.534      339.161       12.305      858.796
02/08/2014  12:14:00      -74.351     -101.476       -2.778       54.579       94.767       47.711     2978.847     8980.716     2276.339        1.503        0.712      125.799       38.816        0.095      339.135       12.259      858.836
02/08/2014  12:15:00     -105.999      -76.023       -2.735       65.459       74.171       44.508     4284.924     5501.397     1980.971        1.439        0.588      130.443       30.263        0.054      338.973       11.988      858.974
02/08/2014  12:16:00     -126.743      -70.030        3.805       84.250       62.238       32.659     7098.081     3873.543     1066.628        1.651        0.602      144.804       18.890        0.017      339.019       12.064      858.944
02/08/2014  12:17:00     -164.747     -171.925       -7.566       87.756      111.377       47.571     7701.175    12404.894     2262.955        3.956        1.118      238.117       45.641        0.037      338.728       11.573      858.741
02/08/2014  12:18:00     -115.750     -165.478       -7.463       70.286      134.321       47.556     4940.096    18042.181     2261.532        3.304        1.262      201.943       43.388        0.046      338.821       11.730      858.667
02/08/2014  12:19:00     -100.267     -143.754       15.079      102.250      119.281       48.806    10454.994    14227.923     2382.044        2.900        1.353      175.267       54.252        0.096      338.907       11.875      858.771
02/08/2014  12:20:00     -150.821     -111.755      -10.744      128.333       89.254       63.364    16469.412     7966.233     4015.034        3.190        1.423      187.713       59.939        0.102      338.834       11.753      858.816
02/08/2014  12:21:00     -136.767     -146.477       -6.437      113.472       84.331       55.461    12875.820     7111.748     3075.973        3.163        1.153      200.401       40.521        0.041      338.878       11.827      858.941
02/08/2014  12:22:00      -15.848     -131.994       26.125      163.519      118.086       64.416    26738.392    13944.311     4149.462        3.158        2.242      132.941       43.728        0.108      338.981       12.000      858.855
02/08/2014  12:23:00       49.366      -60.259       26.849       94.439       98.212       58.619     8918.798     9645.623     3436.213        1.439        1.100       77.898       59.446        0.582      338.971       11.984      858.617
02/08/2014  12:24:00      -35.834      -46.786       19.225       80.809       61.332       42.229     6530.096     3761.563     1783.265        0.796        0.604       58.932       32.381        0.302      338.942       11.937      858.466
02/08/2014  12:25:00     -176.438     -174.421       -1.187      134.439       97.494       70.427    18073.917     9505.153     4960.022        4.704        1.627      248.099       61.354        0.061      338.857       11.792      858.666
02/08/2014  12:26:00     -239.656     -205.315      -15.108      127.493      142.384       66.841    16254.401    20273.271     4467.715        7.040        2.050      315.578       62.122        0.039      338.777       11.655      858.907
02/08/2014  12:27:00      -45.975     -141.600        9.704       63.780      104.286       49.134     4067.868    10875.507     2414.159        1.980        0.868      148.877       44.851        0.091      338.911       11.883      858.761
02/08/2014  12:28:00      -54.390     -158.641      -16.745       93.822      115.754       52.324     8802.563    13399.026     2737.797        2.667        1.247      167.706       43.145        0.066      339.074       12.156      858.591
02/08/2014  12:29:00        2.875      -95.678      -12.941       69.367       69.044       48.339     4811.719     4767.122     2336.647        1.062        0.596       95.721       42.281        0.195      339.351       12.626      858.574
02/08/2014  12:30:00      -24.183     -240.573      -23.999       87.790      148.790       67.251     7707.036    22138.347     4522.760        4.670        1.718      241.785       52.638        0.047      339.136       12.260      858.603
02/08/2014  12:31:00       10.307     -160.560        0.192      124.224      132.770       61.340    15431.621    17627.928     3762.612        3.135        1.841      160.891       66.135        0.169      338.963       11.970      858.518
02/08/2014  12:32:00      -75.773     -207.968       -4.317      125.311      119.549       59.870    15702.929    14291.852     3584.372        4.129        1.679      221.342       56.023        0.064      338.972       11.984      858.535
02/08/2014  12:33:00      -19.613       -1.967       35.414       80.463       46.092       51.771     6474.252     2124.515     2680.265        0.646        0.564       19.711       36.078        3.350      339.080       12.167      858.600
02/08/2014  12:34:00      -27.703      -74.292       12.925       48.489       53.471       35.504     2351.173     2859.138     1260.537        0.646        0.324       79.289       20.074        0.064      339.112       12.222      858.575
02/08/2014  12:35:00      -36.795      -82.950       -2.105       56.592       63.551       39.567     3202.699     4038.776     1565.523        0.852        0.440       90.744       35.929        0.157      338.988       12.014      858.566
02/08/2014  12:36:00     -172.727     -146.971       -2.777       99.389      131.305       41.625     9878.175    17240.894     1732.616        4.014        1.443      226.793       30.476        0.018      338.839       11.761      858.575
02/08/2014  12:37:00      -37.212      -61.495       19.222      124.076       84.005       58.939    15394.926     7056.911     3473.837        1.573        1.296       71.878       60.686        0.713      338.870       11.815      858.553
02/08/2014  12:38:00     -143.801      -77.018       10.702      115.135       98.352       57.542    13256.123     9673.132     3311.045        2.648        1.312      163.128       59.216        0.132      338.784       11.669      858.517
02/08/2014  12:39:00      -38.107     -275.482       -9.469      110.032      161.054       57.636    12107.035    25938.396     3321.859        5.939        2.068      278.105       25.150        0.008      338.835       11.754      858.472
02/08/2014  12:40:00     -165.619     -271.633      -11.918      129.834      205.582       70.078    16856.902    42263.918     4910.969        8.268        3.202      318.142       58.530        0.034      338.709       11.542      858.589
02/08/2014  12:41:00       37.817     -183.832        6.779      137.579      112.632       77.244    18928.085    12685.886     5966.590        3.642        1.879      187.682       59.011        0.099      338.876       11.825      858.497
02/08/2014  12:42:00      -36.423     -122.588      -27.051       76.461       88.385       46.302     5846.284     7811.969     2143.855        1.644        0.790      127.885       42.340        0.110      339.010       12.050      858.465
02/08/2014  12:43:00      -29.723      -23.718       -4.493       59.633       57.082       31.479     3556.140     3258.363      990.953        0.463        0.390       38.026       23.193        0.372      339.059       12.133      858.412
02/08/2014  12:44:00      -17.453     -216.163      -21.968      132.301      183.283       72.856    17503.591    33592.525     5308.036        5.195        2.820      216.867       74.597        0.118      338.961       11.965      858.482
02/08/2014  12:45:00       76.647     -171.316       14.265      128.592      150.554       79.730    16535.881    22666.576     6356.844        4.048        2.278      187.680       73.936        0.155      339.012       12.052      858.322
02/08/2014  12:46:00      134.276     -105.422       38.690      132.463      167.767      101.962    17546.500    28145.680    10396.161        4.335        2.804      170.716      112.310        0.433      338.900       11.862      858.089
02/08/2014  12:47:00       67.677     -157.214      -14.102      116.037      138.884       50.385    13464.505    19288.867     2538.653        3.239        1.765      171.162       45.093        0.069      338.953       11.954      858.096
02/08/2014  12:48:00       45.122     -110.024       32.629      111.937      140.531       57.607    12529.830    19748.989     3318.541        2.539        1.780      118.917       51.117        0.185      339.185       12.344      858.215
02/08/2014  12:49:00       58.670     -183.242        5.118      117.986      135.055       83.523    13920.726    18239.863     6976.086        3.808        1.957      192.406       73.619        0.146      339.110       12.217      858.397
02/08/2014  12:50:00       12.977     -305.576      -20.546      149.676      130.569       81.319    22402.990    17048.177     6612.771        7.001        2.303      305.851       50.454        0.027      338.958       11.960      858.325
02/08/2014  12:51:00      -74.244     -248.477      -10.944      106.472      134.343       63.928    11336.350    18047.971     4086.815        5.042        1.674      259.332       52.789        0.041      338.887       11.841      858.270
02/08/2014  12:52:00      -21.205     -120.004        6.050       80.846       98.365       48.893     6536.059     9675.769     2390.562        1.674        0.930      121.864       36.226        0.088      339.092       12.188      858.197
02/08/2014  12:53:00      -22.735     -174.062       -1.271      120.779      113.102       64.669    14587.606    12792.125     4182.021        3.118        1.578      175.540       49.976        0.081      339.025       12.075      858.134
02/08/2014  12:54:00        7.375     -128.609       34.960      131.468      149.046       92.138    17283.713    22214.612     8489.366        3.289        2.399      128.821       99.987        0.602      338.970       11.979      857.960
02/08/2014  12:55:00       99.240     -106.599       78.008      131.769      240.500      128.781    17362.993    57840.443    16584.671        5.952        4.589      145.643      158.822        1.189      339.020       12.065      857.976
02/08/2014  12:56:00      -22.930     -219.473      -15.025      155.942      113.400       76.990    24317.861    12859.507     5927.521        4.600        2.155      220.668       48.429        0.048      339.000       12.031      857.998
02/08/2014  12:57:00      -25.511      -34.507       48.353      133.691      114.882       68.466    17873.401    13197.770     4687.611        1.996        1.788       42.913       67.623        2.483      339.072       12.154      857.907
02/08/2014  12:58:00       26.426      -67.475       -3.046       99.413      102.643       50.181     9882.871    10535.541     2518.173        1.409        1.147       72.465       63.626        0.771      339.016       12.060      857.783
02/08/2014  12:59:00      -26.224     -475.666      -47.424      197.480      241.493       92.757    38998.234    58319.050     8603.928       16.754        5.296      476.388       79.551        0.028      339.016       12.058      857.915
02/08/2014  13:00:00     -116.348     -357.397      -11.714      169.921      171.893       90.981    28873.262    29547.101     8277.588       10.404        3.335      375.859       74.472        0.039      338.996       12.025      857.969
02/08/2014  13:01:00       17.876     -351.128      -15.410      266.512      165.104       90.522    71028.858    27259.397     8194.176       11.514        5.324      351.582       58.337        0.028      338.966       11.974      857.967
02/08/2014  13:02:00      -43.011     -130.208       14.655      104.007       94.690       54.794    10817.378     8966.204     3002.436        2.090        1.139      137.128       50.105        0.134      339.136       12.261      857.668
02/08/2014  13:03:00       69.040     -160.058       19.138      155.776      153.063       93.100    24266.282    23428.298     8667.614        4.355        2.818      174.313       97.058        0.310      339.099       12.200      857.729
02/08/2014  13:04:00      -98.854     -227.436       -4.116      114.403      187.017       64.486    13088.059    34975.460     4158.439        5.686        2.611      247.990       68.777        0.077      339.060       12.132      857.942
02/08/2014  13:05:00      -91.445     -171.511       -1.625      103.364       78.570       46.426    10684.100     6173.320     2155.359        2.839        0.951      194.366       33.303        0.029      338.984       12.005      857.995
02/08/2014  13:06:00      -77.097     -187.530       -8.524      152.211       75.086       58.005    23168.120     5637.942     3364.612        3.667        1.609      202.759       38.064        0.035      338.997       12.027      857.924
02/08/2014  13:07:00     -176.215     -158.105      -17.298      179.583      111.339       72.524    32250.127    12396.291     5259.678        5.312        2.495      236.747       67.154        0.080      338.912       11.883      857.894
02/08/2014  13:08:00      -29.502      -65.083       25.425      104.021      116.070       60.933    10820.334    13472.301     3712.873        1.687        1.400       71.458       52.996        0.550      339.119       12.233      857.958
02/08/2014  13:09:00      -49.481     -262.650       -4.044      205.799      153.258      108.097    42353.124    23488.033    11685.053        7.447        3.876      267.270       68.558        0.066      338.987       12.009      857.927
02/08/2014  13:10:00       -5.681     -393.144       -6.990      209.713      220.043      122.270    43979.720    48418.794    14949.986       13.097        5.367      393.185       88.899        0.051      338.912       11.882      857.938
02/08/2014  13:11:00      -31.995     -455.406      -12.687      160.453      220.957       94.677    25745.305    48821.835     8963.700       14.604        4.177      456.529       51.385        0.013      338.883       11.834      857.939
02/08/2014  13:12:00      -96.937     -214.586      -20.090      142.080      140.519       65.136    20186.614    19745.643     4242.743        5.000        2.209      235.465       68.592        0.085      338.854       11.786      857.834
02/08/2014  13:13:00      -99.289     -102.919       27.527      127.874      132.732       70.201    16351.750    17617.658     4928.209        3.005        1.945      143.006       74.388        0.271      338.949       11.948      857.815
02/08/2014  13:14:00     -215.341      -82.020       15.527      158.495      144.406       69.692    25120.822    20853.124     4857.010        5.208        2.542      230.432       68.905        0.089      338.892       11.850      857.691
02/08/2014  13:15:00      -19.834     -128.200       11.386      140.176      115.915       70.290    19649.174    13436.224     4940.684        2.748        1.901      129.726       61.865        0.227      339.115       12.226      857.738
02/08/2014  13:16:00      -37.820     -154.618       32.197      154.334      147.560       93.034    23819.136    21774.044     8655.338        4.030        2.712      159.176       74.633        0.220      339.235       12.429      857.761
02/08/2014  13:17:00      -95.752     -201.056       11.058      142.531      134.301       77.838    20315.105    18036.845     6058.722        4.705        2.221      222.693       54.722        0.060      339.212       12.387      857.716
02/08/2014  13:18:00     -242.826     -141.210        1.895      185.620      139.796       74.858    34454.903    19542.870     5603.699        6.924        2.980      280.900      105.262        0.140      339.185       12.343      857.601
02/08/2014  13:19:00     -155.651     -125.808       12.909      151.041      121.228       60.450    22813.284    14696.262     3654.160        4.068        2.058      200.137       70.833        0.125      339.146       12.277      857.627
02/08/2014  13:20:00     -119.294      -80.980       10.913       91.546       63.057       41.789     8380.710     3976.210     1746.350        1.750        0.705      144.183       37.388        0.067      339.065       12.142      857.616
02/08/2014  13:21:00     -115.012     -102.269       -0.948       81.170      108.721       37.526     6588.549    11820.265     1408.226        2.175        0.991      153.905       40.927        0.071      339.254       12.460      857.639
02/08/2014  13:22:00     -266.151     -204.989      -11.896      124.899      138.221       62.428    15599.724    19105.035     3897.212        7.579        1.930      335.942       60.153        0.032      339.101       12.200      857.705
02/08/2014  13:23:00     -106.280     -119.769       34.902      135.253      149.601       69.785    18293.361    22380.410     4870.003        3.619        2.277      160.125       67.109        0.176      339.197       12.363      857.764
02/08/2014  13:24:00        0.403     -181.005      -11.243      132.035      127.788       64.975    17433.226    16329.857     4221.711        3.543        1.899      181.006       40.516        0.050      339.235       12.426      857.834
02/08/2014  13:25:00       22.360     -144.552       -3.888      127.787       93.094       55.491    16329.396     8666.498     3079.306        2.474        1.404      146.271       54.321        0.138      339.269       12.487      857.723
02/08/2014  13:26:00      -74.620     -345.014      -16.150       97.915      113.710       63.438     9587.288    12929.880     4024.394        7.570        1.327      352.991       41.069        0.014      339.162       12.305      857.794
02/08/2014  13:27:00     -114.508     -150.721       -6.077      138.993      116.045       60.280    19319.128    13466.409     3633.710        3.614        1.821      189.285       62.688        0.110      339.140       12.267      857.797
02/08/2014  13:28:00       16.019     -149.458       16.782      167.931      190.916       99.456    28200.663    36448.868     9891.416        4.869        3.727      150.314      105.736        0.495      339.195       12.360      857.671
02/08/2014  13:29:00     -247.858     -285.061      -27.020      187.734      175.287       64.518    35244.242    30725.376     4162.522       10.676        3.507      377.747       58.216        0.024      339.073       12.155      857.907
02/08/2014  13:30:00        4.445     -116.795       11.932      178.404       80.320       53.565    31827.871     6451.317     2869.200        2.747        2.057      116.879       39.807        0.116      339.151       12.286      858.029
02/08/2014  13:31:00        1.947      107.541       23.554       73.792       85.056       65.062     5445.251     7234.605     4233.127        1.451        0.846      107.559       52.816        0.241      339.228       12.418      857.795
02/08/2014  13:32:00      -21.348      -52.115       17.762       48.669       53.500       34.663     2368.638     2862.211     1201.526        0.496        0.322       56.318       26.061        0.214      339.324       12.581      857.759
02/08/2014  13:33:00       71.962      -95.553       42.990      120.911      166.190       74.198    14619.378    27619.234     5505.384        3.194        2.387      119.620       82.756        0.479      339.346       12.615      857.838
02/08/2014  13:34:00     -111.310     -119.662        7.506      138.876       91.155       65.992    19286.588     8309.212     4354.920        2.935        1.598      163.429       59.173        0.131      339.253       12.457      857.995
02/08/2014  13:35:00     -134.990     -152.699       -5.582      124.889      103.403       57.902    15597.364    10692.202     3352.640        3.560        1.482      203.812       61.551        0.091      339.088       12.180      857.987
02/08/2014  13:36:00      -97.998     -155.866       13.571       99.180      115.353       54.082     9836.693    13306.352     2924.872        3.007        1.303      184.113       52.594        0.082      339.147       12.278      858.023
02/08/2014  13:37:00      -66.382      -37.962       -2.665       88.962       56.053       35.678     7914.183     3141.948     1272.904        0.909        0.616       76.470       26.995        0.125      339.223       12.409      858.035
02/08/2014  13:38:00     -141.988      -59.682        4.610       86.916       71.776       41.338     7554.353     5151.806     1708.869        1.908        0.721      154.021       38.996        0.064      339.114       12.225      857.914
02/08/2014  13:39:00     -120.385      -24.388        1.355      143.461       72.632       47.357    20580.981     5275.377     2242.640        2.159        1.405      122.830       58.512        0.227      339.058       12.130      857.888
02/08/2014  13:40:00      -51.390       -8.659       18.300       55.696       55.925       34.477     3102.034     3127.653     1188.669        0.523        0.371       52.114       29.921        0.330      339.241       12.437      857.855
02/08/2014  13:41:00      -32.895       -9.572        3.794       25.512       24.550       21.937      650.843      602.717      481.247        0.146        0.087       34.259       16.868        0.242      339.297       12.533      857.899
02/08/2014  13:42:00       76.525       49.266       24.296       44.176       31.651       34.370     1951.480     1001.787     1181.329        0.650        0.207       91.012       21.394        0.055      339.392       12.694      857.907
02/08/2014  13:43:00       -9.576       33.054       19.984      108.529       76.497       30.908    11778.607     5851.856      955.308        1.008        0.929       34.413       32.574        0.896      339.388       12.686      857.963
02/08/2014  13:44:00     -118.625     -146.155      -12.311      126.089       64.778       52.162    15898.534     4196.195     2720.868        2.920        1.141      188.237       47.422        0.063      339.239       12.433      858.011
02/08/2014  13:45:00       -6.668      -54.585       31.128       81.831       60.597       43.541     6696.328     3672.056     1895.828        0.813        0.613       54.991       40.961        0.555      339.360       12.640      857.953
02/08/2014  13:46:00     -232.316     -141.038      -18.797       97.626       67.620       35.060     9530.889     4572.452     1229.231        4.477        0.767      271.777       36.463        0.018      339.060       12.133      857.978
02/08/2014  13:47:00     -112.322     -141.446      -11.996      146.352      131.868       57.127    21418.881    17389.240     3263.455        3.741        2.104      180.619       67.320        0.139      339.264       12.475      858.027
02/08/2014  13:48:00     -108.063     -186.264      -18.466       93.440       96.703       46.872     8731.010     9351.504     2197.002        3.349        1.014      215.342       38.303        0.032      339.295       12.527      858.085
02/08/2014  13:49:00      -55.364      -90.713       -6.329       39.803       41.943       25.961     1584.252     1759.187      673.984        0.767        0.201      106.273       14.448        0.018      339.264       12.477      858.057
02/08/2014  13:50:00     -102.557      -84.348       -0.694       88.792       79.853       45.219     7884.107     6376.486     2044.724        1.697        0.815      132.787       39.932        0.090      339.342       12.609      858.023
02/08/2014  13:51:00     -245.261      -90.533        5.927      161.989       93.337       54.217    26240.289     8711.782     2939.459        5.313        1.895      261.436       69.848        0.071      339.370       12.655      858.133
02/08/2014  13:52:00     -241.023     -168.604      -14.587      180.113      117.612       67.265    32440.780    13832.628     4524.615        6.876        2.540      294.142       91.155        0.096      339.112       12.220      858.213
02/08/2014  13:53:00     -224.398     -180.067       -9.833      145.486      100.350       57.953    21166.131    10070.068     3358.538        5.873        1.730      287.713       71.389        0.062      338.974       11.988      858.004
02/08/2014  13:54:00     -227.072     -177.106        0.707      127.822       98.303       70.338    16338.505     9663.521     4947.364        5.693        1.547      287.973       66.750        0.054      339.135       12.257      858.030
02/08/2014  13:55:00     -202.001     -209.126       13.715      155.666      129.694       74.585    24231.753    16820.535     5562.980        6.566        2.331      290.755       77.417        0.071      338.837       11.756      858.002
02/08/2014  13:56:00     -244.469     -104.495      -23.881      187.029      149.433      102.218    34979.958    22330.322    10448.418        6.949        3.388      265.865      108.966        0.168      338.686       11.503      857.883
02/08/2014  13:57:00     -237.543     -199.022       15.392      216.671      166.435       97.116    46946.382    27700.613     9431.577        9.016        4.204      309.897      118.958        0.147      338.681       11.494      857.880
02/08/2014  13:58:00     -546.544     -115.448      -33.968      242.383      151.310       95.309    58749.759    22894.652     9083.762       20.194        4.536      558.604      102.472        0.034      338.649       11.442      857.902
02/08/2014  13:59:00     -471.322        8.184      -26.211      198.065      162.897       82.338    39229.738    26535.494     6779.497       14.771        3.627      471.393       96.778        0.042      338.721       11.562      857.865
02/08/2014  14:00:00     -378.785      -33.943      -14.409      201.205      119.374       77.171    40483.462    14250.043     5955.288       10.275        3.034      380.303       86.817        0.052      338.812       11.714      857.836
02/08/2014  14:01:00     -317.755      -69.895       -3.832      162.952      100.399       72.299    26553.461    10079.924     5227.171        7.386        2.093      325.351       75.992        0.055      338.900       11.864      857.780
02/08/2014  14:02:00     -284.085      -75.662       -6.252      158.223      130.724       82.448    25034.364    17088.769     6797.631        6.768        2.446      293.988       80.289        0.075      338.987       12.009      857.826
02/08/2014  14:03:00      -10.600     -129.026       17.513      100.169       90.665       74.808    10033.780     8220.094     5596.212        2.045        1.193      129.460       68.883        0.283      339.118       12.231      857.910
02/08/2014  14:04:00      -38.591      -44.303       22.963       88.898      121.416       35.123     7902.864    14741.828     1233.635        1.392        1.194       58.754       42.881        0.533      339.276       12.498      857.970
02/08/2014  14:05:00     -297.530     -267.581      -10.102      159.110      112.986       69.521    25315.881    12765.942     4833.117       10.156        2.146      400.155       78.959        0.039      338.944       11.935      857.957
02/08/2014  14:06:00     -122.186     -215.430       17.931      119.380      111.455       72.258    14251.626    12422.149     5221.210        4.677        1.595      247.668       72.315        0.085      338.882       11.833      857.860
02/08/2014  14:07:00     -182.650     -188.301      -13.597      105.532       73.354       52.665    11136.904     5380.803     2773.622        4.414        0.965      262.333       39.192        0.022      338.910       11.881      857.869
02/08/2014  14:08:00     -248.622     -186.133      -24.767      115.219       93.546       59.575    13275.366     8750.916     3549.121        6.132        1.279      310.578       59.557        0.037      338.773       11.650      857.866
02/08/2014  14:09:00     -175.062     -244.947      -10.105       86.502       95.509       53.416     7482.653     9122.048     2853.237        5.510        0.973      301.075       39.665        0.017      338.805       11.703      857.849
02/08/2014  14:10:00     -213.745     -184.150        3.390      118.149      103.443       58.256    13959.200    10700.393     3393.743        5.383        1.403      282.132       49.911        0.031      338.909       11.878      857.790
02/08/2014  14:11:00     -205.894     -112.356      -20.631      119.358       97.866       38.871    14246.345     9577.719     1510.961        4.038        1.267      234.556       54.642        0.054      338.677       11.488      857.748
02/08/2014  14:12:00     -214.335      -81.252       -8.621      171.442       92.758       46.639    29392.357     8604.001     2175.195        4.639        2.009      229.219       53.302        0.054      338.823       11.734      857.725
02/08/2014  14:13:00     -158.697      -24.066       19.125      133.429       86.275       53.774    17803.166     7443.456     2891.606        2.713        1.407      160.511       60.520        0.142      338.826       11.738      857.740
02/08/2014  14:14:00     -202.529     -129.619       -7.774      134.506       99.787       51.338    18091.771     9957.407     2635.626        4.428        1.534      240.456       61.220        0.065      338.781       11.663      857.749
02/08/2014  14:15:00     -100.696      -69.552        8.813      101.617       78.569       46.207    10326.100     6173.149     2135.054        1.684        0.932      122.382       48.555        0.157      338.968       11.979      857.696
02/08/2014  14:16:00      -10.924       11.772       15.092       32.085       17.300       23.911     1029.430      299.298      571.741        0.119        0.095       16.059       19.419        1.462      339.221       12.407      857.731
02/08/2014  14:17:00      -32.927      -41.289       11.036       38.931       41.273       35.788     1515.645     1703.431     1280.763        0.370        0.225       52.811       14.559        0.076      339.419       12.738      857.769
02/08/2014  14:18:00      -48.793     -112.787        6.067       71.029       84.468       37.521     5045.059     7134.839     1407.824        1.436        0.679      122.889       36.429        0.088      339.259       12.468      857.827
02/08/2014  14:19:00      -96.610     -134.645        2.860      122.153      153.272       44.136    14921.446    23492.156     1947.978        3.391        2.018      165.719       58.439        0.124      339.394       12.696      857.959
02/08/2014  14:20:00      -82.515      -71.701       32.024      115.171      102.747       53.492    13264.429    10556.973     2861.435        1.982        1.334      109.315       53.062        0.236      339.401       12.708      858.037
02/08/2014  14:21:00     -204.609      -66.261        0.075      126.954      131.183       43.381    16117.310    17209.091     1881.886        4.072        1.760      215.071       54.687        0.065      339.265       12.477      857.969
02/08/2014  14:22:00     -249.200     -105.069       -5.478      123.260      109.782       48.767    15193.113    12052.189     2378.254        5.139        1.481      270.444       43.361        0.026      339.113       12.221      858.043
02/08/2014  14:23:00     -223.602     -145.904       -5.885      136.911      120.784       65.973    18744.727    14588.793     4352.440        5.450        1.884      266.994       54.102        0.041      338.921       11.899      858.124
02/08/2014  14:24:00     -334.733     -151.117      -14.952      198.772      132.503       76.986    39510.201    17556.940     5926.867        9.904        3.150      367.264       83.179        0.051      338.810       11.713      858.179
02/08/2014  14:25:00     -158.357      -55.903       23.280      146.942      143.622       68.508    21592.071    20627.189     4693.309        3.782        2.346      167.935       68.469        0.166      338.804       11.702      858.234
02/08/2014  14:26:00     -253.550     -210.259       -2.768      147.858      131.055       76.747    21862.004    17175.383     5890.149        7.671        2.246      329.388       74.630        0.051      338.859       11.793      858.292
02/08/2014  14:27:00     -255.433     -188.624      -20.204      111.106      216.560       61.500    12344.570    46898.067     3782.269        8.212        3.151      317.530       71.722        0.051      338.977       11.991      858.282
02/08/2014  14:28:00     -187.296     -143.599       -3.034      138.292       88.738       50.206    19124.542     7874.363     2520.630        4.261        1.476      236.009       55.934        0.056      339.062       12.135      858.322
02/08/2014  14:29:00     -253.673     -148.844        4.002      165.941      165.490       73.073    27536.484    27386.985     5339.724        7.338        3.013      294.116       83.464        0.081      338.888       11.843      858.442
02/08/2014  14:30:00     -109.072     -267.758        5.262      148.140      149.603       59.761    21945.407    22381.155     3571.429        6.575        2.395      289.121       65.995        0.052      338.604       11.366      858.471
02/08/2014  14:31:00      -63.353     -122.545        3.917       90.656       84.042       49.442     8218.599     7063.085     2444.498        1.838        0.886      137.953       39.671        0.083      338.754       11.618      858.430
02/08/2014  14:32:00     -323.018      -56.471       -6.934      217.524      118.090       73.245    47316.882    13945.289     5364.858        8.709        3.331      327.917       93.340        0.081      338.782       11.664      858.416
02/08/2014  14:33:00     -410.459     -127.446       -5.281      172.158      146.094       84.620    29638.450    21343.484     7160.482       12.143        2.907      429.790       88.517        0.042      338.621       11.393      858.494
02/08/2014  14:34:00     -236.343      -53.913       -2.931      150.058      106.367       78.094    22517.292    11313.880     6098.696        4.934        1.996      242.415       85.447        0.124      338.812       11.714      858.549
02/08/2014  14:35:00     -213.399      -74.318        5.579      182.349      120.843       80.179    33251.005    14603.096     6428.701        5.268        2.714      225.970       95.329        0.178      338.675       11.486      858.525
02/08/2014  14:36:00     -381.590      -49.820        5.510      221.377      140.326       92.333    49007.927    19691.500     8525.337       11.266        3.861      384.829       96.733        0.063      338.540       11.257      858.631
02/08/2014  14:37:00     -728.752     -101.336      -50.268      211.826      194.094      107.490    44870.091    37672.367    11554.170       31.897        4.705      735.764      107.600        0.021      338.217       10.714      858.634
02/08/2014  14:38:00     -312.675      -81.344      -12.245      212.894      136.250       98.923    45323.723    18564.102     9785.754        8.909        3.684      323.083      115.235        0.127      338.387       11.001      858.680
02/08/2014  14:39:00     -227.637        1.756       -2.436      185.046      125.717       70.751    34242.085    15804.831     5005.688        5.343        2.753      227.644       77.676        0.116      338.528       11.238      858.694
02/08/2014  14:40:00     -509.695      -63.474      -13.924      230.753      144.682      101.988    53247.125    20932.858    10401.537       17.428        4.229      513.632      115.622        0.051      338.344       10.928      858.735
02/08/2014  14:41:00     -477.386       85.158      -18.859      157.082      158.587       78.025    24674.828    25149.695     6087.966       14.570        2.796      484.921       83.012        0.029      338.238       10.751      858.801
02/08/2014  14:42:00     -478.905      -86.060      -16.866      189.777      175.334       89.352    36015.238    30741.991     7983.702       15.588        3.737      486.576       93.191        0.037      338.179       10.652      858.849
02/08/2014  14:43:00     -331.105      -70.690      -14.843      133.390      112.563       55.025    17792.807    12670.464     3027.774        7.416        1.675      338.567       59.292        0.031      338.169       10.635      858.869
02/08/2014  14:44:00     -174.939      -51.081        6.921      160.211      102.296       59.095    25667.459    10464.512     3492.204        3.643        1.981      182.244       75.871        0.173      338.272       10.810      858.867
02/08/2014  14:45:00     -355.501      -62.544       -6.823      184.865      148.185       77.098    34174.966    21958.878     5944.152        9.620        3.104      360.961       62.340        0.030      337.999       10.351      858.870
02/08/2014  14:46:00     -409.347     -101.320      -23.322      186.068      197.936       86.931    34621.438    39178.633     7557.064       12.985        4.068      421.700       86.750        0.042      337.966       10.293      858.962
02/08/2014  14:47:00     -548.350      -56.591      -23.483      245.415      153.448       96.280    60228.459    23546.142     9269.763       19.872        4.652      551.262      104.441        0.036      337.779        9.980      858.995
02/08/2014  14:48:00     -253.004      -41.617      -18.045      172.969      146.971       55.594    29918.288    21600.534     3090.681        6.033        2.730      256.404       64.727        0.064      337.820       10.050      859.038
02/08/2014  14:49:00     -322.766     -129.596       -9.336      245.859      233.869       99.029    60446.571    54694.867     9806.659       12.298        6.247      347.812       91.238        0.069      337.816       10.041      858.990
02/08/2014  14:50:00     -371.042     -163.731       -9.276      219.991      150.552       85.639    48396.007    22665.866     7333.973       12.147        3.920      405.561       98.661        0.059      337.711        9.867      858.937
02/08/2014  14:51:00     -369.553     -143.371       -9.581      211.399      184.245       81.281    44689.737    33946.252     6606.653       12.121        4.262      396.389       84.392        0.045      337.703        9.852      858.953
02/08/2014  14:52:00     -394.754     -203.703       -7.427      240.674      180.804       97.255    57924.178    32690.116     9458.491       14.871        5.004      444.213      118.520        0.071      337.645        9.756      858.966
02/08/2014  14:53:00     -384.226     -240.037      -15.138      287.012      203.338      129.586    82376.066    41346.403    16792.490       17.297        7.026      453.043      146.155        0.104      337.610        9.697      858.947
02/08/2014  14:54:00     -412.195     -203.316      -15.600      245.841      201.819      115.201    60437.971    40731.029    13271.240       16.294        5.722      459.610      124.751        0.074      337.527        9.558      858.891
02/08/2014  14:55:00     -255.022     -130.696       15.587      231.926      149.868       88.582    53789.631    22460.296     7846.839        8.321        4.205      286.561      111.210        0.151      337.634        9.738      858.871
02/08/2014  14:56:00     -567.400      -66.178      -43.271      255.219      165.543      102.281    65136.814    27404.554    10461.352       21.558        5.150      571.246      113.255        0.039      337.485        9.488      858.842
02/08/2014  14:57:00     -446.731     -125.122       24.401      222.076      207.227      111.084    49317.816    42943.207    12339.645       16.019        5.230      463.922      105.884        0.052      337.473        9.468      858.837
02/08/2014  14:58:00     -485.142     -149.147      -11.738      238.632      217.101       98.346    56945.102    47132.947     9671.993       18.573        5.688      507.551      110.880        0.048      337.455        9.435      858.796
02/08/2014  14:59:00     -415.220     -132.788       12.262      266.900      210.310      110.743    71235.824    44230.433    12264.113       15.894        6.387      435.936      123.760        0.081      337.456        9.439      858.732
02/08/2014  15:00:00     -549.541     -381.251      -27.568      197.166      191.063      110.497    38874.482    36505.034    12209.611       26.783        4.379      668.840      106.812        0.026      337.434        9.401      858.729
02/08/2014  15:01:00     -337.630     -374.275      -12.119      238.263      279.693      144.292    56769.079    78227.975    20820.202       20.499        7.791      504.060      144.926        0.083      337.402        9.348      858.701
02/08/2014  15:02:00     -587.152     -153.625      -19.745      353.224      306.210      122.439   124767.305    93764.852    14991.354       30.108       11.676      606.917      148.232        0.060      337.437        9.407      858.651
02/08/2014  15:03:00     -334.222     -180.802       15.728      278.916      214.496      113.328    77793.984    46008.511    12843.226       14.062        6.832      379.992      133.787        0.124      337.513        9.535      858.649
02/08/2014  15:04:00     -483.816     -115.649      -26.782      245.164      180.189      104.800    60105.313    32468.059    10983.033       17.584        5.178      497.446      122.738        0.061      337.449        9.427      858.735
02/08/2014  15:05:00     -367.432     -346.089       -4.103      274.579      218.166      134.449    75393.489    47596.550    18076.456       19.791        7.053      504.761      152.847        0.092      337.385        9.321      858.735
02/08/2014  15:06:00     -324.567     -112.699       -8.196      235.875      190.577      106.138    55636.984    36319.715    11265.252       11.065        5.161      343.577      111.855        0.106      337.400        9.346      858.746
02/08/2014  15:07:00     -455.091     -290.444       -5.435      331.106      235.639      120.633   109631.226    55525.763    14552.279       23.557        8.985      539.876      157.002        0.085      337.398        9.341      858.727
02/08/2014  15:08:00     -595.399     -411.341      -14.354      323.971      211.325      137.047   104957.102    44658.436    18781.959       34.612        8.420      723.672      161.563        0.050      337.371        9.298      858.731
02/08/2014  15:09:00     -449.854     -117.459        2.315      253.522      231.339      123.731    64273.289    53517.893    15309.280       17.461        6.655      464.936      114.144        0.060      337.379        9.310      858.768
02/08/2014  15:10:00     -655.381     -336.357      -31.721      321.000      243.303      121.195   103041.212    59196.285    14688.213       36.026        8.846      736.655      142.780        0.038      337.368        9.292      858.862
02/08/2014  15:11:00     -607.289     -336.439       -9.098      291.686      251.554      132.878    85081.006    63279.296    17656.571       32.401        8.301      694.256      138.727        0.040      337.300        9.179      858.937
02/08/2014  15:12:00     -603.374     -283.360      -31.674      305.794      244.617      129.018    93509.803    59837.358    16645.770       30.764        8.500      666.598      142.663        0.046      337.283        9.150      858.951
02/08/2014  15:13:00     -539.352     -283.929      -19.952      290.681      180.753      117.505    84495.682    32671.609    13807.433       25.142        6.549      609.522      137.620        0.051      337.270        9.128      858.966
02/08/2014  15:14:00     -441.952     -341.060       -1.901      263.728      213.669      113.960    69552.490    45654.340    12986.981       21.989        6.410      558.251      124.742        0.050      337.211        9.029      858.984
02/08/2014  15:15:00     -461.321     -100.269        4.113      337.531      259.139      127.496   113927.264    67153.242    16255.331       21.007        9.867      472.092      154.477        0.107      337.248        9.093      858.977
02/08/2014  15:16:00     -673.511     -241.698      -41.566      310.884      217.475      124.236    96648.902    47295.500    15434.591       33.654        7.969      715.566      143.753        0.040      337.194        9.000      858.973
02/08/2014  15:17:00     -484.312     -149.600        3.936      297.963      215.622      125.637    88781.735    46492.862    15784.567       20.398        7.553      506.891      138.324        0.074      337.205        9.019      859.022
02/08/2014  15:18:00     -490.830     -175.842       -0.948      277.786      223.134      118.050    77164.928    49788.712    13935.793       20.633        7.044      521.378      143.713        0.076      337.204        9.016      859.030
02/08/2014  15:19:00     -350.405     -251.623      -12.886      245.712      192.046      119.378    60374.314    36881.506    14251.120       14.886        5.575      431.390      116.551        0.073      337.181        8.979      859.019
02/08/2014  15:20:00     -635.521     -275.874      -15.657      292.700      170.088      108.617    85673.315    28929.859    11797.548       30.329        6.320      692.816      107.235        0.024      337.132        8.895      859.033
02/08/2014  15:21:00     -611.134     -320.036       -8.132      302.621      252.757      137.658    91579.271    63885.881    18949.801       32.516        8.721      689.860      137.520        0.040      337.116        8.871      859.003
02/08/2014  15:22:00     -404.313     -309.316       -1.057      320.083      216.663      152.467   102453.267    46942.780    23246.134       21.586        8.632      509.063      176.592        0.120      337.117        8.872      858.981
02/08/2014  15:23:00     -571.419     -124.475      -29.267      328.878      247.926      129.692   108160.751    61467.206    16820.097       26.462        9.322      584.819      144.267        0.061      337.096        8.835      858.968
02/08/2014  15:24:00     -490.616     -198.421        6.546      448.546      317.231      170.288   201193.180   100635.308    28998.050       30.541       16.541      529.221      217.358        0.169      337.064        8.782      858.949
02/08/2014  15:25:00     -685.963     -241.895      -14.591      340.603      233.981      131.658   116010.189    54746.882    17333.770       35.864        9.405      727.364      154.530        0.045      337.050        8.760      858.986
02/08/2014  15:26:00     -547.377     -261.532      -11.835      360.707      291.520      142.712   130109.865    84984.174    20366.764       30.176       11.773      606.647      178.559        0.087      337.185        8.986      858.974
02/08/2014  15:27:00     -682.286     -245.618      -26.661      342.982      310.506      134.635   117636.360    96413.880    18126.703       37.932       11.609      725.150      146.584        0.041      337.129        8.892      858.937
02/08/2014  15:28:00     -486.746     -207.729       -4.945      342.035      249.728      139.652   116987.958    62364.237    19502.624       23.944        9.943      529.219      155.811        0.087      337.100        8.841      858.940
02/08/2014  15:29:00     -536.476     -225.350      -12.731      297.357      291.018      141.332    88421.147    84691.451    19974.771       26.588        9.654      581.884      158.911        0.075      337.113        8.865      858.913
02/08/2014  15:30:00     -484.951     -339.762      -18.264      296.238      269.072      145.441    87756.954    72399.825    21153.146       26.609        9.065      592.128      158.124        0.071      337.083        8.814      858.856
02/08/2014  15:31:00     -561.633     -320.123      -24.384      262.962      217.386      125.694    69148.786    47256.660    15799.052       27.533        6.610      646.460      112.222        0.030      337.058        8.772      858.848
02/08/2014  15:32:00     -460.298     -246.327       -2.269      263.133      249.219      113.992    69239.114    62110.250    12994.199       20.842        7.217      522.065      122.795        0.055      337.068        8.788      858.849
02/08/2014  15:33:00     -502.575     -335.838      -12.134      310.979      219.122      141.327    96708.119    48014.273    19973.417       26.507        8.235      604.458      156.260        0.067      337.048        8.755      858.767
02/08/2014  15:34:00     -397.286     -310.535        5.265      295.570      240.232      126.079    87361.689    57711.617    15895.924       20.760        8.048      504.251      153.574        0.093      337.034        8.731      858.711
02/08/2014  15:35:00     -494.846     -178.305       12.239      322.164      282.264      140.403   103789.879    79673.120    19713.066       23.995       10.159      525.990      150.316        0.082      337.042        8.744      858.661
02/08/2014  15:36:00     -493.734     -250.625        0.518      417.930      305.410      145.149   174665.174    93275.123    21068.200       29.774       14.450      553.702      183.818        0.110      337.047        8.754      858.583
02/08/2014  15:37:00     -667.791     -242.682      -34.005      381.460      295.737      166.122   145511.514    87460.441    27596.372       38.323       13.028      710.521      184.357        0.067      337.062        8.779      858.562
02/08/2014  15:38:00     -521.060     -190.203      -15.960      294.419      279.956      137.753    86682.347    78375.401    18975.934       24.595        9.202      554.690      160.825        0.084      337.066        8.785      858.597
02/08/2014  15:39:00     -672.489     -306.509      -42.453      295.668      264.024      127.980    87419.456    69708.778    16378.784       36.071        8.675      739.046      130.253        0.031      337.066        8.785      858.619
02/08/2014  15:40:00     -482.791     -322.024      -11.548      281.709      276.084      130.741    79360.005    76222.146    17093.148       25.476        8.634      580.333      148.048        0.065      337.080        8.810      858.611
02/08/2014  15:41:00     -502.289     -178.924      -30.889      354.788      285.117      145.753   125874.469    81291.728    21243.842       25.679       11.421      533.206      166.325        0.097      337.059        8.773      858.571
02/08/2014  15:42:00     -452.315     -226.235       -4.337      237.691      236.827      125.921    56496.792    56087.193    15855.985       19.209        6.422      505.738      127.922        0.064      337.057        8.769      858.596
02/08/2014  15:43:00     -453.095     -194.104       -3.410      404.855      276.013      159.928   163907.262    76182.925    25577.117       25.427       13.283      492.921      188.856        0.147      337.110        8.859      858.622
02/08/2014  15:44:00     -306.616      -89.516        5.657      280.170      169.553       94.542    78495.296    28748.254     8938.224       10.910        5.809      319.416       86.330        0.073      337.121        8.877      858.681
02/08/2014  15:45:00     -468.922     -279.406        3.829      320.588      304.391      153.160   102776.596    92653.691    23458.139       25.838       10.944      545.853      155.822        0.081      337.088        8.821      858.671
02/08/2014  15:46:00     -549.552      -89.286      -14.643      301.050      245.825      122.553    90631.072    60429.764    15019.284       23.810        8.304      556.758      135.823        0.060      337.087        8.821      858.731
02/08/2014  15:47:00     -486.924     -120.718       -8.154      256.509      241.284      134.016    65797.013    58217.932    17960.329       19.683        7.099      501.665      141.170        0.079      337.085        8.817      858.727
02/08/2014  15:48:00     -499.520     -141.008      -18.597      282.006      275.892      145.792    79527.261    76116.254    21255.444       22.329        8.845      519.041      160.354        0.095      337.104        8.849      858.721
02/08/2014  15:49:00     -559.071     -212.050      -22.463      388.328      278.329      165.227   150798.550    77466.815    27299.971       30.675       12.778      597.934      195.531        0.107      337.107        8.854      858.716
02/08/2014  15:50:00     -581.496     -253.143       11.415      365.714      289.456      173.798   133746.370    83784.819    30205.573       32.499       12.387      634.207      184.360        0.085      337.121        8.878      858.709
02/08/2014  15:51:00     -823.515     -271.425      -43.155      415.138      273.924      129.469   172339.331    75034.600    16762.302       50.887       13.207      867.091      166.418        0.037      337.116        8.871      858.752
02/08/2014  15:52:00     -665.298      -72.090      -46.989      327.900      248.459      138.622   107518.686    61732.090    19216.014       31.921        9.423      669.192      161.022        0.058      337.136        8.902      858.767
02/08/2014  15:53:00     -449.924     -169.626       -8.420      280.975      227.536      119.414    78946.793    51772.564    14259.810       18.810        7.249      480.837      103.273        0.046      337.154        8.934      858.796
02/08/2014  15:54:00     -486.775     -359.429       -8.327      316.195      256.931      138.459    99979.098    66013.496    19170.836       27.565        9.258      605.094      147.964        0.060      337.156        8.937      858.846
02/08/2014  15:55:00     -580.077     -163.478      -17.150      338.537      249.258      144.808   114607.112    62129.634    20969.393       28.057        9.885      602.672      181.086        0.090      337.208        9.025      858.856
02/08/2014  15:56:00     -526.391     -270.591       13.238      326.047      255.122      147.556   106306.360    65087.316    21772.795       27.179        9.658      591.868      154.649        0.068      337.218        9.041      858.854
02/08/2014  15:57:00     -424.620     -267.577       -0.690      325.828      224.698      150.899   106164.168    50489.365    22770.636       21.563        8.971      501.896      164.118        0.107      337.213        9.033      858.826
02/08/2014  15:58:00     -643.146     -290.404      -26.026      337.322      248.926      140.328   113786.200    61964.320    19691.905       34.701        9.772      705.671      155.185        0.048      337.154        8.935      858.866
02/08/2014  15:59:00     -513.481     -184.310      -35.412      322.434      291.470      125.071   103963.943    84954.703    15642.727       25.168       10.228      545.557      135.129        0.061      337.105        8.850      858.862
02/08/2014  16:00:00     -578.981     -269.355      -15.876      355.241      272.029      137.855   126196.510    73999.954    19003.973       31.357       10.960      638.569      178.065        0.078      337.097        8.839      858.919
02/08/2014  16:01:00     -453.095     -296.701       11.594      354.283      299.242      160.923   125516.131    89545.715    25896.255       26.716       12.048      541.597      181.723        0.113      337.138        8.906      858.901
02/08/2014  16:02:00     -422.402     -125.641       19.244      369.683      257.504      153.491   136665.566    66308.548    23559.549       21.051       11.327      440.692      180.890        0.168      337.122        8.879      858.893
02/08/2014  16:03:00     -482.296     -186.698      -11.602      317.358      225.373      116.669   100716.328    50793.150    13611.760       21.633        8.256      517.171      143.056        0.077      337.067        8.786      858.919
02/08/2014  16:04:00     -502.628     -251.687        3.971      371.353      239.403      143.974   137903.247    57313.862    20728.644       26.593       10.797      562.122      169.784        0.091      337.075        8.801      858.950
02/08/2014  16:05:00     -491.819     -292.472      -18.962      350.732      259.023      150.475   123013.228    67093.138    22642.617       27.023       10.637      572.212      183.628        0.103      337.113        8.863      858.991
02/08/2014  16:06:00     -455.382     -100.875      -21.450      301.305      192.802      137.505    90784.528    37172.436    18907.612       18.241        7.343      466.421      168.682        0.131      337.124        8.883      858.946
02/08/2014  16:07:00     -774.860     -179.216      -48.331      317.520      257.902      127.903   100818.936    66513.636    16359.184       40.924        9.185      795.315      145.899        0.034      337.086        8.818      858.940
02/08/2014  16:08:00     -463.899     -222.666      -21.285      338.901      183.674      118.225   114853.586    33736.080    13977.078       21.387        8.128      514.570      152.656        0.088      337.104        8.848      858.974
02/08/2014  16:09:00     -722.938     -157.908      -42.098      316.572      209.579      125.175   100217.729    43923.268    15668.809       35.455        7.990      739.983      118.079        0.025      337.086        8.819      858.960
02/08/2014  16:10:00     -361.432     -138.321       -3.099      265.380      194.362      115.798    70426.418    37776.457    13409.292       13.567        6.081      386.996      115.121        0.088      337.129        8.893      858.930
02/08/2014  16:11:00     -382.471     -103.699       -0.710      208.771      204.685       98.450    43585.264    41896.114     9692.500       12.609        4.759      396.280       99.354        0.063      337.109        8.857      858.930
02/08/2014  16:12:00     -418.315     -204.863        3.159      292.985      253.185      131.417    85840.303    64102.579    17270.485       19.206        8.361      465.786      139.678        0.090      337.146        8.920      858.868
02/08/2014  16:13:00     -553.599      -92.922      -26.704      309.049      243.613      121.191    95511.299    59347.155    14687.174       24.265        8.477      561.344      143.283        0.065      337.140        8.911      858.905
02/08/2014  16:14:00     -591.459     -220.616      -27.015      371.961      265.809      140.807   138355.076    70654.566    19826.652       31.398       11.442      631.265      178.016        0.080      337.126        8.886      858.854
02/08/2014  16:15:00     -610.082     -109.286      -12.574      296.768      236.899      138.304    88071.428    56120.995    19128.104       27.378        8.166      619.793      159.255        0.066      337.086        8.819      858.899
02/08/2014  16:16:00     -494.922     -230.908      -18.916      287.408      258.222      107.035    82603.454    66678.535    11456.388       22.965        8.037      546.138      118.997        0.047      337.086        8.820      858.916
02/08/2014  16:17:00     -575.590     -252.148      -40.015      215.380      195.210       99.942    46388.696    38107.053     9988.409       24.547        4.724      628.397       87.036        0.019      337.087        8.821      858.966
02/08/2014  16:18:00     -637.739     -118.684      -19.715      406.740      256.108      159.817   165437.333    65591.337    25541.467       33.883       12.829      648.689      181.015        0.078      337.090        8.826      859.010
02/08/2014  16:19:00     -727.179     -154.450      -40.035      380.287      222.629      149.630   144618.460    49563.884    22389.218       38.537       10.829      743.401      165.213        0.049      337.049        8.756      859.028
02/08/2014  16:20:00     -488.622     -190.271       -6.580      307.936      204.651      121.674    94824.717    41882.134    14804.510       21.322        7.576      524.361      117.662        0.050      337.024        8.714      859.037
02/08/2014  16:21:00     -654.656     -101.885      -37.466      305.127      251.648      132.009    93102.435    63326.849    17426.465       30.707        8.693      662.537      144.235        0.047      337.014        8.697      859.030
02/08/2014  16:22:00     -388.511     -212.289        3.439      375.674      233.634      146.923   141130.579    54584.978    21586.431       20.662       10.865      442.728      181.678        0.168      337.033        8.731      858.978
02/08/2014  16:23:00     -355.210     -249.862       -7.945      382.643      263.200      165.004   146415.974    69274.082    27226.420       21.574       12.146      434.287      184.930        0.181      337.002        8.678      858.968
02/08/2014  16:24:00     -352.539     -135.747       -9.298      213.463      189.141      107.177    45566.524    35774.204    11486.983       11.779        4.641      377.771      107.250        0.081      336.993        8.663      858.992
02/08/2014  16:25:00     -564.955     -254.280      -12.634      317.495      271.728      130.711   100803.233    73835.918    17085.322       28.782        9.586      619.542      147.663        0.057      336.979        8.639      858.982
02/08/2014  16:26:00     -574.470     -285.006       -9.661      298.968      246.846      133.111    89381.821    60932.894    17718.582       28.965        8.402      641.284      138.967        0.047      336.985        8.650      858.972
02/08/2014  16:27:00     -408.234     -219.132       11.539      323.834      266.535      136.944   104868.630    71040.988    18753.765       20.470        9.733      463.329      155.773        0.113      336.977        8.637      859.002
02/08/2014  16:28:00     -446.709     -168.135       -8.799      332.990      257.140      134.082   110882.204    66120.725    17978.041       21.140        9.749      477.303      155.802        0.107      336.975        8.634      859.017
02/08/2014  16:29:00     -345.617     -167.515       16.051      399.113      226.779      132.500   159290.972    51428.917    17556.326       18.798       11.414      384.073      170.979        0.198      336.976        8.636      859.072
02/08/2014  16:30:00     -642.696     -152.607      -21.727      414.440      297.921      150.956   171760.691    88756.822    22787.804       36.001       14.165      660.566      186.564        0.080      336.955        8.601      859.109
02/08/2014  16:31:00     -651.806     -267.196      -34.431      342.848      316.403      133.133   117544.727   100110.770    17724.282       36.636       11.769      704.446      130.741        0.034      336.912        8.529      859.102
02/08/2014  16:32:00     -496.879     -173.308       -3.628      277.523      256.720      126.349    77018.851    65905.106    15964.165       21.788        7.944      526.236      133.580        0.064      336.892        8.494      859.107
02/08/2014  16:33:00     -372.074     -143.713        2.732      323.565      211.902      123.757   104694.145    44902.276    15315.686       16.197        8.246      398.864      152.126        0.145      336.867        8.453      859.091
02/08/2014  16:34:00     -542.740     -279.993      -43.682      383.402      243.772      145.347   146996.825    59424.639    21125.615       30.116       11.377      610.707      176.542        0.084      336.856        8.435      859.082
02/08/2014  16:35:00     -466.560     -238.696      -15.409      373.636      299.260      161.890   139603.686    89556.810    26208.244       26.508       12.768      524.075      187.743        0.128      336.859        8.441      859.010
02/08/2014  16:36:00     -553.117     -155.140       -1.375      341.038      267.289      145.118   116307.098    71443.333    21059.287       26.937       10.440      574.463      159.593        0.077      336.857        8.437      859.019
02/08/2014  16:37:00     -496.189     -124.673       -7.985      276.679      273.751      104.759    76551.110    74939.596    10974.427       21.211        8.123      511.612      119.854        0.055      336.840        8.408      858.980
02/08/2014  16:38:00     -610.462     -333.310      -14.212      326.685      219.535      116.468   106722.921    48195.808    13564.705       32.619        8.424      695.528      126.959        0.033      336.860        8.442      858.898
02/08/2014  16:39:00     -526.395     -289.096       -3.666      307.555      260.280      125.495    94589.963    67745.445    15748.902       26.935        8.904      600.557      129.370        0.046      336.834        8.397      858.852
02/08/2014  16:40:00     -230.842      -75.551       12.175      293.261      210.423      130.981    86001.987    44277.920    17155.972       10.326        7.372      242.891      111.560        0.211      336.874        8.466      858.780
02/08/2014  16:41:00     -533.225     -250.023      -21.999      320.821      306.461      137.680   102925.903    93918.633    18955.680       28.152       10.790      588.931      145.315        0.061      336.872        8.461      858.764
02/08/2014  16:42:00     -561.525     -245.871      -12.466      269.445      231.321      119.087    72600.507    53509.596    14181.804       25.808        7.015      612.995      126.764        0.043      336.849        8.424      858.802
02/08/2014  16:43:00     -603.798     -186.698       -8.248      365.326      256.257      144.852   133463.041    65667.502    20982.011       30.976       11.006      632.003      183.147        0.084      336.860        8.442      858.782
02/08/2014  16:44:00     -425.984     -215.416      -10.250      287.030      201.279      138.666    82386.231    40513.220    19228.332       18.502        7.106      477.353      122.728        0.066      336.831        8.392      858.721
02/08/2014  16:45:00     -569.342     -362.328      -38.171      318.932      226.218      143.628   101717.823    51174.533    20629.134       31.517        8.676      674.857      170.680        0.064      336.798        8.339      858.749
02/08/2014  16:46:00     -428.152     -152.616       -2.158      344.503      258.164      149.002   118682.322    66648.889    22201.663       20.703       10.377      454.539      181.772        0.160      336.806        8.350      858.751
02/08/2014  16:47:00     -557.211     -205.969      -14.843      276.804      202.984      115.327    76620.460    41202.607    13300.218       24.210        6.556      594.060      128.346        0.047      336.783        8.313      858.759
02/08/2014  16:48:00     -484.005     -239.729       11.974      296.989      224.744      126.332    88202.205    50509.979    15959.826       22.324        7.734      540.121      150.009        0.077      336.779        8.307      858.804
02/08/2014  16:49:00     -345.676     -159.901       -9.966      255.592      233.025      123.544    65327.260    54300.588    15263.141       14.000        6.745      380.868      131.019        0.118      336.796        8.335      858.825
02/08/2014  16:50:00     -484.469     -202.484       -6.911      282.770      247.154      115.964    79958.923    61084.935    13447.689       21.509        7.725      525.081      120.014        0.052      336.809        8.356      858.848
02/08/2014  16:51:00     -451.784     -300.308       -9.291      236.821      243.775      127.686    56084.354    59426.038    16303.681       21.307        6.591      542.489      125.919        0.054      336.812        8.360      858.872
02/08/2014  16:52:00     -469.144     -161.556      -34.746      296.957      228.115      108.722    88183.479    52036.362    11820.432       19.969        7.602      496.181      129.635        0.068      336.831        8.393      858.844
02/08/2014  16:53:00     -587.274     -159.311      -13.025      259.879      278.603      117.551    67536.904    77619.777    13818.337       26.468        7.949      608.499      126.339        0.043      336.803        8.348      858.765
02/08/2014  16:54:00     -330.205     -240.901        0.529      240.759      206.223      135.824    57965.044    42527.880    18448.030       14.298        5.947      408.740      152.564        0.139      336.843        8.412      858.736
02/08/2014  16:55:00     -580.844     -198.244      -21.762      377.278      178.985      114.857   142338.943    32035.555    13192.135       28.232        9.378      613.743      141.270        0.053      336.836        8.401      858.765
02/08/2014  16:56:00     -504.058     -269.713      -25.838      304.785      227.564      121.142    92894.003    51785.301    14675.393       24.339        7.968      571.681      141.306        0.061      336.853        8.429      858.752
02/08/2014  16:57:00     -535.759     -275.989      -31.773      304.943      231.597      128.010    92990.427    53637.076    16386.484       26.358        8.151      602.667      146.755        0.059      336.902        8.512      858.753
02/08/2014  16:58:00     -493.882     -239.801      -23.721      274.429      210.697      115.090    75311.348    44393.067    13245.604       21.744        6.648      549.021      131.572        0.057      336.940        8.575      858.760
02/08/2014  16:59:00     -317.147     -117.593       -8.717      230.238      209.664      104.238    53009.746    43958.802    10865.466       11.114        5.392      338.246      115.322        0.116      336.969        8.624      858.740
02/08/2014  17:00:00     -320.866      -98.173      -12.157      271.698      222.485      103.971    73819.590    49499.693    10809.963       12.341        6.706      335.549      108.510        0.105      336.976        8.635      858.755
02/08/2014  17:01:00     -540.420      -99.720      -20.866      307.269      229.740      107.899    94413.953    52780.247    11642.236       23.060        7.942      549.543      132.939        0.059      337.042        8.746      858.706
02/08/2014  17:02:00     -398.531     -328.920      -29.938      235.953      201.502      108.001    55673.817    40603.173    11664.116       18.790        5.397      516.735      122.181        0.056      337.015        8.700      858.702
02/08/2014  17:03:00     -406.448     -222.207      -12.148      211.023      207.076      105.533    44530.543    42880.338    11137.175       15.662        4.927      463.224      100.854        0.047      337.006        8.686      858.760
02/08/2014  17:04:00     -490.391     -195.399       -7.150      241.453      232.020       93.163    58299.693    53833.420     8679.291       19.974        6.041      527.887      113.250        0.046      336.986        8.651      858.769
02/08/2014  17:05:00     -413.882     -284.644        5.814      329.120      239.080      153.184   108319.713    57159.336    23465.209       22.061        9.447      502.315      167.604        0.111      337.018        8.703      858.790
02/08/2014  17:06:00     -422.773     -197.471        3.414      331.419      266.695      134.466   109838.549    71126.229    18081.054       20.836        9.952      466.618      162.168        0.121      337.029        8.724      858.887
02/08/2014  17:07:00     -420.292     -232.055        8.282      280.807      201.410      117.199    78852.702    40565.884    13735.599       18.183        6.658      480.099      135.833        0.080      337.033        8.730      858.984
02/08/2014  17:08:00     -505.107     -237.255      -21.250      278.979      221.266      120.571    77829.183    48958.567    14537.446       22.657        7.066      558.052      127.375        0.052      337.008        8.688      859.010
02/08/2014  17:09:00     -647.868     -361.967      -35.851      296.473      236.803      132.174    87895.945    56075.514    17469.845       35.671        8.072      742.127      129.229        0.030      337.062        8.779      859.038
02/08/2014  17:10:00     -432.655     -115.132        1.475      313.243      239.164      125.162    98120.964    57199.564    15665.416       18.568        8.549      447.711      145.546        0.106      337.108        8.857      859.092
02/08/2014  17:11:00     -481.167      -89.950      -20.361      263.858      223.360      118.596    69620.833    49889.558    14064.899       18.677        6.679      489.502      120.362        0.060      337.117        8.870      859.118
02/08/2014  17:12:00     -428.753     -129.707       -9.642      315.168      204.184      116.853    99330.726    41690.993    13654.509       17.768        7.734      447.943      135.323        0.091      337.158        8.940      859.174
02/08/2014  17:13:00     -299.999      -56.445       17.523      260.639      194.547      111.613    67932.490    37848.655    12457.350       10.584        5.912      305.263      120.410        0.156      337.154        8.935      859.181
02/08/2014  17:14:00     -475.714     -233.959      -11.628      316.092      166.177      109.759    99914.121    27614.824    12047.008       21.035        6.979      530.132      113.130        0.046      337.170        8.960      859.166
02/08/2014  17:15:00     -419.424     -258.071       -7.564      262.229      205.709      118.131    68763.893    42316.318    13954.860       18.378        6.252      492.460      125.693        0.065      337.189        8.992      859.177
02/08/2014  17:16:00     -615.641     -257.396      -35.344      210.144      157.901      110.506    44160.581    24932.589    12211.534       26.389        4.065      667.283      100.453        0.023      337.207        9.023      859.204
02/08/2014  17:17:00     -508.252     -133.900      -32.287      226.332      251.913      127.252    51226.267    63460.403    16193.192       20.406        6.544      525.594      115.344        0.048      337.273        9.134      859.193
02/08/2014  17:18:00     -455.448     -152.147        8.921      297.052      254.844      121.604    88239.851    64945.712    14787.621       19.928        8.399      480.190      138.092        0.083      337.240        9.078      859.191
02/08/2014  17:19:00     -539.896     -175.675      -36.128      369.275      246.602      152.528   136364.242    60812.517    23264.747       27.200       11.022      567.759      187.544        0.109      337.257        9.105      859.170
02/08/2014  17:20:00     -510.844      -96.252      -19.888      375.054      230.867      131.974   140665.607    53299.419    17417.109       24.096       10.569      519.832      154.780        0.089      337.282        9.150      859.166
02/08/2014  17:21:00     -465.539     -183.497      -23.547      296.884      270.168      144.293    88140.010    72990.947    20820.601       21.642        9.098      500.398      158.322        0.100      337.272        9.133      859.146
02/08/2014  17:22:00     -361.914     -107.002       -8.621      245.189      245.342      110.554    60117.666    60192.622    12222.120       13.749        6.627      377.401      104.797        0.077      337.268        9.124      859.252
02/08/2014  17:23:00     -522.804     -228.635      -33.572      368.568      231.182      142.390   135842.197    53445.183    20275.054       26.810       10.478      570.612      159.207        0.078      337.241        9.079      859.230
02/08/2014  17:24:00     -398.474     -209.916       -9.646      234.562      209.755      111.232    55019.142    43997.056    12372.520       15.714        5.569      450.384      127.461        0.080      337.258        9.109      859.301
02/08/2014  17:25:00     -479.011     -197.460      -32.636      363.701      208.368      104.406   132278.282    43417.154    10900.619       22.801        9.330      518.114      131.238        0.064      337.273        9.134      859.385
02/08/2014  17:26:00     -728.447     -270.606      -45.383      374.074      211.177      126.169   139931.106    44595.664    15918.679       40.314       10.022      777.086      174.690        0.051      337.255        9.103      859.390
02/08/2014  17:27:00     -414.692     -189.628       -4.710      266.319      226.032      122.249    70925.959    51090.585    14944.733       17.243        6.848      455.991      130.161        0.081      337.200        9.010      859.414
02/08/2014  17:28:00     -423.678     -308.100      -14.317      282.782      210.601      111.384    79965.506    44352.657    12406.455       20.565        6.836      523.859      124.318        0.056      337.123        8.882      859.402
02/08/2014  17:29:00     -444.434     -285.514      -14.216      285.561      208.441      113.562    81545.018    43447.511    12896.299       20.854        6.894      528.243      122.327        0.054      337.042        8.746      859.390
02/08/2014  17:30:00     -459.649     -281.196      -31.969      371.823      271.653      127.364   138252.025    73795.316    16221.632       25.977       11.413      538.840      163.570        0.092      337.012        8.696      859.342
02/08/2014  17:31:00     -425.992     -284.406       -5.879      323.407      270.470      144.431   104591.860    73153.912    20860.275       23.046        9.930      512.207      178.378        0.121      336.985        8.649      859.353
02/08/2014  17:32:00     -671.079     -347.375       -4.838      379.139      352.913      169.126   143746.295   124547.770    28603.560       43.391       14.845      755.657      184.876        0.060      336.981        8.645      859.321
02/08/2014  17:33:00     -501.077     -301.781        1.665      360.756      278.081      148.379   130144.546    77329.178    22016.460       28.578       11.475      584.936      175.575        0.090      336.951        8.593      859.348
02/08/2014  17:34:00     -404.889     -227.419       -6.668      288.358      258.257      121.580    83150.326    66696.838    14781.662       19.013        8.231      464.386      132.986        0.082      336.922        8.545      859.436
02/08/2014  17:35:00     -550.436     -353.512      -41.727      266.812      205.534      117.753    71188.813    42244.203    13865.742       27.847        6.365      654.180      138.272        0.045      336.889        8.489      859.437
02/08/2014  17:36:00     -439.182     -196.058        2.932      293.456      218.569      109.740    86116.557    47772.462    12042.854       18.860        7.297      480.957      112.268        0.054      336.860        8.443      859.473
02/08/2014  17:37:00     -477.309     -236.060      -14.689      282.313      188.925      111.470    79700.566    35692.537    12425.672       20.577        6.391      532.493      127.905        0.058      336.855        8.433      859.548
02/08/2014  17:38:00     -407.356     -245.772       16.623      296.793      250.544      135.670    88086.077    62772.541    18406.311       19.791        8.463      475.755      151.499        0.101      336.823        8.381      859.543
02/08/2014  17:39:00     -291.972     -103.544       28.386      320.705      209.391      112.249   102851.609    43844.636    12599.793       12.800        7.965      309.788      144.864        0.219      336.803        8.347      859.572
02/08/2014  17:40:00     -385.298     -249.974       -0.835      256.777      208.816      113.576    65934.589    43604.038    12899.613       16.667        6.122      459.283      138.132        0.090      336.780        8.308      859.586
02/08/2014  17:41:00     -435.993     -261.674      -26.172      200.774      193.956      104.624    40310.108    37619.064    10946.168       17.404        4.444      508.491      102.539        0.041      336.754        8.266      859.653
02/08/2014  17:42:00     -488.498     -370.680      -10.484      242.633      217.304      130.693    58870.754    47221.188    17080.635       24.963        6.159      613.216      141.119        0.053      336.751        8.260      859.601
02/08/2014  17:43:00     -400.323     -156.142      -16.365      233.040      155.272       84.772    54307.420    24109.399     7186.256       13.524        4.280      429.696       89.740        0.044      336.715        8.200      859.559
02/08/2014  17:44:00     -446.532     -236.972      -11.925      257.388      187.107       96.432    66248.722    35009.017     9299.075       18.310        5.528      505.516      117.668        0.054      336.731        8.225      859.616
02/08/2014  17:45:00     -309.499     -261.222       11.634      209.842      172.347      106.055    44033.809    29703.634    11247.766       12.456        4.249      405.002      108.799        0.072      336.742        8.245      859.703
02/08/2014  17:46:00     -419.544     -269.449       -3.569      226.057      145.527       99.549    51101.817    21178.153     9909.909       16.539        4.109      498.618      105.350        0.045      336.742        8.245      859.731
02/08/2014  17:47:00     -408.363     -280.478       -4.900      220.277      157.651      103.734    48521.973    24853.927    10760.713       16.478        4.207      495.407      107.812        0.047      336.763        8.280      859.686
02/08/2014  17:48:00     -445.439     -291.426       -7.066      224.725      203.583      106.485    50501.363    41446.143    11338.992       19.332        5.164      532.302      109.645        0.042      336.752        8.261      859.786
02/08/2014  17:49:00     -323.279     -290.412       15.410      263.563      185.395      114.886    69465.210    34371.297    13198.726       15.304        5.852      434.567      138.615        0.102      336.783        8.313      859.818
02/08/2014  17:50:00     -404.726     -261.380       -4.414      217.086      173.861      108.417    47126.318    30227.686    11754.304       16.061        4.455      481.791      112.311        0.054      336.788        8.323      859.833
02/08/2014  17:51:00     -337.586     -285.377        3.538      239.713      166.506      105.933    57462.444    27724.266    11221.767       14.589        4.820      442.045      125.041        0.080      336.827        8.385      859.864
02/08/2014  17:52:00     -342.444     -248.929      -12.401      215.195      158.812       92.235    46309.037    25221.265     8507.315       12.970        4.002      423.360      106.403        0.063      336.847        8.420      859.912
02/08/2014  17:53:00     -356.277     -244.994       -0.397      241.856      178.080      111.781    58494.195    31712.508    12495.028       14.481        5.135      432.383      123.786        0.082      336.869        8.456      859.933
02/08/2014  17:54:00     -290.159     -167.500       12.560      218.437      191.559      110.375    47714.562    36694.952    12182.564       10.448        4.830      335.036      124.881        0.139      336.879        8.473      859.956
02/08/2014  17:55:00     -278.407     -185.553       -1.434      165.325      133.874       82.152    27332.425    17922.371     6749.008        8.196        2.600      334.575       78.529        0.055      336.908        8.522      859.971
02/08/2014  17:56:00     -401.247     -258.420       -5.467      221.165      171.762       99.793    48913.925    29502.279     9958.645       15.807        4.419      477.263      120.036        0.063      336.919        8.541      859.982
02/08/2014  17:57:00     -434.281     -244.113      -25.251      257.630      188.885       96.080    66373.286    35677.478     9231.428       18.003        5.564      498.188      112.582        0.051      336.914        8.533      859.893
02/08/2014  17:58:00     -430.228     -316.079       -6.218      280.194      200.992      109.066    78508.840    40397.965    11895.399       20.790        6.540      533.856      123.189        0.053      336.974        8.632      859.896
02/08/2014  17:59:00     -555.543     -213.336      -11.865      316.079      205.501      102.922    99906.115    42230.574    10592.927       25.347        7.636      595.096      115.170        0.037      336.947        8.586      859.940
02/08/2014  18:00:00     -438.793     -248.872      -18.072      232.109      188.404      110.862    53874.656    35496.011    12290.373       17.821        5.083      504.457      126.659        0.063      336.946        8.586      859.914
02/08/2014  18:01:00     -396.683     -173.156        2.621      172.442      175.612       85.871    29736.177    30839.721     7373.805       12.763        3.397      432.828       93.326        0.046      336.902        8.512      859.975
02/08/2014  18:02:00     -535.475     -245.022      -26.836      287.740      157.662      104.494    82794.358    24857.345    10918.986       23.301        5.929      588.871      112.532        0.037      336.928        8.555      859.945
02/08/2014  18:03:00     -360.795     -170.730       -7.285      190.733      240.031       99.462    36379.217    57614.773     9892.771       13.161        5.194      399.152       99.931        0.063      336.915        8.533      859.983
02/08/2014  18:04:00     -500.621     -266.032      -16.114      246.038      213.442      109.025    60534.607    45557.675    11886.547       21.979        5.899      566.916      119.615        0.045      336.935        8.567      859.990
02/08/2014  18:05:00     -270.739     -179.049       22.735      230.000      181.492       96.719    52900.044    32939.362     9354.588       10.052        4.760      324.589      112.330        0.120      336.943        8.580      860.043
02/08/2014  18:06:00     -314.591     -270.904        1.253      221.402      175.389      106.327    49018.781    30761.378    11305.496       13.170        4.554      415.158      119.181        0.082      336.933        8.564      860.066
02/08/2014  18:07:00     -518.162     -391.179      -21.235      234.572      222.770      143.271    55023.956    49626.324    20526.505       27.354        6.259      649.240      121.528        0.035      336.943        8.581      860.046
02/08/2014  18:08:00     -382.492     -271.062        6.290      228.648      195.097      122.283    52279.962    38062.861    14953.039       16.253        5.265      468.801      133.328        0.081      336.952        8.595      860.154
02/08/2014  18:09:00     -358.742     -156.201       18.413      264.741      170.336      104.161    70088.001    29014.344    10849.422       13.167        5.498      391.273      127.638        0.106      336.997        8.669      860.172
02/08/2014  18:10:00     -389.520     -228.403       -2.535      241.143      212.852      119.380    58149.763    45305.912    14251.696       16.078        5.885      451.546      135.135        0.090      336.986        8.654      860.139
02/08/2014  18:11:00     -451.417     -275.057      -13.606      199.186      176.469       85.735    39675.033    31141.132     7350.543       17.888        3.908      528.615       89.843        0.029      336.969        8.624      860.123
02/08/2014  18:12:00     -339.790     -142.597        3.997      194.576      171.188       96.520    37859.770    29305.215     9316.079       10.613        3.824      368.498       97.860        0.071      336.954        8.599      860.093
02/08/2014  18:13:00     -401.487     -277.418        9.945      249.167      207.766      132.965    62084.036    43166.637    17679.729       18.057        6.147      488.009      143.169        0.086      336.959        8.607      860.090
02/08/2014  18:14:00     -488.440     -197.094      -13.290      199.642      218.102       93.600    39856.828    47568.269     8760.912       18.687        4.809      526.707      101.774        0.037      336.914        8.532      860.111
02/08/2014  18:15:00     -389.706     -170.082      -18.433      208.966      167.565       90.164    43666.597    28078.109     8129.480       13.049        3.994      425.204       79.509        0.035      336.930        8.558      860.128
02/08/2014  18:16:00     -411.117     -226.809       10.936      251.989      203.013       94.455    63498.278    41214.472     8921.697       16.708        5.682      469.531      109.098        0.054      336.951        8.593      860.152
02/08/2014  18:17:00     -441.226     -215.370      -23.214      244.087      137.823       94.247    59578.471    18995.309     8882.407       16.451        4.373      490.984      103.497        0.044      336.935        8.566      860.146
02/08/2014  18:18:00     -321.679     -236.380        2.086      231.289      161.091       95.872    53494.669    25950.267     9191.349       12.398        4.432      399.190      105.583        0.070      336.913        8.530      860.142
02/08/2014  18:19:00     -385.367     -235.869      -17.847      196.447      147.180       84.225    38591.240    21661.823     7093.931       13.589        3.367      451.821       87.797        0.038      336.890        8.492      860.181
02/08/2014  18:20:00     -422.718     -298.237       -3.945      253.083      199.696      123.577    64051.187    39878.644    15271.346       19.340        5.960      517.336      133.630        0.067      336.887        8.488      860.217
02/08/2014  18:21:00     -432.952     -118.670      -31.748      255.231      262.487       98.813    65142.772    68899.336     9764.063       17.314        7.190      448.920       98.941        0.049      336.903        8.514      860.171
02/08/2014  18:22:00     -437.432     -293.305      -20.312      274.643      169.066      115.509    75428.581    28583.158    13342.267       19.755        5.868      526.663      128.567        0.060      336.925        8.550      860.091
02/08/2014  18:23:00     -485.870     -239.472      -27.817      173.448      165.457       84.318    30084.317    27375.861     7109.551       17.937        3.228      541.680       73.539        0.018      336.955        8.599      860.068
02/08/2014  18:24:00     -274.883     -174.490       17.728      238.633      220.890      116.278    56945.541    48792.197    13520.536       11.277        5.963      325.588      124.579        0.146      336.934        8.564      860.107
02/08/2014  18:25:00     -507.763      -93.141      -14.676      287.279      242.159       98.111    82529.201    58640.830     9625.842       20.873        7.540      516.235      119.826        0.054      336.957        8.604      860.165
02/08/2014  18:26:00     -279.728     -187.585       -4.806      168.163      148.674       79.698    28278.880    22103.991     6351.815        8.509        2.837      336.803       75.347        0.050      336.977        8.635      860.233
02/08/2014  18:27:00     -142.718     -144.820       -0.615      206.124      119.894       78.880    42487.075    14374.558     6221.985        5.220        3.154      203.326      103.124        0.257      336.975        8.636      860.289
02/08/2014  18:28:00     -231.635     -155.297       -4.118      159.572      118.624       71.810    25463.370    14071.539     5156.689        6.123        2.235      278.876       70.984        0.065      336.968        8.622      860.307
02/08/2014  18:29:00     -165.989     -156.741        8.798      183.367      141.412       89.052    33623.500    19997.429     7930.190        5.686        3.078      228.298      107.165        0.220      336.979        8.642      860.339
02/08/2014  18:30:00     -249.738     -160.411       14.304      224.519      179.335       89.670    50408.620    32161.178     8040.769        8.944        4.531      296.818      108.486        0.134      336.959        8.608      860.397
02/08/2014  18:31:00     -184.809     -149.767       18.193      192.517      225.690       75.279    37062.843    50935.848     5666.890        7.527        4.683      237.875       63.447        0.071      336.954        8.598      860.437
02/08/2014  18:32:00     -103.903     -183.399        5.268      110.510      114.833       55.969    12212.502    13186.697     3132.545        3.649        1.427      210.786       49.930        0.056      336.940        8.574      860.425
02/08/2014  18:33:00     -285.018     -123.593      -18.547      125.465       81.137       63.039    15741.377     6583.160     3973.855        6.157        1.315      310.662       58.418        0.035      336.912        8.528      860.460
02/08/2014  18:34:00     -248.112     -254.783        1.774      242.573      198.618       85.574    58841.456    39448.998     7322.864       11.602        5.281      355.632      105.626        0.088      336.946        8.585      860.484
02/08/2014  18:35:00     -121.323     -235.729       -1.774      130.735      131.591       63.177    17091.679    17316.111     3991.359        5.434        1.920      265.118       43.883        0.027      336.955        8.601      860.623
02/08/2014  18:36:00     -250.616     -269.406       14.204      250.461      194.934       98.163    62730.707    37999.224     9635.959       12.296        5.518      367.951      112.217        0.093      336.942        8.577      860.676
02/08/2014  18:37:00     -133.929     -112.549        2.788      132.149      120.345       57.409    17463.477    14482.844     3295.830        3.292        1.762      174.941       44.048        0.063      336.932        8.562      860.772
02/08/2014  18:38:00     -182.762     -154.234       16.977      182.067      155.610       73.849    33148.426    24214.595     5453.622        6.013        3.141      239.144       83.736        0.123      336.924        8.548      860.854
02/08/2014  18:39:00     -247.955     -232.595       -2.169      194.492      152.743       82.251    37827.190    23330.331     6765.249        9.174        3.396      339.974       74.590        0.048      336.912        8.529      860.837
02/08/2014  18:40:00     -226.388     -141.834       20.094      169.952      137.848       84.749    28883.565    19002.131     7182.315        6.341        2.753      267.149       89.174        0.111      336.878        8.472      860.826
02/08/2014  18:41:00     -191.522     -228.666        5.469      159.613      206.771       79.074    25476.158    42754.187     6252.688        8.173        3.724      298.277       72.910        0.060      336.903        8.514      860.840
02/08/2014  18:42:00      -73.593     -254.774      -22.589      199.471      182.446       58.242    39788.782    33286.465     3392.080        7.364        3.823      265.189       70.039        0.070      336.915        8.534      860.794
02/08/2014  18:43:00     -175.904     -198.064      -10.377      177.725      170.972       60.881    31586.145    29231.399     3706.523        6.739        3.226      264.899       77.323        0.085      336.871        8.460      860.842
02/08/2014  18:44:00        2.368     -302.260       -7.631      229.127      134.504       76.829    52499.027    18091.410     5902.714        8.394        3.825      302.270       81.957        0.074      336.913        8.530      860.880
02/08/2014  18:45:00     -152.207     -171.437      -19.387       91.801      133.843       48.977     8427.461    17913.946     2398.748        4.083        1.437      229.254       33.125        0.021      336.933        8.564      860.873
02/08/2014  18:46:00      -74.170     -162.161       -6.680      100.740       69.150       55.316    10148.611     4781.749     3059.847        2.491        0.900      178.318       29.208        0.027      336.888        8.488      860.898
02/08/2014  18:47:00      -54.574     -169.100       24.917      132.618      128.059       62.186    17587.560    16398.986     3867.051        3.502        1.893      177.688       47.144        0.070      336.873        8.463      860.871
02/08/2014  18:48:00      -89.707     -225.959      -24.597       75.781      139.678       46.228     5742.721    19509.903     2137.037        4.354        1.369      243.115       55.394        0.052      336.982        8.644      860.893
02/08/2014  18:49:00      -71.198     -104.988        6.609       76.067       51.310       42.006     5786.124     2632.715     1764.537        1.316        0.509      126.853       30.670        0.058      336.971        8.629      860.896
02/08/2014  18:50:00      -34.984     -157.562        0.586       77.899       95.311       42.423     6068.272     9084.112     1799.711        2.150        0.848      161.399       31.388        0.038      336.961        8.611      860.873
02/08/2014  18:51:00      -80.897     -325.358        7.663      107.634      172.389       63.672    11584.992    29717.935     4054.154        7.890        2.268      335.264       71.012        0.045      337.047        8.754      860.863
02/08/2014  18:52:00       -3.521     -185.862       -7.311      114.896       87.136       62.568    13201.067     7592.750     3914.781        2.965        1.235      185.895       52.545        0.080      337.079        8.809      860.852
02/08/2014  18:53:00      -34.670     -163.768       -5.420      117.449       93.354       59.675    13794.321     8714.970     3561.049        2.706        1.304      167.398       48.024        0.082      337.033        8.731      860.844
02/08/2014  18:54:00      -40.406     -133.712        1.243       75.342       89.635       48.822     5676.372     8034.487     2383.608        1.780        0.805      139.683       35.837        0.066      337.028        8.723      860.922
02/08/2014  18:55:00        6.366     -130.217       -4.886      103.976       78.151       48.812    10811.095     6107.576     2382.603        1.816        0.965      130.373       24.330        0.035      337.072        8.798      860.923
02/08/2014  18:56:00       77.861     -190.993       -9.239      127.348      134.008       81.493    16217.636    17958.092     6641.100        4.171        2.041      206.254       71.595        0.120      337.040        8.742      860.877
02/08/2014  18:57:00       52.472     -137.249      -20.673       68.837       72.625       45.893     4738.521     5274.440     2106.139        1.707        0.606      146.937       38.963        0.070      337.103        8.850      860.905
02/08/2014  18:58:00      -31.962      -99.286       -1.760       67.061       61.134       39.623     4497.221     3737.314     1569.985        1.034        0.490      104.304       35.361        0.115      337.058        8.774      860.881
02/08/2014  18:59:00     -105.669     -123.923      -11.215       78.734       51.430       35.682     6198.987     2645.056     1273.219        1.838        0.506      162.859       22.548        0.019      336.933        8.564      860.905
02/08/2014  19:00:00      -67.655     -111.024       -1.644       78.308       74.247       46.601     6132.102     5512.604     2171.617        1.536        0.691      130.014       51.642        0.158      336.905        8.519      860.933
02/08/2014  19:01:00      -42.935      -76.882       -6.648       60.718       46.493       36.281     3686.624     2161.562     1316.313        0.748        0.358       88.058       21.886        0.062      336.932        8.565      860.954
02/08/2014  19:02:00      -98.609     -125.693        4.138       65.458       96.857       43.255     4284.785     9381.190     1871.025        2.054        0.777      159.757       40.134        0.063      336.890        8.493      861.005
02/08/2014  19:03:00     -100.141     -148.074        1.724       71.816       73.869       38.240     5157.498     5456.676     1462.262        2.201        0.604      178.757       27.497        0.024      336.886        8.486      860.982
02/08/2014  19:04:00      -21.981      -20.401       -1.346       57.624       63.384       29.230     3320.575     4017.583      854.400        0.455        0.410       29.990       21.745        0.526      336.936        8.570      860.882
02/08/2014  19:05:00      -40.658      -76.918       11.780       75.098       56.022       33.666     5639.683     3138.440     1133.366        0.881        0.496       87.002       31.867        0.134      336.897        8.505      860.912
02/08/2014  19:06:00      -45.223      -86.042       -0.035       61.913       70.958       42.117     3833.231     5035.060     1773.857        1.004        0.532       97.202       30.281        0.097      336.913        8.533      860.926
02/08/2014  19:07:00      -70.114      -55.087        1.753       46.760       35.724       27.634     2186.520     1276.190      763.647        0.609        0.211       89.166       23.337        0.068      336.900        8.512      860.921
02/08/2014  19:08:00       24.706      -74.613        5.338       71.844       46.801       31.593     5161.522     2190.372      998.103        0.728        0.417       78.597       31.507        0.161      336.937        8.573      860.961
02/08/2014  19:09:00      -58.141      -27.545       -1.094       74.786       36.434       19.270     5592.897     1327.421      371.324        0.571        0.365       64.336       14.557        0.051      336.853        8.434      860.960
02/08/2014  19:10:00     -160.240     -114.867        7.087       70.688       72.305       51.504     4996.831     5227.991     2652.615        2.590        0.644      197.158       46.443        0.055      336.828        8.390      860.980
02/08/2014  19:11:00     -124.102     -151.571        7.492      122.109      120.972       49.117    14910.615    14634.267     2412.524        3.519        1.598      195.896       55.760        0.081      336.939        8.572      860.946
02/08/2014  19:12:00     -118.138     -106.555       18.026      127.050       95.020       58.690    16141.600     9028.754     3444.480        2.712        1.431      159.092       61.065        0.147      336.894        8.499      860.978
02/08/2014  19:13:00      -64.319      -52.739        7.065       76.864       66.820       45.833     5908.140     4464.874     2100.630        0.972        0.624       83.177       41.507        0.249      336.943        8.582      860.964
02/08/2014  19:14:00      -32.256      -96.092       -3.612       72.672       61.972       43.472     5281.289     3840.468     1889.811        1.065        0.551      101.361       32.211        0.101      336.965        8.619      860.964
02/08/2014  19:15:00      -52.083     -114.566      -11.932       58.411       68.667       42.742     3411.800     4715.137     1826.916        1.297        0.498      125.849       35.452        0.079      337.005        8.685      860.963
02/08/2014  19:16:00      -51.004      -55.964       21.440       66.832       62.421       54.803     4466.488     3896.393     3003.349        0.878        0.568       75.719       49.594        0.429      337.070        8.795      860.935
02/08/2014  19:17:00       -3.367      -86.066       14.843       73.000       73.064       63.767     5328.954     5338.395     4066.269        1.118        0.737       86.132       46.657        0.293      336.988        8.658      860.902
02/08/2014  19:18:00      -40.857      -82.232       24.476       75.339       77.630       51.437     5676.009     6026.424     2645.802        1.169        0.717       91.822       15.085        0.027      337.014        8.700      860.850
02/08/2014  19:19:00       32.722     -131.552       -2.997      105.650       76.882       66.493    11161.958     5910.877     4421.286        1.994        1.075      135.561       53.621        0.156      337.012        8.697      860.854
02/08/2014  19:20:00      -10.450       -4.033       94.176       81.104      130.387       84.878     6577.934    17000.791     7204.320        1.988        1.539       11.201       82.077       53.692      336.974        8.633      860.713
02/08/2014  19:21:00       16.868     -194.735       -6.096      134.633      200.059       70.992    18125.934    40023.541     5039.858        5.070        3.159      195.464       84.890        0.189      337.023        8.716      860.713
02/08/2014  19:22:00       33.164     -222.476      -27.360      160.619      148.235       95.633    25798.405    21973.736     9145.739        5.412        2.846      224.934       93.424        0.173      337.049        8.758      860.714
02/08/2014  19:23:00      -83.244     -101.855      -19.297       76.067       88.762       49.016     5786.198     7878.707     2402.561        1.687        0.803      131.544       44.321        0.114      337.039        8.743      860.775
02/08/2014  19:24:00      -94.202     -153.445       -4.519       75.693      120.347       42.886     5729.355    14483.280     1839.192        2.724        1.103      180.053       60.086        0.111      337.017        8.706      860.827
02/08/2014  19:25:00      -76.010      -91.144       -3.878       50.655       39.364       27.804     2565.921     1549.539      773.047        0.949        0.244      118.679       12.948        0.012      336.965        8.619      860.840
02/08/2014  19:26:00       67.597     -126.081        2.313      105.042       75.619       52.769    11033.839     5718.230     2784.561        2.000        0.977      143.058       36.929        0.067      337.074        8.801      860.762
02/08/2014  19:27:00      -44.518     -172.839        9.160      118.028      119.411       52.453    13930.579    14258.960     2751.344        3.143        1.547      178.480       58.946        0.109      337.066        8.788      860.706
02/08/2014  19:28:00      -62.362      -77.373       -7.553       64.424       61.782       34.371     4150.406     3817.048     1181.349        0.954        0.457       99.376       23.112        0.054      337.045        8.754      860.673
02/08/2014  19:29:00      -78.713     -102.440        5.365       54.195       37.278       28.749     2937.089     1389.681      826.515        1.093        0.258      129.188       20.653        0.026      336.918        8.541      860.669
02/08/2014  19:30:00     -111.169     -206.516       -0.886       79.865       75.450       37.780     6378.441     5692.650     1427.331        3.425        0.675      234.536       37.695        0.026      336.856        8.434      860.695
02/08/2014  19:31:00     -115.185     -194.329       -7.803       91.008      139.552       43.855     8282.407    19474.703     1923.252        4.038        1.484      225.901       47.802        0.045      336.908        8.523      860.716
02/08/2014  19:32:00     -110.986     -127.132        2.842       71.272       78.837       39.371     5079.745     6215.212     1550.105        2.066        0.642      168.762       33.419        0.039      336.887        8.488      860.667
02/08/2014  19:33:00       26.087      -90.667       -0.881       92.053       65.265       47.860     8473.718     4259.459     2290.612        1.196        0.751       94.345       37.357        0.157      337.011        8.696      860.651
02/08/2014  19:34:00        7.645      -27.262       22.451       55.078       55.941       31.172     3033.580     3129.363      971.716        0.422        0.357       28.314       28.163        0.989      336.963        8.617      860.629
02/08/2014  19:35:00      -23.824        4.763       12.032       52.989       38.161       28.909     2807.810     1456.278      835.730        0.292        0.255       24.295       28.876        1.413      336.910        8.528      860.600
02/08/2014  19:36:00      -20.212       -2.942       41.469       43.080       68.154       53.969     1855.870     4644.916     2912.706        0.577        0.471       20.425       51.650        6.395      336.922        8.548      860.553
02/08/2014  19:37:00      -12.353      -23.077       34.310       55.139       53.207       33.035     3040.342     2830.941     1091.314        0.441        0.348       26.175       25.981        0.985      336.977        8.640      860.559
02/08/2014  19:38:00       47.522     -144.253       14.823      127.630      127.298       72.900    16289.516    16204.837     5314.478        3.054        1.890      151.879       62.830        0.171      337.136        8.904      860.571
02/08/2014  19:39:00      -87.184     -141.925       -0.804      106.079      127.312       89.784    11252.776    16208.445     8061.115        3.163        1.776      166.564       78.137        0.220      337.012        8.694      860.492
02/08/2014  19:40:00       58.637     -183.969        0.795      126.837       92.393       72.247    16087.699     8536.438     5219.643        3.356        1.492      193.088       63.889        0.109      337.083        8.814      860.604
02/08/2014  19:41:00      -16.957      -66.215       10.975       75.455      107.323       75.734     5693.480    11518.275     5735.593        1.387        1.147       68.352       66.825        0.956      337.076        8.803      860.549
02/08/2014  19:42:00       15.622     -175.276      -32.882      100.367       78.141       64.224    10073.554     6106.025     4124.729        2.617        1.015      175.970       29.051        0.027      337.131        8.896      860.584
02/08/2014  19:43:00       53.171      -52.584       24.339       70.802       85.258       61.743     5012.883     7268.887     3812.166        1.114        0.805       74.781       58.292        0.608      337.140        8.912      860.591
02/08/2014  19:44:00       52.884      -69.359       41.186       78.111       93.342       62.689     6101.364     8712.808     3929.885        1.402        0.937       87.221       60.760        0.485      337.094        8.834      860.573
02/08/2014  19:45:00      -42.360      -40.944       58.200       55.248      113.569       73.446     3052.377    12897.930     5394.269        1.410        1.067       58.913       68.666        1.359      337.104        8.851      860.537
02/08/2014  19:46:00       14.400     -127.653      -19.313      135.535      123.231       83.030    18369.656    15185.973     6893.999        2.865        2.022      128.463       91.883        0.512      337.100        8.843      860.587
02/08/2014  19:47:00      -72.367      -59.100       -4.401       68.515       54.853       33.973     4694.352     3008.904     1154.162        0.880        0.443       93.433       17.741        0.036      336.975        8.637      860.614
02/08/2014  19:48:00      -30.304      -40.020        0.716       38.071       21.693       22.689     1449.411      470.568      514.809        0.248        0.122       50.199        8.240        0.027      337.057        8.773      860.732
02/08/2014  19:49:00      -89.314      -49.657      -13.396       53.885       39.375       23.209     2903.565     1550.393      538.679        0.781        0.250      102.190       18.086        0.031      336.984        8.651      860.815
02/08/2014  19:50:00      -26.407      -16.374       -1.432       42.266       32.345       17.723     1786.423     1046.169      314.101        0.206        0.157       31.071        9.682        0.097      336.966        8.621      860.849
02/08/2014  19:51:00      -26.944        2.821        0.134       32.274       26.100       25.272     1041.623      681.192      638.664        0.155        0.118       27.091       24.774        0.836      337.006        8.688      860.840
02/08/2014  19:52:00        8.351       10.669       23.553       42.427       30.566       21.404     1800.025      934.284      458.143        0.196        0.160       13.549       28.529        4.434      336.999        8.675      860.900
02/08/2014  19:53:00      -27.452      -13.881        7.157       20.398       27.939       20.428      416.061      780.574      417.308        0.131        0.081       30.762       19.508        0.402      337.026        8.721      860.914
02/08/2014  19:54:00      -31.812       32.350       52.163       28.115       46.218       48.696      790.450     2136.136     2371.313        0.504        0.265       45.371       18.753        0.171      336.998        8.674      860.910
02/08/2014  19:55:00       48.621     -107.307        7.065       76.985      100.991       84.279     5926.707    10199.150     7103.026        1.857        1.161      117.808       66.140        0.315      337.054        8.768      860.833
02/08/2014  19:56:00       15.283      -80.733       10.857       83.341       75.438       40.718     6945.765     5690.963     1657.934        1.058        0.715       82.167       38.046        0.214      337.060        8.776      860.916
02/08/2014  19:57:00      -11.052      -18.960       30.488       34.186       38.320       33.213     1168.692     1468.410     1103.089        0.257        0.187       21.946       29.699        1.831      337.079        8.810      860.991
02/08/2014  19:58:00      -20.659       -2.890       16.400       60.615       32.296       22.860     3674.143     1043.051      522.561        0.297        0.262       20.860       29.336        1.978      337.022        8.715      861.034
02/08/2014  19:59:00       55.972     -113.133       -2.541       92.487       57.743       39.032     8553.804     3334.231     1523.497        1.467        0.671      126.222       31.811        0.064      337.059        8.777      861.019
02/08/2014  20:00:00      -65.790      -60.064        1.431       74.490       70.776       37.383     5548.706     5009.225     1397.456        0.994        0.598       89.084       23.382        0.069      337.063        8.783      860.976
02/08/2014  20:01:00     -103.533      -93.524       15.654       73.802       48.483       33.177     5446.735     2350.596     1100.691        1.430        0.445      139.520       33.929        0.059      337.012        8.698      860.951
02/08/2014  20:02:00      -79.427      -83.692        4.823       65.053       74.180       32.148     4231.865     5502.707     1033.496        1.205        0.538      115.382       27.597        0.057      336.974        8.634      860.923
02/08/2014  20:03:00     -165.508     -133.787       -8.010       90.974       57.011       35.841     8276.243     3250.311     1284.583        2.908        0.641      212.819       31.261        0.022      336.977        8.638      860.937
02/08/2014  20:04:00     -146.882      -92.299        8.260       83.439       59.424       38.753     6962.016     3531.167     1501.776        2.108        0.600      173.475       40.281        0.054      336.947        8.589      860.976
02/08/2014  20:05:00     -143.353     -153.242       -3.382       86.418       93.551       39.055     7468.132     8751.749     1525.298        3.089        0.887      209.841       41.625        0.039      336.982        8.644      860.969
02/08/2014  20:06:00     -122.773     -120.691       11.455       92.279      107.932       44.644     8515.488    11649.345     1993.072        2.596        1.108      172.162       36.769        0.046      337.021        8.711      860.902
02/08/2014  20:07:00     -182.206     -122.916       -5.718       75.208       65.048       42.669     5656.317     4231.285     1820.672        3.002        0.585      219.789       36.171        0.027      337.022        8.712      860.900
02/08/2014  20:08:00      -73.277     -207.299        2.677       74.505       98.559       44.125     5550.942     9713.859     1946.991        3.278        0.861      219.869       41.557        0.036      337.098        8.840      860.934
02/08/2014  20:09:00     -129.727     -104.041       -0.407       55.937       62.546       29.862     3128.984     3912.029      891.735        1.779        0.397      166.294       23.814        0.021      337.163        8.951      860.892
02/08/2014  20:10:00      -72.527      -45.149        7.804       56.858       50.408       27.884     3232.839     2540.980      777.512        0.695        0.328       85.431       26.919        0.099      337.172        8.967      860.851
02/08/2014  20:11:00        8.445       -0.251       40.816       61.473       77.664       42.495     3778.982     6031.657     1805.807        0.667        0.581        8.449       43.616       26.650      337.171        8.966      860.900
02/08/2014  20:12:00      -30.499        4.207       59.822       42.383       58.018       37.680     1796.354     3366.093     1419.768        0.555        0.329       30.787       34.404        1.249      337.184        8.989      860.887
02/08/2014  20:13:00      -76.167      -89.785       -7.649       50.093       91.571       42.005     2509.354     8385.268     1764.408        1.329        0.633      117.740       41.966        0.127      337.302        9.183      860.990
02/08/2014  20:14:00      -41.105      -77.746       -4.376       58.313       69.971       36.229     3400.409     4895.902     1312.539        0.868        0.480       87.944       37.294        0.180      337.293        9.170      861.033
02/08/2014  20:15:00     -128.840     -217.856      -15.899      126.109       62.755       44.272    15903.569     3938.131     1960.010        4.305        1.090      253.103       32.640        0.017      337.282        9.146      860.985
02/08/2014  20:16:00     -153.493     -135.512        9.988      113.861       80.233       47.236    12964.229     6437.409     2231.266        3.182        1.082      204.752       45.918        0.050      337.299        9.177      860.963
02/08/2014  20:17:00      -55.439     -117.192       -2.917       80.532      114.765       52.629     6485.422    13171.034     2769.844        1.962        1.121      129.644       55.799        0.185      337.333        9.234      860.852
02/08/2014  20:18:00      -70.680      -74.826        8.370       55.412       46.591       31.623     3070.495     2170.738      999.989        0.845        0.312      102.931       11.415        0.012      337.313        9.203      860.816
02/08/2014  20:19:00      -58.729      -56.674        6.955       61.909       42.745       29.886     3832.665     1827.166      893.175        0.663        0.328       81.615       24.185        0.088      337.329        9.229      860.953
02/08/2014  20:20:00       13.206      -67.799       -7.583       48.541       50.284       36.073     2356.221     2528.436     1301.232        0.551        0.309       69.073       27.381        0.157      337.363        9.285      860.971
02/08/2014  20:21:00       29.094       12.010       14.668       72.682       66.612       33.552     5282.703     4437.213     1125.761        0.602        0.542       31.475       11.890        0.143      337.447        9.427      860.935
02/08/2014  20:22:00       47.083        6.078       23.085       58.077       43.456       36.176     3372.891     1888.433     1308.706        0.468        0.329       47.473       30.594        0.415      337.298        9.179      860.953
02/08/2014  20:23:00       -1.940       48.507       44.353       52.854       35.939       33.565     2793.549     1291.625     1126.579        0.477        0.261       48.545       35.708        0.541      337.339        9.247      860.895
02/08/2014  20:24:00       -7.987       -6.258       69.317       63.071      104.618       69.941     3977.981    10944.825     4891.678        1.236        0.991       10.147       71.624       49.827      337.434        9.405      860.864
02/08/2014  20:25:00       53.137      -90.329        1.206       67.688      105.850       59.376     4581.661    11204.299     3525.525        1.514        0.966      104.799       62.030        0.350      337.374        9.302      860.853
02/08/2014  20:26:00       73.107     -100.094      -19.934       54.659       94.087       43.835     2987.569     8852.410     1921.514        1.476        0.688      123.949       52.252        0.178      337.354        9.271      860.885
02/08/2014  20:27:00       13.136      -78.905      -18.315       57.929       66.606       38.388     3355.777     4436.300     1473.660        0.800        0.463       79.991       27.647        0.119      337.363        9.287      860.888
02/08/2014  20:28:00      -41.030      -15.353        4.791       34.569       18.972       16.189     1195.026      359.931      262.098        0.188        0.091       43.809       15.097        0.119      337.318        9.211      860.907
02/08/2014  20:29:00      -14.255      -11.482        6.168       20.631       20.471       14.193      425.644      419.055      201.444        0.071        0.052       18.304        5.794        0.100      337.293        9.170      860.970
02/08/2014  20:30:00      -15.204      -46.177       -4.278       26.763       38.338       15.013      716.278     1469.816      225.397        0.240        0.121       48.616       17.346        0.127      337.338        9.244      861.015
02/08/2014  20:31:00      -90.285      -38.899      -18.524       53.996       83.885       21.791     2915.596     7036.772      474.853        1.022        0.521       98.309       13.589        0.019      337.350        9.263      860.991
02/08/2014  20:32:00      -52.963      -62.538       -5.092       44.520       62.298       25.843     1982.037     3881.095      667.884        0.664        0.327       81.952        7.167        0.008      337.359        9.280      860.951
02/08/2014  20:33:00       -4.346       45.402       68.919       25.583       36.349       29.650      654.505     1321.276      879.100        0.484        0.143       45.610       24.824        0.296      337.284        9.154      860.890
02/08/2014  20:34:00        0.084       37.620       29.115       30.745       31.299       29.676      945.283      979.647      880.661        0.253        0.140       37.621       16.318        0.188      337.267        9.126      860.933
02/08/2014  20:35:00      -95.518       54.560      -11.204       58.571       48.581       26.199     3430.519     2360.102      686.363        0.935        0.324      110.002       24.732        0.051      337.254        9.105      861.052
02/08/2014  20:36:00      -92.884       48.328       -8.575       45.229       36.187       26.170     2045.702     1309.504      684.883        0.754        0.202      104.705       23.683        0.051      337.226        9.058      861.100
02/08/2014  20:37:00      -78.467      106.601      -15.804       61.582       78.737       55.496     3792.346     6199.583     3079.783        1.542        0.654      132.366       35.094        0.070      337.290        9.165      861.102
02/08/2014  20:38:00      -64.058      -64.743        4.293       56.581       67.465       30.397     3201.400     4551.579      924.007        0.849        0.434       91.077       19.119        0.044      337.297        9.176      861.164
02/08/2014  20:39:00      -25.367      -78.088       -1.781       46.571       55.482       29.190     2168.815     3078.252      852.038        0.642        0.305       82.105       23.187        0.080      337.363        9.286      861.234
02/08/2014  20:40:00     -103.303      -70.007        0.369       68.085       53.233       32.828     4635.519     2833.790     1077.686        1.206        0.427      124.790       32.408        0.067      337.231        9.067      861.264
02/08/2014  20:41:00      -43.543       19.529       14.502       41.088       45.615       24.089     1688.208     2080.704      580.285        0.342        0.217       47.722       24.003        0.253      337.214        9.038      861.211
02/08/2014  20:42:00       -7.921        1.796        6.252       20.618       15.905       21.042      425.121      252.954      442.766        0.061        0.056        8.122       14.654        3.255      337.214        9.038      861.165
02/08/2014  20:43:00       31.786       14.996       -0.023       14.594       16.413       19.878      212.987      269.398      395.152        0.106        0.044       35.146        7.092        0.041      337.200        9.016      861.217
02/08/2014  20:44:00       61.222       38.612       21.999       20.403       20.529       16.817      416.273      421.434      282.815        0.342        0.056       72.381       10.321        0.020      337.224        9.054      861.272
02/08/2014  20:45:00        3.155       56.922        2.663       28.173       13.986       17.419      793.742      195.612      303.416        0.227        0.065       57.010       17.957        0.099      337.263        9.122      861.278
02/08/2014  20:46:00      -36.503       50.963      -11.918       27.212       20.863       14.972      740.482      435.250      224.163        0.274        0.070       62.687       13.932        0.049      337.211        9.034      861.264
02/08/2014  20:47:00      -86.974       56.016       -9.480       30.266       30.116       17.331      916.053      906.951      300.375        0.646        0.106      103.452       16.288        0.025      337.211        9.032      861.214
02/08/2014  20:48:00     -108.836      -70.795        3.677       73.125       70.513       41.090     5347.198     4972.032     1688.412        1.444        0.600      129.835       29.211        0.051      337.193        9.001      861.242
02/08/2014  20:49:00      -75.827     -168.350       -3.310       68.519       55.166       36.744     4694.878     3043.341     1350.119        2.159        0.454      184.639       32.565        0.031      337.379        9.313      861.267
02/08/2014  20:50:00       50.858       14.126       33.335       56.641       43.098       33.700     3208.218     1857.397     1135.712        0.505        0.310       52.783       37.734        0.511      337.361        9.283      861.196
02/08/2014  20:51:00       81.671       59.471       60.760       52.120       47.759       38.058     2716.531     2280.943     1448.409        1.017        0.322      101.030       25.542        0.064      337.345        9.256      861.161
02/08/2014  20:52:00      -15.868      -89.090      -19.990       42.738       45.629       25.133     1826.567     2081.999      631.653        0.656        0.227       90.492       25.065        0.077      337.402        9.353      861.193
02/08/2014  20:53:00       31.001     -164.818       -0.722       81.339       93.196       50.775     6616.018     8685.557     2578.093        2.300        0.894      167.708       42.056        0.063      337.521        9.550      861.212
02/08/2014  20:54:00     -109.586      -76.633        3.645       70.348       61.373       40.500     4948.860     3766.690     1640.222        1.412        0.518      133.723       40.616        0.092      337.363        9.286      861.194
02/08/2014  20:55:00      -24.036        0.099       -4.346       32.216       39.295       23.768     1037.839     1544.111      564.915        0.187        0.157       24.036       24.870        1.071      337.364        9.289      861.097
02/08/2014  20:56:00     -163.762      -68.749      -12.101       92.970       63.804       34.154     8643.409     4070.997     1166.528        2.278        0.694      177.608       14.445        0.007      337.480        9.482      861.075
02/08/2014  20:57:00     -325.867     -132.035      -17.358      115.549       77.042       45.810    13351.507     5935.397     2098.570        7.265        1.069      351.599       49.334        0.020      337.344        9.251      861.108
02/08/2014  20:58:00     -244.702     -102.725       -3.217       67.650       60.823       43.792     4576.532     3699.419     1917.716        4.032        0.510      265.389       37.501        0.020      337.326        9.219      861.213
02/08/2014  20:59:00     -110.146      -55.550       19.244       97.706       66.573       37.023     9546.496     4431.914     1370.697        1.547        0.767      123.361       48.676        0.156      337.322        9.216      861.284
02/08/2014  21:00:00      -83.713     -158.706       -0.779       53.705       82.286       25.612     2884.192     6770.984      655.958        2.125        0.516      179.431       22.205        0.015      337.336        9.240      861.283
02/08/2014  21:01:00     -100.942     -155.481       -3.711       78.864       95.186       44.800     6219.561     9060.362     2007.031        2.583        0.864      185.375       43.072        0.054      337.349        9.259      861.277
02/08/2014  21:02:00     -130.909      -72.661       -3.257       71.349       49.058       36.365     5090.648     2406.732     1322.436        1.562        0.441      149.722       32.614        0.047      337.320        9.213      861.301
02/08/2014  21:03:00     -166.420     -120.054       -3.206       96.488       81.858       44.183     9309.881     6700.724     1952.164        3.004        0.898      205.204       39.626        0.037      337.271        9.132      861.295
02/08/2014  21:04:00     -184.649     -166.556       -9.268      115.046      113.076       53.197    13235.545    12786.209     2829.969        4.538        1.443      248.669       54.028        0.047      337.301        9.181      861.210
02/08/2014  21:05:00     -224.831      -47.675       -5.672      126.356       67.534       38.028    15965.714     4560.786     1446.122        3.741        1.099      229.830       40.439        0.031      337.256        9.107      861.089
02/08/2014  21:06:00     -330.507     -114.585       -7.032       85.891       79.105       45.892     7377.219     6257.659     2106.050        6.907        0.787      349.807       43.501        0.015      337.276        9.137      861.219
02/08/2014  21:07:00     -373.587     -131.111        4.511      133.216       80.267       52.111    17746.599     6442.794     2715.568        9.184        1.345      395.926       61.456        0.024      337.244        9.086      861.343
02/08/2014  21:08:00     -213.175      -97.806        6.613      103.146       91.486       46.591    10639.064     8369.721     2170.686        3.811        1.059      234.541       43.763        0.035      337.229        9.058      861.385
02/08/2014  21:09:00     -143.277      -80.458       -3.796       75.818       47.077       37.539     5748.314     2216.232     1409.193        1.819        0.469      164.323       32.754        0.040      337.218        9.043      861.359
02/08/2014  21:10:00     -272.473       -0.994       -5.724      100.318      116.339       49.240    10063.703    13534.826     2424.603        5.014        1.301      272.475       50.156        0.034      337.209        9.026      861.292
02/08/2014  21:11:00     -232.123       -3.291       -5.414       97.249       78.713       44.090     9457.298     6195.678     1943.950        3.576        0.880      232.146       37.499        0.026      337.180        8.977      861.234
02/08/2014  21:12:00     -143.490      -81.511       11.840       83.945       44.443       30.649     7046.739     1975.163      939.382        1.867        0.498      165.026       35.108        0.045      337.190        8.994      861.244
02/08/2014  21:13:00     -170.800     -148.047       -3.589      116.301       79.092       45.119    13525.854     6255.496     2035.728        3.646        1.091      226.032       56.756        0.063      337.198        9.007      861.295
02/08/2014  21:14:00     -215.394     -182.680      -16.916      105.297       94.740       57.160    11087.363     8975.747     3267.307        5.169        1.167      282.430       44.209        0.025      337.179        8.976      861.334
02/08/2014  21:15:00      -80.457     -168.040       14.260       94.457       84.822       48.255     8922.042     7194.774     2328.504        2.668        0.922      186.308       50.536        0.074      337.240        9.080      861.355
02/08/2014  21:16:00      -52.214      -92.184       20.426       84.494       88.123       38.269     7139.300     7765.735     1464.536        1.400        0.818      105.945       43.501        0.169      337.267        9.124      861.299
02/08/2014  21:17:00        3.268      -65.943       -8.708       60.293       51.911       48.932     3635.300     2694.803     2394.311        0.658        0.436       66.024       35.983        0.297      337.237        9.075      861.190
02/08/2014  21:18:00       13.579       22.106       87.810       52.800       94.929       42.577     2787.841     9011.585     1812.772        1.100        0.681       25.944       39.277        2.292      337.149        8.928      861.026
02/08/2014  21:19:00        8.496      -11.909       31.839       48.606       54.486       34.963     2362.508     2968.732     1222.411        0.389        0.328       14.629       30.224        4.269      337.174        8.973      860.973
02/08/2014  21:20:00      -52.971      -47.537       20.638       88.625       54.143       32.508     7854.384     2931.502     1056.751        0.866        0.592       71.174       31.665        0.198      337.208        9.027      861.100
02/08/2014  21:21:00     -189.103       -1.694       -7.218       46.565       58.241       33.300     2168.342     3391.963     1108.863        2.124        0.333      189.111       27.956        0.022      337.138        8.910      861.175
02/08/2014  21:22:00     -195.402       23.117      -17.395       43.226       42.881       23.754     1868.483     1838.767      564.266        2.164        0.214      196.765       21.240        0.012      337.128        8.892      861.226
02/08/2014  21:23:00     -191.178      -75.585       -7.585      115.823       57.263       34.443    13414.969     3279.041     1186.332        3.010        0.894      205.578       30.755        0.022      337.217        9.039      861.305
02/08/2014  21:24:00      -52.948      -50.132       22.199       79.467       55.542       32.730     6315.061     3084.934     1071.233        0.814        0.524       72.916       27.888        0.146      337.264        9.121      861.245
02/08/2014  21:25:00     -135.013      -97.069      -10.446       80.875       60.069       29.466     6540.817     3608.292      868.245        1.939        0.551      166.286       24.470        0.022      337.315        9.205      861.215
02/08/2014  21:26:00     -129.533     -125.114       -4.716       81.658       64.823       40.996     6667.949     4202.077     1680.636        2.250        0.628      180.089       42.444        0.056      337.305        9.186      861.282
02/08/2014  21:27:00     -204.115     -128.879        2.159       93.503       72.353       40.247     8742.800     5234.906     1619.804        3.693        0.780      241.397       40.787        0.029      337.227        9.057      861.307
02/08/2014  21:28:00     -135.744     -112.696        9.251       85.678       57.415       40.238     7340.702     3296.527     1619.096        2.173        0.613      176.428       39.148        0.049      337.213        9.032      861.315
02/08/2014  21:29:00     -173.062     -117.645       -5.248       61.093       54.341       33.688     3732.355     2952.932     1134.897        2.582        0.391      209.263       21.400        0.010      337.261        9.112      861.309
02/08/2014  21:30:00     -189.588     -101.593       -6.635       83.466       52.361       46.965     6966.520     2741.703     2205.668        2.911        0.596      215.093       33.457        0.024      337.258        9.109      861.235
02/08/2014  21:31:00      -58.020      -86.999      -10.533       42.957       52.180       37.148     1845.280     2722.712     1379.972        0.850        0.297      104.571       31.832        0.093      337.331        9.233      861.108
02/08/2014  21:32:00      -71.780      -26.503       10.529       83.833       38.205       29.988     7027.953     1459.620      899.298        0.767        0.469       76.516       38.986        0.260      337.297        9.174      861.123
02/08/2014  21:33:00     -182.575     -109.164        5.000       74.932       81.500       43.175     5614.792     6642.236     1864.071        2.970        0.706      212.721       44.547        0.044      337.239        9.076      861.293
02/08/2014  21:34:00     -132.187      -36.878        6.851       76.121       71.895       47.984     5794.476     5168.962     2302.420        1.607        0.663      137.235       35.375        0.066      337.198        9.010      861.392
02/08/2014  21:35:00     -130.389      -72.780       -0.948       80.875       68.513       46.369     6540.831     4694.064     2150.106        1.784        0.669      149.326       37.861        0.064      337.203        9.019      861.361
02/08/2014  21:36:00     -190.351      -97.035       -4.205       96.968       75.973       43.502     9402.788     5771.965     1892.408        3.136        0.853      213.657       49.957        0.055      337.302        9.180      861.387
02/08/2014  21:37:00     -262.809      -82.239       -5.836      132.997       92.991       51.717    17688.262     8647.365     2674.669        5.243        1.451      275.376       50.814        0.034      337.311        9.196      861.434
02/08/2014  21:38:00     -163.186      -74.330        8.680       95.134       81.427       42.679     9050.539     6630.315     1821.475        2.486        0.875      179.317       40.607        0.051      337.271        9.130      861.478
02/08/2014  21:39:00     -206.583      -45.106       -8.989       80.080       70.270       34.471     6412.785     4937.847     1188.246        2.866        0.627      211.450       30.427        0.021      337.259        9.110      861.535
02/08/2014  21:40:00     -144.355      -39.680      -13.153       64.731       65.649       27.974     4190.095     4309.854      782.528        1.593        0.464      149.710       26.485        0.031      337.211        9.032      861.529
02/08/2014  21:41:00     -170.985      -38.302       -2.191       91.826       67.555       40.571     8432.018     4563.716     1645.985        2.267        0.732      175.222       42.191        0.058      337.245        9.089      861.550
02/08/2014  21:42:00     -214.405     -135.824        2.698      115.301       91.457       41.859    13294.258     8364.412     1752.215        4.391        1.171      253.807       29.609        0.014      337.345        9.254      861.604
02/08/2014  21:43:00     -133.176     -127.139       16.193      132.568      144.533       61.245    17574.388    20889.738     3750.963        3.818        2.111      184.121       61.564        0.112      337.354        9.270      861.645
02/08/2014  21:44:00     -175.565      -82.386       -6.028      105.816       69.054       41.988    11197.014     4768.448     1763.023        2.768        0.886      193.935       49.646        0.066      337.354        9.269      861.685
02/08/2014  21:45:00     -174.295     -116.972      -11.347       51.139       49.603       33.380     2615.160     2460.507     1114.206        2.519        0.309      209.907       23.223        0.012      337.470        9.462      861.705
02/08/2014  21:46:00     -112.110      -41.823        6.029       60.351       56.190       28.607     3642.251     3157.298      818.353        1.098        0.381      119.657       25.053        0.044      337.386        9.325      861.657
02/08/2014  21:47:00     -103.868        7.261       -0.439       55.823       43.775       26.908     3116.200     1916.290      724.044        0.830        0.288      104.121       29.623        0.081      337.416        9.374      861.647
02/08/2014  21:48:00      -92.653     -100.651       -3.769      123.735       77.818       37.924    15310.436     6055.608     1438.217        2.076        1.140      136.803       47.482        0.120      337.417        9.376      861.733
02/08/2014  21:49:00      -98.176      -55.303       21.036       99.830       64.118       41.109     9965.952     4111.180     1689.989        1.445        0.788      112.681       40.947        0.132      337.409        9.362      861.758
02/08/2014  21:50:00      -37.808      -89.222       50.996      105.711      114.225       64.931    11174.854    13047.248     4216.033        2.021        1.422       96.902       67.071        0.479      337.395        9.340      861.675
02/08/2014  21:51:00     -157.841      -95.839        5.959       94.987      108.899       52.979     9022.472    11859.057     2806.729        2.891        1.184      184.659       56.709        0.094      337.414        9.370      861.588
02/08/2014  21:52:00     -186.577      -84.583       15.488      143.325      137.107       62.602    20542.036    18798.326     3919.014        4.272        2.163      204.854       73.035        0.127      337.403        9.352      861.590
02/08/2014  21:53:00     -230.873     -203.831       -8.051      145.735       99.700       74.208    21238.663     9940.176     5506.764        6.579        1.834      307.977       77.424        0.063      337.491        9.497      861.730
02/08/2014  21:54:00     -203.351     -168.177       -1.763      153.891      103.279       81.506    23682.552    10666.638     6643.278        5.531        2.050      263.885       92.754        0.124      337.402        9.349      861.721
02/08/2014  21:55:00     -262.954     -110.585      -21.209       97.454       68.085       41.885     9497.329     4635.629     1754.336        4.885        0.794      285.261       36.330        0.016      337.467        9.456      861.609
02/08/2014  21:56:00     -235.769     -152.934      -20.432       83.208       67.833       45.840     6923.632     4601.300     2101.292        4.651        0.681      281.027       33.727        0.014      337.487        9.489      861.619
02/08/2014  21:57:00     -256.356     -148.082       -4.647       91.525       73.442       53.106     8376.874     5393.663     2820.224        5.213        0.830      296.052       44.296        0.022      337.442        9.415      861.795
02/08/2014  21:58:00     -165.118      -63.818       -2.337       76.544       50.927       34.763     5859.058     2593.525     1208.491        2.050        0.483      177.021       30.497        0.030      337.443        9.420      861.827
02/08/2014  21:59:00      -16.063      -95.385       -0.578       58.043       63.552       29.189     3369.039     4038.878      852.008        0.881        0.413       96.728       16.175        0.028      337.517        9.545      861.739
02/08/2014  22:00:00      -41.895      -31.996       -2.826       41.184       41.609       29.643     1696.107     1731.275      878.710        0.355        0.215       52.716       27.091        0.264      337.560        9.616      861.687
02/08/2014  22:01:00     -161.452      -83.677       -0.000       93.945       81.562       41.205     8825.666     6652.409     1697.830        2.512        0.859      181.848       37.740        0.043      337.481        9.483      861.718
02/08/2014  22:02:00     -128.418      -62.938        1.488       71.916       67.039       37.722     5171.968     4494.224     1422.964        1.577        0.554      143.012       39.812        0.077      337.420        9.381      861.715
02/08/2014  22:03:00      -71.051     -112.681       -2.171       45.244       53.459       26.413     2047.012     2857.825      697.629        1.168        0.280      133.211       23.882        0.032      337.414        9.373      861.706
02/08/2014  22:04:00      -99.500     -148.926        1.689       78.221       83.724       39.559     6118.589     7009.716     1564.951        2.338        0.735      179.107       40.184        0.050      337.395        9.340      861.727
02/08/2014  22:05:00      -46.668      -91.768       -7.684       59.562       77.937       34.695     3547.589     6074.236     1203.719        1.074        0.541      102.952       32.235        0.098      337.424        9.389      861.633
02/08/2014  22:06:00      -56.076      -46.093        6.695       56.993       33.078       27.221     3248.150     1094.152      740.967        0.520        0.254       72.589       19.840        0.075      337.367        9.294      861.500
02/08/2014  22:07:00     -127.533     -116.652      -10.480       88.296       79.857       50.835     7796.176     6377.110     2584.182        2.337        0.838      172.837       36.652        0.045      337.388        9.327      861.445
02/08/2014  22:08:00     -165.758     -109.240       -6.052       68.934       67.768       39.439     4751.942     4592.440     1555.413        2.517        0.545      198.517       34.705        0.031      337.343        9.251      861.530
02/08/2014  22:09:00      -39.603      -56.594       22.809       72.024       70.103       35.579     5187.398     4914.386     1265.889        0.833        0.568       69.075       32.612        0.223      337.340        9.248      861.587
02/08/2014  22:10:00      -89.748       19.676       -3.929       48.798       36.362       28.877     2381.204     1322.197      833.852        0.650        0.227       91.879       26.265        0.082      337.337        9.243      861.493
02/08/2014  22:11:00     -125.011      -33.175      -10.392       97.918       48.857       31.726     9587.844     2386.968     1006.509        1.491        0.649      129.338       46.455        0.129      337.391        9.332      861.549
02/08/2014  22:12:00      -89.727      -26.822        5.709       75.110       43.952       23.787     5641.514     1931.803      565.817        0.847        0.407       93.651       29.137        0.097      337.352        9.268      861.571
02/08/2014  22:13:00      -67.347      -62.054       -3.826       51.631       33.203       17.144     2665.719     1102.419      293.932        0.623        0.203       91.577       21.627        0.056      337.406        9.359      861.557
02/08/2014  22:14:00     -164.748     -101.881       -0.586       96.761       74.493       33.702     9362.603     5549.141     1135.826        2.678        0.802      193.705       34.969        0.033      337.346        9.255      861.644
02/08/2014  22:15:00     -217.446     -121.040       10.770      148.015      121.189       55.445    21908.436    14686.716     3074.136        5.085        1.983      248.864       66.280        0.071      337.330        9.228      861.587
02/08/2014  22:16:00     -241.532      -87.416      -25.606       88.176       90.941       44.952     7775.089     8270.175     2020.650        4.235        0.903      256.865       33.690        0.017      337.361        9.280      861.468
02/08/2014  22:17:00     -212.810     -141.750      -15.865       82.138       61.244       47.103     6746.573     3750.877     2218.664        3.917        0.636      255.697       34.834        0.019      337.350        9.259      861.484
02/08/2014  22:18:00     -254.603      -81.888      -10.348      110.132       76.244       50.421    12129.152     5813.168     2542.282        4.606        1.024      267.448       54.233        0.041      337.356        9.272      861.543
02/08/2014  22:19:00     -138.344      -57.176       -3.601       97.930       69.301       33.908     9590.263     4802.603     1149.769        1.898        0.777      149.694       42.007        0.079      337.499        9.512      861.490
02/08/2014  22:20:00     -295.754      -15.604      -10.454      102.011       68.316       44.035    10406.248     4667.028     1939.043        5.241        0.851      296.166       50.810        0.029      337.401        9.348      861.527
02/08/2014  22:21:00     -129.084      -40.500       -0.313      110.365       70.228       49.228    12180.367     4931.979     2423.375        1.892        0.977      135.288       48.440        0.128      337.375        9.304      861.573
02/08/2014  22:22:00      -30.445        0.535       23.132       54.439       42.320       27.942     2963.583     1790.994      780.743        0.350        0.277       30.449       29.677        0.950      337.327        9.227      861.501
02/08/2014  22:23:00     -158.843      -76.719       -3.417       96.814       58.268       32.771     9373.040     3395.200     1073.944        2.248        0.692      176.400       37.294        0.045      337.386        9.321      861.494
02/08/2014  22:24:00     -228.871      -96.972      -12.085       68.333       67.494       41.715     4669.386     4555.439     1740.144        3.645        0.548      248.567       32.208        0.017      337.385        9.318      861.554
02/08/2014  22:25:00     -125.831      -87.072       -6.543       85.900       77.203       45.010     7378.871     5960.286     2025.919        1.941        0.768      153.019       41.003        0.072      337.361        9.282      861.479
02/08/2014  22:26:00      -85.097      -85.982        4.410      108.822       66.744       42.775    11842.279     4454.753     1829.721        1.639        0.906      120.973       32.540        0.072      337.410        9.363      861.359
02/08/2014  22:27:00      -98.922       -7.563       -8.246       63.374       60.856       25.896     4016.267     3703.424      670.626        0.915        0.420       99.211       24.058        0.059      337.340        9.248      861.375
02/08/2014  22:28:00     -152.936      -78.883        2.741      117.206       85.213       43.892    13737.330     7261.315     1926.482        2.627        1.146      172.081       45.437        0.070      337.293        9.167      861.462
02/08/2014  22:29:00     -271.475      -72.089      -21.826       89.468       63.012       47.911     8004.556     3970.532     2295.419        4.682        0.714      280.883       48.492        0.030      337.310        9.195      861.469
02/08/2014  22:30:00     -309.034     -110.959      -11.264      131.021      123.810       75.915    17166.556    15328.954     5763.056        7.309        1.913      328.350       69.744        0.045      337.372        9.299      861.441
02/08/2014  22:31:00     -274.454      -54.193       -3.212      114.534      101.072       70.530    13118.110    10215.533     4974.507        5.328        1.415      279.753       63.622        0.052      337.428        9.392      861.451
02/08/2014  22:32:00     -237.040     -163.108       -0.762      115.857      125.253       63.684    13422.955    15688.345     4055.657        5.797        1.658      287.737       64.126        0.050      337.419        9.378      861.450
02/08/2014  22:33:00     -169.662      -35.823       -3.788       79.445       69.563       44.292     6311.558     4839.036     1961.805        2.159        0.656      173.402       32.171        0.034      337.397        9.341      861.492
02/08/2014  22:34:00     -198.891      -77.584        4.163       78.705       76.141       48.279     6194.502     5797.498     2330.883        2.996        0.716      213.488       37.703        0.031      337.432        9.399      861.495
02/08/2014  22:35:00     -153.285      -47.167        5.568       72.027       56.476       34.552     5187.835     3189.591     1193.873        1.766        0.479      160.378       35.477        0.049      337.437        9.409      861.477
02/08/2014  22:36:00     -251.704     -158.554       -8.757       86.636       76.308       56.754     7505.793     5822.983     3221.044        5.256        0.827      297.480       40.970        0.019      337.433        9.399      861.497
02/08/2014  22:37:00     -237.335     -181.846       -8.677      140.040      103.652       62.669    19611.259    10743.750     3927.421        6.187        1.714      298.991       69.401        0.054      337.409        9.360      861.481
02/08/2014  22:38:00     -195.786      -99.864        0.202      139.248       91.728       49.315    19390.079     8414.049     2431.972        3.926        1.512      219.784       54.608        0.062      337.394        9.335      861.385
02/08/2014  22:39:00     -134.883      -57.062       -3.155      107.630       74.568       49.680    11584.250     5560.429     2468.122        2.053        0.981      146.456       53.428        0.133      337.439        9.413      861.339
02/08/2014  22:40:00     -148.396      -47.250       11.377      134.227       72.690       53.189    18016.932     5283.765     2829.098        2.525        1.306      155.737       58.926        0.143      337.448        9.426      861.379
02/08/2014  22:41:00     -177.787     -139.712       -7.952      110.637       77.876       40.950    12240.651     6064.681     1676.887        3.558        0.999      226.115       44.507        0.039      337.511        9.531      861.414
02/08/2014  22:42:00     -143.171      -57.807        7.085      115.518       65.646       40.245    13344.435     4309.371     1619.643        2.158        0.964      154.401       39.396        0.065      337.473        9.470      861.402
02/08/2014  22:43:00     -219.534      -61.016       -5.518       95.177       79.478       40.712     9058.664     6316.792     1657.455        3.449        0.852      227.856       35.362        0.024      337.418        9.375      861.384
02/08/2014  22:44:00     -177.714      -45.799       -7.026       89.609       75.547       38.029     8029.746     5707.415     1446.222        2.445        0.759      183.521       41.190        0.050      337.383        9.317      861.391
02/08/2014  22:45:00     -189.093      -75.160       -3.226       92.330       67.398       39.681     8524.838     4542.451     1574.616        2.803        0.732      203.483       47.475        0.054      337.388        9.326      861.437
02/08/2014  22:46:00     -207.219      -37.539       -0.220      108.669      114.357       55.942    11808.865    13077.609     3129.529        3.618        1.401      210.592       53.309        0.064      337.368        9.292      861.464
02/08/2014  22:47:00     -241.288      -79.626       -9.586       84.049       81.727       47.060     7064.240     6679.360     2214.644        4.030        0.798      254.087       52.462        0.043      337.363        9.283      861.489
02/08/2014  22:48:00     -244.175     -127.016       -5.705      125.862      112.302       48.484    15841.296    12611.739     2350.693        5.329        1.540      275.235       34.915        0.016      337.415        9.372      861.462
02/08/2014  22:49:00     -187.073     -109.848      -12.693       97.808       77.551       44.272     9566.492     6014.226     1960.034        3.238        0.877      216.940       51.143        0.056      337.463        9.453      861.433
02/08/2014  22:50:00     -159.412      -89.154       -9.839       56.313       50.083       29.916     3171.158     2508.344      894.991        2.001        0.329      182.649       17.044        0.009      337.473        9.469      861.391
02/08/2014  22:51:00      -66.664      -98.340       -0.304       54.715       42.606       29.346     2993.742     1815.231      861.195        0.989        0.284      118.806       28.525        0.058      337.498        9.512      861.392
02/08/2014  22:52:00     -120.196      -93.294       -9.111       38.087       54.147       32.890     1450.589     2931.942     1081.739        1.435        0.273      152.154       26.412        0.030      337.449        9.431      861.412
02/08/2014  22:53:00      -73.866        5.035       -3.450       27.123       31.457       21.273      735.667      989.555      452.534        0.384        0.109       74.037       17.038        0.053      337.393        9.337      861.417
02/08/2014  22:54:00     -129.135      -12.094       -8.844       44.749       44.338       19.135     2002.471     1965.820      366.151        1.062        0.217      129.700       14.372        0.012      337.398        9.346      861.440
02/08/2014  22:55:00     -142.328      -60.581        4.094       66.433       51.014       33.493     4413.386     2602.452     1121.750        1.604        0.407      154.684       35.652        0.053      337.347        9.259      861.479
02/08/2014  22:56:00     -172.203      -18.379      -16.270       48.329       54.269       27.574     2335.673     2945.071      760.326        1.815        0.302      173.181       15.081        0.008      337.362        9.283      861.505
02/08/2014  22:57:00     -170.354     -108.167        3.375       98.390       83.785       44.560     9680.655     7019.861     1985.637        2.971        0.934      201.793       41.232        0.042      337.347        9.257      861.521
02/08/2014  22:58:00     -134.776      -84.643       11.686       98.778       71.654       44.342     9757.060     5134.341     1966.248        2.116        0.843      159.151       46.951        0.087      337.399        9.344      861.501
02/08/2014  22:59:00      -84.027      -34.614        2.573       37.266       53.601       22.289     1388.734     2873.039      496.778        0.651        0.238       90.878       19.007        0.044      337.450        9.431      861.404
02/08/2014  23:00:00     -139.501       10.029      -13.729       29.658       26.668       15.858      879.620      711.166      251.465        1.080        0.092      139.861        7.903        0.003      337.403        9.355      861.353
02/08/2014  23:01:00     -263.021       40.637      -20.177       45.863       37.035       22.393     2103.384     1371.605      501.430        3.761        0.199      266.142       16.297        0.004      337.461        9.445      861.421
02/08/2014  23:02:00     -160.006      -61.411       -3.814       38.428       40.151       24.066     1476.698     1612.120      579.178        1.653        0.183      171.387       16.008        0.009      337.435        9.407      861.456
02/08/2014  23:03:00      -85.748      -59.910        1.649       40.149       32.371       23.608     1611.970     1047.865      557.324        0.708        0.161      104.604       22.958        0.048      337.429        9.398      861.451
02/08/2014  23:04:00     -101.499      -16.363       -3.721       30.526       40.753       22.474      931.827     1660.779      505.069        0.684        0.155      102.810       16.286        0.025      337.430        9.400      861.433
02/08/2014  23:05:00      -93.839      -16.296      -13.307       36.039       25.243       21.802     1298.789      637.222      475.324        0.583        0.121       95.243       12.132        0.016      337.432        9.401      861.403
02/08/2014  23:06:00     -152.049      -13.173      -18.659       46.198       26.124       22.777     2134.289      682.485      518.797        1.349        0.167      152.619       25.613        0.028      337.397        9.345      861.407
02/08/2014  23:07:00     -186.988      -60.015      -15.928       66.358       64.997       30.204     4403.380     4224.594      912.304        2.418        0.477      196.383       28.428        0.021      337.348        9.259      861.464
02/08/2014  23:08:00     -151.165      -85.400       -4.141      101.369       72.109       42.777    10275.749     5199.715     1829.878        2.373        0.865      173.620       51.573        0.088      337.456        9.439      861.500
02/08/2014  23:09:00      -62.651      -50.733       -5.525       62.746       50.344       20.076     3937.108     2534.555      403.033        0.670        0.344       80.616       32.242        0.160      337.441        9.417      861.444
02/08/2014  23:10:00      -48.460        4.135        1.441       63.022       18.744       21.157     3971.824      351.332      447.614        0.357        0.239       48.636       28.689        0.348      337.357        9.275      861.352
02/08/2014  23:11:00     -234.224      -23.923       -9.373       57.959       61.787       29.587     3359.220     3817.604      875.394        3.178        0.403      235.442       28.301        0.014      337.443        9.418      861.440
02/08/2014  23:12:00     -197.903      -78.368        7.517       95.858       57.658       44.355     9188.828     3324.462     1967.362        2.992        0.724      212.854       51.928        0.060      337.396        9.340      861.485
02/08/2014  23:13:00     -226.113      -72.901      -25.935       55.720       45.105       30.335     3104.762     2034.419      920.243        3.159        0.303      237.574       22.514        0.009      337.457        9.440      861.484
02/08/2014  23:14:00     -146.576      -94.077      -10.771       41.605       41.209       26.105     1730.935     1698.221      681.491        1.728        0.206      174.169       19.765        0.013      337.444        9.422      861.512
02/08/2014  23:15:00     -206.134     -114.074       -4.327      104.009       84.065       44.520    10817.931     7066.896     1982.067        3.769        0.993      235.593       55.348        0.055      337.481        9.480      861.552
02/08/2014  23:16:00     -189.658      -90.156       -4.809      116.275       90.780       47.430    13519.927     8240.991     2249.632        3.406        1.201      209.996       48.489        0.053      337.460        9.446      861.542
02/08/2014  23:17:00      -22.786     -111.660        7.192       60.858       66.604       34.135     3703.734     4436.062     1165.223        1.117        0.465      113.961       31.969        0.079      337.574        9.641      861.530
02/08/2014  23:18:00      -37.301      -80.571       -2.230       74.810       80.677       52.436     5596.531     6508.787     2749.574        1.137        0.743       88.786       32.315        0.132      337.677        9.813      861.500
02/08/2014  23:19:00      -72.968      -41.868       21.783       80.621       55.361       37.007     6499.721     3064.844     1369.548        0.924        0.547       84.126       48.916        0.338      337.619        9.715      861.476
02/08/2014  23:20:00      -32.459     -109.075      -15.119      127.667       67.344       46.363    16298.971     4535.162     2149.489        1.808        1.149      113.802       39.895        0.123      337.643        9.756      861.485
02/08/2014  23:21:00     -112.366     -158.764       -1.595       79.234       67.198       39.704     6278.057     4515.530     1576.369        2.510        0.618      194.505       33.185        0.029      337.627        9.726      861.461
02/08/2014  23:22:00      -68.909     -169.085        6.574       69.812       73.008       40.347     4873.733     5330.159     1627.901        2.260        0.592      182.587       26.299        0.021      337.686        9.827      861.425
02/08/2014  23:23:00     -108.855     -160.337        5.553       73.747       84.508       50.650     5438.635     7141.678     2565.374        2.636        0.757      193.797       44.287        0.052      337.652        9.768      861.464
02/08/2014  23:24:00      -87.196     -162.885       -5.919       69.416       83.597       37.519     4818.591     6988.388     1407.638        2.369        0.661      184.756       29.660        0.026      337.750        9.932      861.491
02/08/2014  23:25:00     -107.968     -236.558        4.679      113.426      104.148       49.429    12865.485    10846.880     2443.252        4.689        1.308      260.032       45.566        0.031      337.661        9.783      861.490
02/08/2014  23:26:00      -59.070     -235.611       -4.873      101.966       89.984       47.147    10397.122     8097.114     2222.835        3.987        1.036      242.903       38.457        0.025      337.668        9.796      861.493
02/08/2014  23:27:00     -237.179     -121.693       15.902      203.329      112.505       63.711    41342.545    12657.264     4059.048        6.468        2.903      266.576       83.255        0.098      337.575        9.639      861.477
02/08/2014  23:28:00     -130.709     -318.284      -12.342      111.203      127.402       50.688    12366.159    16231.375     2569.283        7.485        1.558      344.078       53.438        0.024      337.633        9.736      861.419
02/08/2014  23:29:00     -195.343     -248.748        1.123      138.650      125.090       61.970    19223.914    15647.393     3840.299        6.937        1.936      316.282       68.005        0.046      337.638        9.745      861.328
02/08/2014  23:30:00     -295.414     -197.335       -8.811      121.350      112.536       70.332    14725.792    12664.342     4946.602        7.931        1.617      355.262       59.801        0.028      337.587        9.659      861.360
02/08/2014  23:31:00     -238.116     -171.862       11.787      180.866      157.821       88.983    32712.560    24907.585     7917.943        7.594        3.277      293.660       88.620        0.091      337.622        9.716      861.347
02/08/2014  23:32:00     -202.965     -247.647      -14.657      118.799      103.606       59.513    14113.251    10734.219     3541.788        6.556        1.419      320.194       50.465        0.025      337.665        9.790      861.358
02/08/2014  23:33:00      -69.780     -183.331       22.165      109.514      140.251       62.920    11993.403    19670.279     3958.935        3.729        1.781      196.162       67.064        0.117      337.681        9.818      861.292
02/08/2014  23:34:00     -183.622     -119.507        2.280      126.706      104.635       60.337    16054.349    10948.498     3640.500        3.932        1.532      219.087       72.543        0.110      337.618        9.711      861.253
02/08/2014  23:35:00     -187.821     -193.632        8.054      137.249      103.325       71.871    18837.169    10676.096     5165.423        5.375        1.734      269.759       82.447        0.093      337.615        9.706      861.255
02/08/2014  23:36:00     -211.655     -118.499      -13.220       86.453       83.542       40.088     7474.049     6979.333     1607.067        3.753        0.803      242.569       37.784        0.024      337.588        9.660      861.238
02/08/2014  23:37:00     -265.132     -202.290        4.527      161.615      141.141       84.112    26119.374    19920.655     7074.780        8.216        2.656      333.491       73.128        0.048      337.584        9.653      861.252
02/08/2014  23:38:00     -388.852     -238.340      -22.109      186.765      149.525       83.191    34881.195    22357.663     6920.815       13.632        3.208      456.083       85.420        0.035      337.576        9.640      861.226
02/08/2014  23:39:00     -425.354     -211.492       -7.552      196.659      167.201       80.977    38674.797    27956.132     6557.340       14.944        3.659      475.031       82.299        0.030      337.539        9.576      861.187
02/08/2014  23:40:00     -342.487      -92.548      -22.004      235.799      163.398      100.011    55601.163    26698.994    10002.255       10.931        4.615      354.771      117.492        0.110      337.607        9.692      861.244
02/08/2014  23:41:00     -258.526     -166.163       -3.920      140.754      122.467       78.755    19811.719    14998.161     6202.355        6.773        2.051      307.320       75.221        0.060      337.649        9.762      861.301
02/08/2014  23:42:00     -348.627      -80.369        2.561      221.404      167.021       87.460    49019.840    27895.951     7649.233       10.627        4.228      357.770       86.398        0.058      337.621        9.716      861.224
02/08/2014  23:43:00     -315.627     -185.558       25.732      199.686      154.157       84.687    39874.619    23764.363     7171.956       10.275        3.541      366.132       98.204        0.072      337.649        9.764      861.217
02/08/2014  23:44:00     -365.089     -198.738       -3.195      177.075      139.655       76.841    31355.591    19503.591     5904.518       11.477        2.838      415.677       79.976        0.037      337.708        9.863      861.163
02/08/2014  23:45:00     -434.800     -142.713      -20.209      162.465       85.111       65.896    26394.718     7243.926     4342.267       12.390        1.899      457.622       80.207        0.031      337.726        9.890      861.158
02/08/2014  23:46:00     -333.168      -84.466       -0.041      152.343      124.328       79.288    23208.406    15457.358     6286.515        8.153        2.248      343.708       76.201        0.049      337.731        9.899      861.156
02/08/2014  23:47:00     -491.258     -290.266      -24.895      210.283      161.719       98.691    44218.860    26152.961     9740.002       20.314        4.006      570.603       91.803        0.026      337.739        9.913      861.167
02/08/2014  23:48:00     -445.871     -277.360      -43.351      196.606      206.294       80.995    38653.952    42557.189     6560.156       18.267        4.389      525.100       81.832        0.024      337.687        9.828      861.212
02/08/2014  23:49:00     -386.803     -206.355      -22.457      135.740       96.097       68.573    18425.441     9234.699     4702.289       11.253        1.618      438.405       63.049        0.021      337.587        9.658      861.196
02/08/2014  23:50:00     -236.113     -110.895        3.500      119.163      113.505       55.393    14199.827    12883.475     3068.394        4.910        1.508      260.858       55.865        0.046      337.537        9.573      861.196
02/08/2014  23:51:00     -212.670     -102.815        5.016      114.413       92.535       53.108    13090.391     8562.793     2820.424        4.014        1.224      236.219       54.591        0.053      337.494        9.502      861.181
02/08/2014  23:52:00     -193.891     -107.591        0.282      118.368      115.938       59.640    14010.980    13441.703     3556.879        4.008        1.550      221.742       66.700        0.090      337.470        9.463      861.123
02/08/2014  23:53:00     -339.733      -77.122       -0.002      198.120      138.799       82.136    39251.691    19265.249     6746.332        9.330        3.263      348.376       90.780        0.068      337.436        9.405      861.133
02/08/2014  23:54:00     -284.605     -170.350        7.298      192.292      130.006       82.011    36976.165    16901.542     6725.763        8.533        3.030      331.691       99.962        0.091      337.445        9.422      861.209
02/08/2014  23:55:00     -301.350      -33.934       -1.333      125.013      105.762       65.292    15628.240    11185.552     4262.984        6.151        1.554      303.254       61.837        0.042      337.416        9.371      861.237
02/08/2014  23:56:00     -321.736     -219.799      -16.777      173.694      131.038       80.212    30169.726    17171.078     6433.925       10.293        2.689      389.649       87.138        0.050      337.482        9.484      861.169
02/08/2014  23:57:00     -239.405      -62.394       -0.588      132.718      105.164       61.948    17613.991    11059.410     3837.575        4.685        1.626      247.402       60.930        0.061      337.626        9.724      861.039
02/08/2014  23:58:00     -217.308      -46.991        8.625      127.963       99.068       62.553    16374.596     9814.428     3912.930        3.980        1.505      222.330       58.048        0.068      337.688        9.829      861.133
02/08/2014  23:59:00     -254.059      -58.719       -6.525      105.972       80.628       46.409    11229.986     6500.937     2153.833        4.396        0.994      260.756       49.703        0.036      337.660        9.780      861.185
